[[{"header":{"parameterUnit":"m.s-1","parameterCategory":1,"la1":30.6,"la2":29.2853,"lo1":-89.7004,"lo2":-87.6739,"dy":0.0162,"dx":0.0183,"nx":112,"ny":82,"refTime":"2024-03-28T12:00:00:Z","depth":0,"parameterNumber":2,"parameterNumberName":"U-component_of_WINDS"},"data":[0.0,0.0,0.0,0.0,0.0,0.0,0.0,0.0,0.0,0.0,0.0,0.0,0.0,0.0,0.0,0.0,0.0,0.0,0.0,0.0,0.0,0.0,0.0,0.0,0.0,0.0,0.0,0.0,0.0,0.0,0.0,0.0,0.0,0.0,0.0,0.0,0.0,0.0,0.0,0.0,0.0,0.0,0.0,0.0,0.0,0.0,0.0,0.0,0.0,0.0,0.0,0.0,0.0,0.0,0.0,0.0,0.0,0.0,0.0,0.0,0.0,0.0,0.0,0.0,0.0,0.0,0.0,0.0,0.0,0.0,0.0,0.0,0.0,0.0,0.0,0.0,0.0,0.0,0.0,0.0,0.0,0.0,0.0,0.0,0.0,0.0,0.0,0.0,0.0,0.0,3.9092,4.2624,4.9009,5.2702,5.1972,5.0933,4.6817,3.87,0.0,0.0,0.0,0.0,0.0,0.0,0.0,0.0,0.0,0.0,0.0,0.0,0.0,0.0,0.0,0.0,0.0,0.0,0.0,0.0,0.0,0.0,0.0,0.0,0.0,0.0,0.0,0.0,0.0,0.0,0.0,0.0,0.0,0.0,0.0,0.0,0.0,0.0,0.0,0.0,0.0,0.0,0.0,0.0,0.0,0.0,0.0,0.0,0.0,0.0,0.0,0.0,0.0,0.0,0.0,0.0,0.0,0.0,0.0,0.0,0.0,0.0,0.0,0.0,0.0,0.0,0.0,0.0,0.0,0.0,0.0,0.0,0.0,0.0,0.0,0.0,0.0,0.0,0.0,0.0,0.0,0.0,0.0,0.0,0.0,0.0,0.0,0.0,0.0,0.0,0.0,0.0,0.0,0.0,0.0,0.0,0.0,0.0,0.0,0.0,0.0,0.0,0.0,0.0,3.9614,4.7414,5.0548,5.2049,5.1933,4.9817,4.5817,3.9508,0.0,0.0,0.0,0.0,0.0,0.0,0.0,0.0,0.0,0.0,0.0,0.0,0.0,0.0,0.0,0.0,0.0,0.0,0.0,0.0,0.0,0.0,0.0,0.0,0.0,0.0,0.0,0.0,0.0,0.0,0.0,0.0,0.0,0.0,0.0,0.0,0.0,0.0,0.0,0.0,0.0,0.0,0.0,0.0,0.0,0.0,0.0,0.0,0.0,0.0,0.0,0.0,0.0,0.0,0.0,0.0,0.0,0.0,0.0,0.0,0.0,0.0,0.0,0.0,0.0,0.0,0.0,0.0,0.0,0.0,0.0,0.0,0.0,0.0,0.0,0.0,0.0,0.0,0.0,0.0,0.0,0.0,0.0,0.0,0.0,0.0,0.0,0.0,0.0,0.0,0.0,0.0,0.0,0.0,0.0,0.0,0.0,0.0,0.0,0.0,0.0,0.0,0.0,3.8108,4.1925,4.8702,5.0894,5.1741,5.1279,4.9317,4.5586,3.9662,3.6469,0.0,0.0,0.0,0.0,0.0,0.0,0.0,0.0,0.0,0.0,0.0,0.0,0.0,0.0,0.0,0.0,0.0,0.0,0.0,0.0,0.0,0.0,0.0,0.0,0.0,0.0,0.0,0.0,0.0,0.0,0.0,0.0,0.0,0.0,0.0,0.0,0.0,0.0,0.0,0.0,0.0,0.0,0.0,0.0,0.0,0.0,0.0,0.0,0.0,0.0,0.0,0.0,0.0,0.0,0.0,0.0,0.0,0.0,0.0,0.0,0.0,0.0,0.0,0.0,0.0,0.0,0.0,0.0,0.0,0.0,0.0,0.0,0.0,0.0,0.0,0.0,0.0,0.0,0.0,0.0,0.0,0.0,0.0,0.0,0.0,0.0,0.0,0.0,0.0,0.0,0.0,0.0,0.0,0.0,0.0,0.0,0.0,0.0,0.0,0.0,0.0,0.0,4.1767,4.4355,4.8625,5.0625,5.1279,5.0471,4.8259,4.4662,3.9339,3.5416,0.0,0.0,0.0,0.0,0.0,0.0,0.0,0.0,0.0,0.0,0.0,0.0,0.0,0.0,0.0,0.0,0.0,0.0,0.0,0.0,0.0,0.0,0.0,0.0,0.0,0.0,0.0,0.0,0.0,0.0,0.0,0.0,0.0,0.0,0.0,0.0,0.0,0.0,0.0,0.0,0.0,0.0,0.0,0.0,0.0,0.0,0.0,0.0,0.0,0.0,0.0,0.0,0.0,0.0,0.0,0.0,0.0,0.0,0.0,0.0,0.0,0.0,0.0,0.0,0.0,0.0,0.0,0.0,0.0,0.0,0.0,0.0,0.0,0.0,0.0,0.0,0.0,0.0,0.0,0.0,0.0,0.0,0.0,0.0,0.0,0.0,0.0,0.0,0.0,0.0,0.0,0.0,0.0,0.0,0.0,0.0,0.0,0.0,0.0,0.0,0.0,0.0,4.2099,4.6086,4.7991,4.974,5.0433,4.9567,4.5774,4.1925,3.8323,3.3429,0.0,0.0,0.0,0.0,0.0,0.0,0.0,0.0,0.0,0.0,0.0,0.0,0.0,0.0,0.0,0.0,0.0,0.0,0.0,0.0,0.0,0.0,0.0,0.0,0.0,0.0,0.0,0.0,0.0,0.0,0.0,0.0,0.0,0.0,0.0,0.0,0.0,0.0,0.0,0.0,0.0,0.0,0.0,0.0,0.0,0.0,0.0,0.0,0.0,0.0,0.0,0.0,0.0,0.0,0.0,0.0,0.0,0.0,0.0,0.0,0.0,0.0,0.0,0.0,0.0,0.0,0.0,0.0,0.0,0.0,0.0,0.0,0.0,0.0,0.0,0.0,0.0,0.0,0.0,0.0,0.0,0.0,0.0,0.0,0.0,0.0,0.0,0.0,0.0,0.0,0.0,0.0,0.0,0.0,0.0,0.0,0.0,0.0,0.0,0.0,0.0,0.0,4.1074,4.4863,0.0,4.9163,4.9548,4.8644,4.568,4.2162,3.8262,0.0,0.0,0.0,0.0,0.0,0.0,0.0,0.0,0.0,0.0,0.0,0.0,0.0,0.0,0.0,0.0,0.0,0.0,0.0,0.0,0.0,0.0,0.0,0.0,0.0,0.0,0.0,0.0,0.0,0.0,0.0,0.0,0.0,0.0,0.0,0.0,0.0,0.0,0.0,0.0,0.0,0.0,0.0,0.0,0.0,0.0,0.0,0.0,0.0,0.0,0.0,0.0,0.0,0.0,0.0,0.0,0.0,0.0,0.0,0.0,0.0,0.0,0.0,0.0,0.0,0.0,0.0,0.0,0.0,0.0,0.0,0.0,0.0,0.0,0.0,0.0,0.0,0.0,0.0,0.0,0.0,0.0,0.0,0.0,0.0,0.0,0.0,0.0,0.0,0.0,0.0,0.0,0.0,0.0,0.0,0.0,0.0,0.0,0.0,0.0,0.0,0.0,3.6856,4.0728,4.4327,0.0,4.8471,4.8663,4.7778,4.4641,4.137,3.8208,0.0,0.0,0.0,0.0,0.0,0.0,0.0,0.0,0.0,0.0,0.0,0.0,0.0,0.0,0.0,0.0,0.0,0.0,0.0,0.0,0.0,0.0,0.0,0.0,0.0,0.0,0.0,0.0,0.0,0.0,0.0,0.0,0.0,0.0,0.0,0.0,0.0,0.0,0.0,0.0,0.0,0.0,0.0,0.0,0.0,0.0,0.0,0.0,0.0,0.0,0.0,0.0,0.0,0.0,0.0,0.0,0.0,0.0,0.0,0.0,0.0,0.0,0.0,0.0,0.0,0.0,0.0,0.0,0.0,0.0,0.0,0.0,0.0,0.0,0.0,0.0,0.0,0.0,0.0,0.0,0.0,0.0,0.0,0.0,0.0,0.0,0.0,0.0,0.0,0.0,0.0,0.0,0.0,0.0,0.0,0.0,0.0,0.0,0.0,0.0,0.0,0.0,3.7028,4.1396,4.4935,4.6701,4.7606,4.776,4.6971,4.2225,3.894,0.0,0.0,0.0,0.0,0.0,0.0,0.0,0.0,0.0,0.0,0.0,0.0,0.0,0.0,0.0,0.0,0.0,0.0,0.0,0.0,0.0,0.0,0.0,0.0,0.0,0.0,0.0,0.0,0.0,0.0,0.0,0.0,0.0,0.0,0.0,0.0,0.0,0.0,0.0,0.0,0.0,0.0,0.0,0.0,0.0,0.0,0.0,0.0,0.0,0.0,0.0,0.0,0.0,0.0,0.0,0.0,0.0,0.0,0.0,0.0,0.0,0.0,0.0,0.0,0.0,0.0,0.0,0.0,0.0,0.0,0.0,0.0,0.0,0.0,0.0,0.0,0.0,0.0,0.0,0.0,0.0,0.0,0.0,0.0,0.0,0.0,0.0,0.0,0.0,0.0,0.0,0.0,0.0,0.0,0.0,0.0,0.0,0.0,0.0,0.0,0.0,0.0,0.0,3.6927,4.0708,4.4097,4.6645,4.7124,4.7163,4.6932,4.2755,3.9769,3.896,0.0,0.0,0.0,0.0,0.0,0.0,0.0,0.0,0.0,0.0,0.0,0.0,0.0,0.0,0.0,0.0,0.0,0.0,0.0,0.0,0.0,0.0,0.0,0.0,0.0,0.0,0.0,0.0,0.0,0.0,0.0,0.0,0.0,0.0,0.0,0.0,0.0,0.0,0.0,0.0,0.0,0.0,0.0,0.0,0.0,0.0,0.0,0.0,0.0,0.0,0.0,0.0,0.0,0.0,0.0,0.0,0.0,0.0,0.0,0.0,0.0,0.0,0.0,0.0,0.0,0.0,0.0,0.0,0.0,0.0,0.0,0.0,0.0,0.0,0.0,0.0,0.0,0.0,0.0,0.0,0.0,0.0,0.0,0.0,0.0,0.0,0.0,0.0,0.0,0.0,0.0,0.0,0.0,0.0,0.0,0.0,0.0,0.0,0.0,0.0,0.0,0.0,3.6958,4.0234,4.3349,4.6068,4.6394,4.6394,4.6394,4.2761,3.9854,3.8383,0.0,0.0,0.0,0.0,0.0,0.0,0.0,0.0,0.0,0.0,0.0,0.0,0.0,0.0,0.0,0.0,0.0,0.0,0.0,0.0,0.0,0.0,0.0,0.0,0.0,0.0,0.0,0.0,0.0,0.0,0.0,0.0,0.0,0.0,0.0,0.0,0.0,0.0,0.0,0.0,0.0,0.0,0.0,0.0,0.0,0.0,0.0,0.0,0.0,0.0,0.0,0.0,0.0,0.0,0.0,0.0,0.0,0.0,0.0,0.0,0.0,0.0,0.0,0.0,0.0,0.0,0.0,0.0,0.0,0.0,0.0,0.0,0.0,0.0,0.0,0.0,0.0,0.0,0.0,0.0,0.0,0.0,0.0,0.0,0.0,0.0,0.0,0.0,0.0,0.0,0.0,0.0,0.0,0.0,0.0,0.0,0.0,0.0,0.0,0.0,0.0,0.0,3.7028,3.9806,4.259,4.5316,4.5586,4.5586,4.5586,4.253,3.9569,3.7112,0.0,0.0,0.0,0.0,0.0,0.0,0.0,0.0,0.0,0.0,0.0,0.0,0.0,0.0,0.0,0.0,0.0,0.0,0.0,0.0,0.0,0.0,0.0,0.0,0.0,0.0,0.0,0.0,0.0,0.0,0.0,0.0,0.0,0.0,0.0,0.0,0.0,0.0,0.0,0.0,0.0,0.0,0.0,0.0,0.0,0.0,0.0,0.0,0.0,0.0,0.0,0.0,0.0,0.0,0.0,0.0,0.0,0.0,0.0,0.0,3.0983,0.0,0.0,0.0,0.0,0.0,0.0,0.0,0.0,0.0,0.0,0.0,0.0,0.0,0.0,0.0,0.0,0.0,0.0,0.0,0.0,0.0,0.0,0.0,0.0,0.0,0.0,0.0,0.0,0.0,0.0,0.0,0.0,0.0,0.0,0.0,0.0,0.0,0.0,0.0,0.0,0.0,3.7063,3.8898,4.1316,4.5201,4.5586,4.5586,4.5586,4.3085,4.0739,3.8859,3.5059,0.0,0.0,0.0,0.0,0.0,0.0,0.0,0.0,0.0,0.0,0.0,0.0,0.0,0.0,0.0,0.0,0.0,0.0,0.0,0.0,0.0,0.0,0.0,0.0,0.0,0.0,0.0,0.0,0.0,0.0,0.0,0.0,0.0,0.0,0.0,0.0,0.0,0.0,0.0,0.0,0.0,0.0,0.0,0.0,0.0,0.0,0.0,0.0,0.0,0.0,0.0,0.0,0.0,0.0,0.0,0.0,0.0,0.0,0.0,0.0,3.2076,0.0,0.0,0.0,0.0,0.0,0.0,0.0,0.0,0.0,0.0,0.0,0.0,0.0,0.0,0.0,0.0,0.0,0.0,0.0,0.0,0.0,0.0,0.0,0.0,0.0,0.0,0.0,0.0,0.0,0.0,0.0,0.0,0.0,0.0,0.0,0.0,0.0,0.0,0.0,0.0,3.6549,3.8354,4.0777,4.4586,4.5355,4.5586,4.5586,4.364,4.1331,3.8845,3.5828,0.0,0.0,0.0,0.0,0.0,0.0,0.0,0.0,0.0,0.0,0.0,0.0,0.0,0.0,0.0,0.0,0.0,0.0,0.0,0.0,0.0,0.0,0.0,0.0,0.0,0.0,0.0,0.0,0.0,0.0,0.0,0.0,0.0,0.0,0.0,0.0,0.0,0.0,0.0,0.0,0.0,0.0,0.0,0.0,0.0,0.0,0.0,0.0,0.0,0.0,0.0,0.0,0.0,3.7469,3.7882,3.8425,3.8464,3.8207,3.7733,3.6443,3.4979,3.3508,0.0,0.0,0.0,0.0,0.0,0.0,0.0,0.0,0.0,0.0,0.0,0.0,0.0,0.0,0.0,0.0,0.0,0.0,0.0,0.0,0.0,0.0,0.0,0.0,0.0,3.443,3.3622,0.0,0.0,0.0,0.0,0.0,0.0,0.0,0.0,0.0,0.0,0.0,0.0,3.608,3.8001,4.0415,4.3932,4.4932,4.5432,4.5586,4.4179,4.1925,3.8638,3.6738,3.4301,0.0,0.0,0.0,0.0,0.0,0.0,0.0,0.0,0.0,0.0,0.0,0.0,0.0,0.0,0.0,0.0,0.0,0.0,0.0,0.0,0.0,0.0,0.0,0.0,0.0,0.0,0.0,0.0,0.0,0.0,0.0,0.0,2.9967,2.9198,0.0,0.0,0.0,0.0,0.0,0.0,0.0,0.0,0.0,0.0,0.0,0.0,0.0,0.0,3.9815,4.07,4.0392,3.8969,4.0431,4.0485,3.9259,3.9991,4.0684,4.1339,4.1272,0.0,3.4334,3.4476,0.0,0.0,0.0,0.0,0.0,0.0,0.0,0.0,0.0,0.0,0.0,0.0,0.0,0.0,0.0,0.0,0.0,0.0,0.0,0.0,0.0,0.0,3.5199,3.5315,3.5353,3.5007,0.0,3.3199,3.2583,3.1545,0.0,0.0,0.0,0.0,0.0,0.0,0.0,0.0,3.6301,3.7531,3.9738,4.3855,4.4393,4.4778,4.5547,4.4718,4.3002,4.0323,3.7892,3.5685,3.3776,3.1583,0.0,0.0,0.0,0.0,0.0,0.0,0.0,0.0,0.0,0.0,0.0,0.0,0.0,0.0,0.0,0.0,0.0,0.0,0.0,0.0,0.0,0.0,0.0,0.0,0.0,0.0,0.0,0.0,0.0,3.1083,3.1852,3.0044,3.2199,3.3288,0.0,0.0,0.0,0.0,0.0,0.0,0.0,0.0,0.0,4.0106,4.1416,4.2279,4.2611,4.3487,4.3794,4.3574,4.3833,4.3871,4.3789,4.3635,4.3843,4.4315,4.4415,4.2594,3.9521,3.8167,3.6055,3.3594,0.0,0.0,0.0,0.0,0.0,3.3368,3.3223,0.0,0.0,0.0,0.0,0.0,0.0,0.0,0.0,0.0,0.0,0.0,0.0,0.0,0.0,3.7623,3.7969,3.8084,3.7238,3.6392,3.5084,0.0,3.2545,3.2506,3.1929,0.0,0.0,0.0,0.0,3.316,3.5699,3.7199,3.9277,4.2547,4.3739,4.447,4.4837,4.4987,4.4003,4.1609,3.9822,3.7651,3.5045,3.2929,3.1929,0.0,0.0,0.0,0.0,0.0,0.0,0.0,0.0,0.0,0.0,0.0,0.0,0.0,0.0,0.0,0.0,0.0,0.0,0.0,0.0,0.0,0.0,0.0,0.0,0.0,0.0,0.0,0.0,3.216,3.3353,3.1006,3.4122,3.5622,0.0,0.0,0.0,0.0,0.0,0.0,3.9176,4.066,4.2063,4.3365,4.4614,4.5517,4.594,4.6583,4.7122,4.7521,4.6891,4.6796,4.7178,4.6468,4.6123,4.6096,4.6159,4.5287,4.374,4.1459,3.875,3.6016,3.5781,3.526,3.4543,3.4186,3.4532,3.5237,3.5554,3.5777,3.5881,3.5693,0.0,3.3898,3.2135,0.0,0.0,0.0,0.0,3.6185,3.6853,0.0,3.9354,3.9546,4.0046,4.0315,3.9738,3.9084,3.7623,0.0,3.4237,3.4353,3.2852,0.0,0.0,0.0,0.0,3.3122,3.5238,3.6969,3.8892,4.1239,4.2777,4.3816,4.4184,4.4795,4.4388,4.2556,4.1224,3.9143,3.6045,3.3968,3.2622,3.2006,0.0,0.0,0.0,0.0,0.0,0.0,0.0,0.0,0.0,0.0,0.0,0.0,0.0,0.0,0.0,0.0,0.0,0.0,0.0,0.0,0.0,0.0,0.0,0.0,0.0,0.0,0.0,0.0,0.0,3.1852,3.6045,0.0,0.0,0.0,0.0,3.7808,3.9277,4.0969,4.2751,4.3636,4.5227,4.7702,4.7857,4.8702,5.0375,5.0394,5.0067,4.9259,4.9202,4.8489,4.7195,4.7156,4.6755,4.6129,4.6242,4.5692,4.4608,4.2969,4.1211,3.957,3.8711,3.8281,3.796,3.6366,3.6329,3.6845,3.5232,3.526,3.6249,3.7851,3.777,3.6647,3.4703,3.4269,0.0,0.0,3.5531,3.7094,3.7777,3.8623,3.9469,4.0239,4.0469,4.0469,4.0431,4.0392,3.9392,0.0,3.4122,3.2776,3.1929,0.0,3.166,3.1698,3.3045,3.443,3.5391,3.6969,3.8661,4.0392,4.1393,4.247,4.3794,4.3948,4.3717,4.3079,4.1455,3.949,3.7214,3.4391,3.2891,3.2852,3.1275,0.0,0.0,0.0,0.0,0.0,0.0,0.0,0.0,0.0,0.0,0.0,0.0,0.0,0.0,0.0,0.0,0.0,0.0,0.0,0.0,0.0,0.0,0.0,0.0,0.0,0.0,0.0,0.0,3.6584,3.9623,0.0,4.0046,3.9723,4.0308,4.1914,4.3142,4.453,4.6204,4.8161,4.9601,5.0504,5.1083,5.168,5.2315,5.2298,5.1895,5.099,5.0471,4.974,4.8854,4.7712,4.7139,4.7031,4.6518,4.6097,4.5703,4.5156,4.3555,4.1445,4.0586,3.9844,3.9098,3.8024,3.8117,3.8737,3.8188,3.8231,3.8437,3.7891,3.713,3.63,3.5564,3.5808,3.6299,3.6083,3.7317,3.8723,3.8815,3.9431,4.0123,4.0431,4.0085,3.9738,3.9738,3.9277,3.8354,3.6622,3.5776,3.5084,3.4276,3.3237,3.266,3.3199,3.3814,3.4507,3.5391,3.6969,3.8354,3.9315,4.0854,4.1761,4.1723,4.17,4.1639,4.1447,3.883,3.693,3.6133,3.4032,3.316,3.3737,3.2083,3.1828,0.0,0.0,0.0,0.0,0.0,0.0,0.0,0.0,0.0,0.0,0.0,0.0,0.0,0.0,0.0,0.0,0.0,0.0,0.0,0.0,0.0,0.0,0.0,0.0,0.0,0.0,3.9508,4.0085,4.2893,4.4432,4.3585,4.3222,4.3778,4.5461,4.666,4.8029,4.9739,5.1429,5.2581,5.3157,5.3486,5.3776,5.4045,5.4028,5.3451,5.2336,5.1818,5.0933,4.974,4.8288,4.7608,4.7539,4.668,4.6289,4.6289,4.6289,4.5273,4.3633,4.2812,4.207,4.1366,4.0266,4.0373,4.1038,4.0808,4.0742,4.0469,3.8633,3.7726,3.7242,3.6864,3.7617,3.8512,3.8014,3.9325,4.07,3.9892,4.0315,4.0854,4.0546,3.9892,3.9354,3.9662,3.8815,3.7815,3.7238,3.6892,3.6353,3.5238,3.4083,3.3622,3.4507,3.4391,3.4622,3.5776,3.7123,3.8123,3.8507,4.0239,4.1107,4.0553,4.0508,4.0008,3.8862,3.7094,3.5888,3.5504,3.4109,3.3622,3.4199,3.2814,3.2711,3.3938,0.0,0.0,0.0,0.0,0.0,0.0,0.0,0.0,0.0,0.0,0.0,0.0,0.0,0.0,0.0,0.0,0.0,0.0,0.0,0.0,0.0,0.0,0.0,3.5455,3.9238,4.1893,4.197,4.5624,4.7201,4.4778,4.6778,4.824,4.826,4.9856,5.1528,5.314,5.3238,5.4028,5.5665,5.4955,5.4916,5.5703,5.5703,5.4857,5.3241,5.3203,5.201,4.9817,4.8916,4.8158,4.7539,4.668,4.6289,4.6289,4.6289,4.6289,4.6211,4.5351,4.4961,4.4766,4.3047,4.2969,4.3594,4.2734,4.2422,4.2109,4.0351,3.9844,3.9766,3.8789,3.9766,4.1013,3.9941,4.1478,4.2986,4.1046,4.1162,4.1585,4.0739,3.9892,3.9508,4.0277,3.9161,3.8007,3.7969,3.7276,3.6199,3.4507,3.4237,3.4545,3.5391,3.4776,0.0,3.6469,3.7469,3.8007,3.8084,3.9546,4.0546,4.0546,4.0508,3.9092,3.5791,3.6603,3.6671,3.5542,3.4647,3.4199,3.4199,3.3391,3.3391,3.4237,0.0,0.0,0.0,0.0,0.0,0.0,0.0,0.0,0.0,0.0,0.0,0.0,0.0,0.0,0.0,0.0,0.0,0.0,0.0,0.0,0.0,3.6125,3.8078,3.9008,4.12,4.3624,4.6086,4.7932,4.924,4.9779,5.0433,5.1125,5.1761,5.2838,5.3664,5.4122,5.4682,5.5203,5.5703,5.5472,5.5472,5.5703,5.5703,5.5164,5.4126,5.3492,5.2299,5.0567,4.9149,4.8119,4.7422,4.6641,4.6289,4.6289,4.6289,4.6289,4.6211,4.5351,4.4609,4.3984,4.3516,4.3476,4.3672,4.3437,4.293,4.2305,4.1836,4.1289,4.0781,4.0508,4.1211,4.1875,4.089,4.1936,4.3124,4.1899,4.1684,4.1739,4.1508,4.0354,3.9354,3.9585,3.8777,3.7815,3.7199,3.6839,3.6378,3.5315,3.5161,3.5238,3.5468,3.5315,0.0,3.5787,3.7108,3.8469,3.9662,4.0777,4.1508,4.17,4.0969,3.9585,3.744,3.7031,3.6454,3.5532,3.4661,3.4199,3.4199,3.4584,3.4891,0.0,0.0,0.0,0.0,0.0,0.0,0.0,0.0,0.0,0.0,0.0,0.0,0.0,0.0,0.0,0.0,0.0,0.0,0.0,0.0,0.0,0.0,3.8801,4.119,4.2931,4.4316,4.6065,4.8355,4.9702,5.0818,5.1818,5.2241,5.2818,5.3685,5.4262,5.4703,5.4989,5.5511,5.5742,5.5703,5.5703,5.5703,5.5703,5.5357,5.4934,5.4472,5.3261,5.2222,5.1337,4.932,4.8241,0.0,4.6719,4.625,4.6289,4.6289,4.6289,0.0,0.0,0.0,0.0,0.0,4.4258,4.4258,4.4258,4.3906,4.3359,4.2656,4.207,4.1641,4.1289,4.2031,4.2656,4.1309,4.2611,4.3968,4.1925,4.1876,4.2162,4.1431,4.0239,3.9392,3.9738,3.8854,3.7969,3.7815,0.0,0.0,3.6622,3.5968,3.5622,3.593,3.6021,3.6122,0.0,3.7738,3.8907,3.9892,4.0739,4.1316,4.147,4.0854,0.0,0.0,0.0,3.743,3.6584,3.5699,0.0,0.0,0.0,3.6199,0.0,0.0,0.0,0.0,3.4975,3.4794,0.0,0.0,0.0,0.0,0.0,0.0,0.0,0.0,0.0,0.0,0.0,0.0,0.0,0.0,0.0,0.0,4.1428,4.3614,4.676,4.7874,4.872,4.9586,5.1087,5.2087,5.2202,5.2972,5.3818,5.4587,5.4762,5.5091,5.5689,0.0,0.0,0.0,0.0,5.5703,5.5703,5.4916,5.4531,5.4608,5.2779,5.1933,5.1973,4.9547,4.8463,4.843,4.6913,4.625,4.6289,4.6289,4.6289,4.6289,4.6172,4.5742,4.5117,4.5039,4.5078,0.0,0.0,0.0,0.0,4.3086,4.2461,4.2266,4.1562,4.2422,4.3356,4.1583,4.3423,4.5131,4.1808,4.2008,4.2701,4.1162,4.0085,3.9623,4.0354,3.9315,3.8469,3.9176,3.8676,3.8137,3.8022,3.6776,3.6007,3.6727,3.6843,0.0,3.7969,3.8792,3.9369,3.9585,0.0,0.0,4.0777,4.0893,4.0546,3.9623,3.9392,3.8892,3.8046,3.7276,3.7199,3.7969,3.7238,3.7238,3.8007,3.8007,3.8046,3.8123,3.6999,3.6858,0.0,0.0,0.0,0.0,0.0,0.0,0.0,0.0,0.0,0.0,0.0,0.0,0.0,0.0,0.0,4.2222,4.4145,4.6071,4.8702,4.9721,5.0491,5.1318,5.2339,5.3224,5.3916,5.4741,5.5318,5.5588,5.5647,5.5731,5.5846,5.5905,0.0,5.5703,5.5703,5.5703,5.5703,5.4916,5.4839,5.5437,0.0,0.0,5.1895,5.0164,4.8617,4.7326,4.719,4.6758,4.6133,4.625,4.6289,4.6211,4.5547,4.5586,4.5976,4.5273,4.543,4.6055,4.6055,4.5586,4.4844,4.3789,4.2969,4.2383,4.2226,4.2891,0.0,4.3169,4.4446,4.5557,4.4102,4.3415,4.3008,4.2662,4.1393,4.0315,4.0469,4.0239,3.9869,3.9369,3.9161,3.8839,3.8123,3.7752,3.756,3.7738,3.7738,3.7969,3.8584,3.9046,3.9908,4.147,4.22,4.2585,4.2585,4.3201,4.2931,4.1431,4.0046,3.8892,3.8046,3.7853,3.7815,3.8007,3.7815,3.7815,3.8007,3.8007,3.8354,3.9008,3.7879,3.743,0.0,0.0,0.0,0.0,0.0,0.0,0.0,0.0,0.0,0.0,0.0,3.5312,3.7539,0.0,4.1953,4.4453,4.6162,4.776,4.9356,4.9856,5.051,5.1761,5.2666,5.3551,5.4416,5.5241,5.5742,5.5895,5.5998,5.6063,5.6071,5.6057,5.5994,5.5818,5.5357,5.5105,5.5105,5.3815,5.3836,5.5052,5.251,5.1721,5.2492,4.9971,4.8394,4.7622,4.6896,4.6421,4.6094,4.625,4.6289,4.625,4.582,4.5937,4.6172,4.5312,4.5547,4.6289,4.6289,4.6016,4.5508,4.4648,4.4062,4.3633,4.3164,4.3672,4.4254,4.3746,4.4705,4.5582,4.4201,4.3761,4.3585,4.3201,4.2085,4.1162,4.1162,4.0816,4.0369,3.9985,3.9892,3.9915,3.9915,3.9546,3.8984,3.8123,3.8377,3.8762,3.9008,3.9931,4.0931,4.1893,4.2662,4.3085,4.3085,4.347,4.3355,4.2508,4.1277,4.0354,3.9931,3.9084,3.8854,3.9238,3.9238,3.9469,3.9892,4.0354,4.0777,4.12,4.0603,3.99,0.0,0.0,0.0,0.0,0.0,0.0,0.0,3.1615,3.2814,3.469,3.6048,3.7812,4.0859,4.2812,4.4531,4.6367,4.7712,4.8879,4.9778,4.9606,5.0067,5.1702,5.2644,5.3528,5.4434,5.5241,5.578,5.5955,5.6117,5.6212,5.623,5.6203,5.6058,5.5665,5.4912,5.4413,5.4241,5.2679,5.2777,5.4475,5.1913,5.1567,5.3107,5.001,4.8471,4.8145,4.6509,4.5908,4.6094,4.6211,4.6289,4.6289,4.6289,4.6289,4.6211,4.5508,4.5703,4.6289,4.6289,4.6289,4.6132,4.5258,4.4991,4.4844,4.4141,4.4414,4.4883,4.4258,4.4968,4.5578,4.408,4.397,4.4085,4.3431,4.2739,4.2162,4.1931,4.1431,4.1024,4.1024,4.1024,4.1239,4.1937,4.1453,4.0508,3.8954,3.9339,3.98,3.9777,4.1123,4.2047,4.2047,4.2816,4.3393,4.3585,4.3585,4.3508,4.3355,4.2662,4.2239,4.2047,4.0777,4.0354,4.0969,4.1008,4.1354,4.2047,4.2777,4.3085,4.3085,4.3085,4.2239,3.0037,2.9763,2.9056,2.933,2.9329,2.9715,0.0,3.2927,3.455,3.6351,3.8688,4.0781,4.1953,4.3633,4.5664,4.8164,4.863,4.9223,5.0731,5.0163,5.0183,5.1702,5.2661,5.3546,5.4416,5.5203,5.5818,5.6148,5.6194,5.6246,5.6362,5.6246,5.5768,5.4857,5.4643,5.4126,5.334,5.2396,5.2762,5.4458,5.1913,5.1585,5.3146,5.126,4.9586,4.8048,4.6471,4.5908,4.6094,4.6133,4.6172,4.6289,4.6289,4.6289,4.6289,4.6172,4.6211,4.6289,4.6289,4.6289,4.6126,4.513,4.4906,4.4961,4.4726,4.4844,4.5117,4.5664,4.5936,4.5972,4.5602,4.4799,4.4051,4.3855,4.3739,4.3393,4.2354,4.2486,4.281,4.281,4.281,4.2832,4.2953,4.2876,4.247,4.1508,4.147,4.1508,4.1508,4.2354,4.297,4.297,4.3662,4.447,4.524,4.5316,4.497,4.4201,4.4085,4.3701,4.297,4.2777,4.2701,4.2816,4.2816,4.2854,4.297,4.3047,4.3085,4.3085,4.3085,4.2585,2.817,2.9146,2.9841,2.9411,2.9962,3.1102,3.2864,3.4144,3.5802,3.8567,4.0461,4.2221,4.4176,4.5625,4.7031,0.0,4.8789,4.9094,5.029,4.9509,4.9085,4.9721,5.051,5.1721,5.3549,5.4049,5.4395,5.4682,5.4706,5.4773,5.5,5.4867,5.4587,5.4066,5.3447,5.2871,5.2431,5.2068,5.2262,5.2974,5.1893,5.1777,5.2396,5.0702,4.899,4.7355,4.6278,4.5834,4.592,4.6036,4.6133,4.6172,4.6289,4.6289,4.6289,4.6289,4.6289,4.6289,4.6289,4.6289,4.6209,4.5708,4.5654,4.5715,4.5614,4.5664,4.582,4.6133,4.6172,4.6091,4.6014,4.5544,4.5086,4.5009,4.4547,4.4124,4.4162,4.3585,4.3085,4.3102,4.3102,4.3239,4.3722,4.3415,4.3124,4.3239,4.2854,4.2547,4.2547,4.3278,4.397,4.4509,4.4855,4.5201,4.5547,4.5586,4.5432,4.5086,4.4586,4.4162,4.3816,4.3355,4.3085,4.3085,4.3547,4.3816,4.3816,4.4316,4.4547,4.4547,4.4547,4.4085,2.7752,2.918,3.0416,2.9747,3.0672,3.2247,3.4136,3.5385,3.7118,4.0394,4.1831,4.3057,4.5059,4.6239,4.7187,4.8047,4.8265,4.8634,4.9478,4.8666,4.8046,4.822,4.8528,4.951,5.1587,5.2241,5.2721,5.32,5.3243,5.344,5.3984,5.3867,5.3631,5.3241,5.2487,5.1928,5.1582,5.1587,5.1684,5.1895,5.168,5.17,5.1857,5.0164,4.8606,4.7201,4.6432,4.5988,4.5808,4.5974,4.6075,4.6094,4.625,4.6289,4.6289,4.6289,4.6289,4.6289,4.6289,4.6289,4.6289,4.6094,4.6146,4.6275,4.6084,4.6156,4.6289,4.6289,4.6211,4.6133,4.6094,4.6001,4.5918,4.577,4.5201,4.4816,4.547,4.4662,4.3816,4.3778,4.3778,4.3953,4.4568,4.4201,4.397,4.4586,4.4162,4.3701,4.347,4.4162,4.4893,4.5509,4.5586,4.5586,4.5586,4.5586,4.5586,4.5586,4.5009,4.4662,4.4662,4.4085,4.3778,4.3778,4.4355,4.4662,4.4662,4.5278,4.5586,4.5586,4.5586,4.524,3.0195,3.0429,3.0482,3.0452,3.1098,3.2349,3.4902,3.6734,3.8677,4.1382,4.2727,4.3419,4.3645,4.4433,4.5351,4.625,4.6989,4.7719,4.8448,4.7713,4.7391,4.8009,4.7432,4.7317,0.0,4.9779,5.1202,5.2259,5.2351,5.2816,5.3945,5.3867,5.3364,5.2358,5.2202,5.1682,5.0741,5.0741,5.1124,5.1907,5.1085,5.1145,5.1857,5.0164,4.8914,4.8009,4.724,4.6471,4.5796,4.5868,4.5968,4.6094,4.625,4.6289,4.6289,4.6289,4.6289,4.6289,4.6289,4.6289,4.625,4.5976,4.6068,4.6236,4.5984,4.6104,4.6289,4.6289,4.6289,4.625,4.6133,4.6172,4.6186,4.5718,4.5586,4.5547,4.5586,4.5547,4.5509,4.5509,4.5509,4.5509,4.5547,4.5547,4.5509,4.5547,4.5547,4.5201,4.4355,4.5009,4.5547,4.5586,4.5586,4.5586,4.5586,4.5586,4.5586,4.5586,4.5586,4.5547,4.5547,4.5547,4.5509,4.5509,4.5547,4.5547,4.5547,4.5586,4.5586,4.5586,4.5586,4.5586,3.1008,3.2249,3.3246,3.3709,3.4434,3.5546,3.7548,3.8447,3.9115,4.006,4.059,4.0732,4.0257,4.1443,4.2915,4.4277,4.5665,4.6788,4.7526,4.7317,4.6968,4.6642,4.624,0.0,0.0,0.0,0.0,4.974,4.9769,5.0283,5.1406,5.1445,5.1453,5.1491,5.1453,5.1202,5.0702,5.1222,5.1356,5.1085,5.0818,5.0837,5.1068,4.9317,4.8375,4.8029,4.6624,4.5893,4.568,4.5834,4.5919,4.5986,4.6205,4.6289,4.6289,4.6289,4.6289,4.6289,4.6289,4.6231,4.6124,4.5961,4.6029,4.6143,4.5935,4.6072,4.6289,4.6289,4.6289,4.6289,4.625,4.6211,4.6114,4.5873,4.5719,4.5586,4.5586,4.5586,4.5586,4.5586,4.5586,4.5586,4.5586,4.5586,4.5586,4.5586,4.5586,4.547,4.5201,4.5432,4.5586,4.5586,4.6124,4.6471,4.6471,4.6932,4.7048,4.6509,4.6471,4.6201,4.5624,4.5586,4.5586,4.5586,4.5586,4.5586,4.5586,4.5586,4.5586,4.5586,4.5586,4.5586,3.1743,3.3816,3.5636,3.6343,3.7095,3.7986,3.9069,3.8839,3.8347,3.8108,3.7926,3.7655,3.7146,3.8054,3.9497,4.1437,4.2624,4.3893,4.5543,4.5697,4.5697,4.5719,4.5624,4.5586,0.0,0.0,0.0,4.7951,4.8011,4.8475,4.9609,4.9912,5.0236,5.0619,5.0874,5.0914,5.0702,5.1222,5.1222,5.0702,5.0375,5.024,5.0202,4.874,4.7932,4.7606,4.6547,4.5893,4.5586,4.5796,4.5877,4.5905,4.6122,4.625,4.6289,4.6289,4.6289,4.6289,4.6289,4.6236,4.6152,4.5974,4.6042,4.6152,4.5948,4.6094,4.6289,4.6289,4.6289,4.6289,4.6289,4.625,4.6114,4.595,4.5757,4.5586,4.5586,4.5586,4.5586,4.5586,4.5586,4.5586,4.5586,4.5586,4.5586,4.5586,4.5586,4.5586,4.5586,4.5855,4.6047,4.6047,4.6817,4.7317,4.7317,4.7817,4.7894,4.7355,4.7317,4.6971,4.6086,4.6047,4.5932,4.5586,4.5586,4.5586,4.5586,4.5586,4.5586,4.5586,4.5586,4.5586,3.268,3.5352,3.757,3.8354,3.9037,3.9514,3.9437,3.807,3.655,3.5684,3.4902,3.4376,3.4365,3.4492,3.5438,3.7924,3.8407,3.9631,4.2887,4.3256,4.3816,0.0,0.0,0.0,0.0,0.0,0.0,4.6947,0.0,4.7484,4.855,4.9283,4.9712,4.978,5.0471,5.0798,5.0702,5.0664,5.0625,5.0625,4.9759,4.9336,4.9298,4.8451,4.7625,4.6896,4.6837,4.6355,4.5586,4.5757,4.5824,4.5927,4.6041,4.6172,4.6289,4.6289,4.6289,4.6289,4.6289,4.6289,4.6243,4.5984,4.6061,4.6229,4.5987,4.6094,4.6289,4.6289,4.6289,4.6289,4.6289,4.6289,4.6231,4.595,4.5757,4.5624,4.5663,4.5701,4.5701,4.5701,4.5701,4.5663,4.5586,4.5586,4.5586,4.5586,4.5586,4.5624,4.5663,4.6394,4.6932,4.6971,4.7702,4.8163,4.8163,4.8202,4.8202,4.8163,4.8163,4.7817,4.7009,4.6932,4.6509,4.5663,4.5624,4.5586,4.5586,4.5624,4.5663,4.5663,4.5701,4.574,3.604,3.8426,4.0348,4.1757,4.1757,4.1084,3.983,3.8223,3.6204,3.3486,3.222,3.1291,3.0154,3.1928,3.438,3.6891,3.9405,0.0,4.4641,4.4987,0.0,4.5547,0.0,4.5586,4.5586,4.5586,0.0,0.0,4.6056,4.6553,4.7508,4.7766,4.8394,4.9589,4.9815,5.0183,5.0702,5.0067,4.9721,4.9721,4.8874,4.8412,4.841,4.7584,4.7083,4.6873,4.6219,4.5817,4.5586,4.5757,4.5863,4.5902,4.6058,4.6172,4.6289,4.6289,4.6289,4.6289,4.6289,4.6211,4.6132,4.6066,4.6046,4.5997,4.5909,4.6016,4.6172,4.6289,4.6289,4.6289,4.6289,4.6289,4.6192,4.5795,4.5624,4.5855,4.6685,4.6896,4.6991,4.7375,4.6971,4.6355,4.5701,4.5586,4.5586,4.5586,4.5586,4.5817,4.6471,4.6778,4.7124,4.774,4.8548,4.9086,4.9086,4.9663,4.974,4.9125,4.9086,4.8702,4.7817,4.724,4.6817,4.6586,4.5932,4.5586,4.5586,4.624,4.6586,4.6586,4.7163,4.7471,3.7956,4.0156,4.1992,4.3672,4.3125,4.1634,3.9544,3.7177,3.4414,3.1012,2.9578,2.8717,2.7827,2.916,3.147,3.4662,3.7137,3.9895,4.3453,4.4239,4.4778,0.0,4.5586,0.0,4.5586,4.5586,4.5586,0.0,4.568,4.6103,4.7083,4.741,4.8198,4.9567,4.9913,5.0298,5.0702,4.9836,4.9394,4.9393,4.8182,4.7566,4.7542,4.6698,4.6352,4.6313,0.0,4.5586,4.5586,4.568,4.5757,4.5863,4.5967,4.6083,4.6211,4.6289,4.6289,4.6289,4.6289,4.625,4.6171,4.6033,4.5939,4.588,4.5881,4.6015,4.6211,4.6289,4.6289,4.6289,4.6289,4.6289,4.6231,4.595,4.5757,4.597,4.7338,4.7857,4.8049,4.8106,4.774,4.7278,4.6778,4.6701,4.6586,4.6201,4.6471,4.6855,4.7355,4.7432,4.774,4.8586,4.9433,5.0125,5.0471,5.0933,5.101,5.0548,5.051,4.9971,4.874,4.824,4.7817,4.7432,4.6932,4.6701,4.6701,4.7201,4.7432,4.7432,4.7894,4.8086,3.9099,4.1247,4.3008,4.4609,4.3633,4.1562,3.8711,3.5509,3.2145,2.8656,2.7284,2.6689,2.6651,2.6845,2.8377,3.2505,3.4037,3.6451,4.1437,4.2777,4.3855,4.5393,4.5586,4.5586,4.5586,4.5586,4.5586,4.5586,4.5586,4.6009,4.6932,4.7702,4.8548,4.9529,5.0317,5.0625,5.051,4.9644,4.9163,4.9065,4.7489,4.6719,4.6698,4.595,4.5586,4.5586,0.0,0.0,4.5586,4.5586,4.568,4.5791,4.5852,4.5975,4.6133,4.625,4.6289,4.6289,4.6289,4.6289,4.6248,4.6014,4.5956,4.5911,4.5796,4.6007,4.6241,4.6289,4.6289,4.6289,4.6289,4.6286,4.6275,4.6205,4.6257,4.6663,4.8125,4.8875,4.9048,4.8394,4.8279,4.824,4.8125,4.8086,4.7855,4.7163,4.7663,4.8202,4.8432,4.8355,4.8663,4.9625,5.0394,5.1202,5.201,5.2087,5.2087,5.2087,5.2087,5.1433,4.9971,4.9702,4.9202,4.8471,4.824,4.8086,4.8086,4.824,4.8279,4.8279,4.8394,4.8432,4.0784,4.2825,4.4453,4.4883,4.3672,4.1328,3.7344,3.4273,3.1331,2.7838,2.6331,2.5659,2.5707,2.6814,2.9129,3.3363,3.5321,3.8078,4.3162,4.4008,4.447,4.547,4.5586,4.5586,4.5586,4.5586,0.0,0.0,0.0,4.597,4.6855,4.7663,4.8509,4.9394,5.024,5.0356,4.9625,4.876,4.7991,4.7317,4.6317,4.5817,4.5834,4.568,4.5586,4.5586,0.0,0.0,4.5586,4.5586,4.568,4.5796,4.588,4.5969,4.6133,4.625,4.6289,4.6289,4.6289,4.6289,4.6289,4.6247,4.6152,4.6026,4.5719,4.578,4.6021,4.6234,4.6289,4.6289,4.6289,4.6286,4.622,4.583,4.7817,4.9894,5.0202,5.0317,5.0164,4.9317,4.9163,4.8933,4.824,4.8086,4.8048,4.7932,4.8009,4.8625,5.0048,4.9625,4.9779,5.1318,5.1587,5.2049,5.2895,5.2972,5.2972,5.2972,5.2972,5.2856,5.2549,5.1202,5.0394,5.024,4.8817,4.8086,4.8086,4.8817,4.9163,4.9202,4.9894,5.024,4.2343,4.3864,4.4805,4.4961,4.3047,4.0078,3.6211,3.2966,2.9892,2.6815,2.5746,2.539,2.539,2.6438,2.8209,3.1123,3.3019,3.5762,4.0354,4.1777,4.297,4.4701,4.5316,4.5586,4.5586,4.5586,4.5586,0.0,0.0,4.6471,4.6894,4.7663,4.8509,4.9356,4.9817,4.9817,4.9394,4.8548,4.7702,4.6894,4.6009,4.5586,4.5586,4.5419,4.5361,4.5361,4.5361,0.0,4.5361,4.5532,4.5624,4.5719,4.5796,4.5917,4.6015,4.6169,4.625,4.6289,4.6289,4.6289,4.6289,4.6289,4.6257,4.6124,4.5735,4.5854,4.613,4.6245,4.6289,4.6289,4.6289,4.763,4.8836,4.8374,4.951,5.0856,5.1471,5.1433,5.1202,5.0779,5.0702,5.0433,4.9586,4.9817,4.9779,4.8894,4.951,5.024,5.0625,5.0702,5.1202,5.2433,5.2587,5.2933,5.3818,5.3895,5.3895,5.3895,5.3895,5.3664,5.3241,5.2433,5.201,5.201,5.1164,5.0741,5.0741,5.1164,5.1395,5.1395,5.1356,5.1318,4.3119,4.4365,4.4961,4.5,4.2422,3.8984,3.5469,3.198,2.8706,2.6044,2.5428,2.5351,2.5303,2.59,2.6987,2.8824,3.0275,3.2724,3.7123,3.9176,4.1178,4.3722,4.497,4.5586,4.5586,4.5586,0.0,0.0,0.0,0.0,4.7163,4.7778,4.8509,4.9356,4.9202,4.9125,4.9125,4.8259,4.745,4.6624,4.5932,4.5568,4.5475,4.5222,4.5033,4.4988,4.4988,0.0,0.0,4.5263,4.5438,4.5514,4.5645,4.5757,4.592,4.6039,4.6328,4.664,4.6348,4.6278,4.6406,4.7148,4.6907,4.622,4.5757,4.5859,4.6186,4.6288,4.6289,4.6484,4.7187,4.9372,5.1299,5.0875,5.0894,5.1279,5.2087,5.2241,5.2202,5.2202,5.2202,5.1972,5.1318,5.1779,5.1664,5.0164,5.1048,5.1741,5.1279,5.1779,5.2587,5.3626,5.3587,5.3818,5.4664,5.4741,5.4741,5.4741,5.4741,5.4434,5.378,5.3587,5.3472,5.3472,5.3318,5.3203,5.3203,5.3203,5.3203,5.3164,5.251,5.2202,4.2308,4.4187,4.5664,4.5117,4.2422,3.8984,3.543,3.1913,2.8647,2.5953,2.5351,2.5303,2.5303,2.539,2.6236,2.8698,2.9236,3.1083,3.6108,3.8291,4.0385,4.2919,4.4607,4.5586,4.5586,4.5586,4.5586,0.0,0.0,0.0,4.7894,4.8048,4.8509,4.9356,4.8625,4.824,4.8221,4.7432,4.6586,4.5701,4.5624,4.5438,4.5159,4.5137,4.4943,4.465,4.465,0.0,0.0,4.4701,4.4872,4.5142,4.5303,4.5543,4.5827,4.6015,4.6836,4.769,4.6499,4.6191,4.6797,4.9922,4.8833,4.6221,4.5736,4.5616,4.575,4.6189,4.6289,4.7031,5.0117,5.1172,5.1299,5.0952,5.1587,5.2202,5.201,5.2549,5.3087,5.3087,5.3087,5.3049,5.2972,5.3049,5.2779,5.1818,5.1818,5.2164,5.2895,5.3049,5.3703,5.528,5.4818,5.4703,5.5511,5.5588,5.5588,5.5588,5.5588,5.5549,5.5472,5.478,5.4395,5.4395,5.3587,5.3203,5.3203,5.3203,5.3203,5.3203,5.3126,5.3087,4.1713,4.4105,4.562,4.4451,4.1211,3.7536,3.4496,3.0703,2.7369,2.5745,2.5341,2.5303,2.5303,2.5303,2.561,2.6659,2.6813,2.8044,3.1621,3.3635,3.6252,4.0338,4.2299,4.3932,0.0,0.0,4.5586,0.0,0.0,0.0,4.6547,4.7086,4.7548,4.7894,4.8029,4.7875,4.7375,4.7086,4.6471,4.5586,4.5586,4.5419,4.5115,4.4896,4.4587,4.4233,4.4233,0.0,0.0,4.4482,4.4701,4.4849,4.5104,4.5304,4.5522,4.5828,4.6247,4.6755,4.7017,4.6663,4.6268,4.7494,4.7002,4.5834,4.5663,4.5586,4.5688,4.6186,4.6289,4.7109,5.0508,5.1232,5.1083,5.0932,5.151,5.2202,5.2587,5.3356,5.3972,5.3972,5.3972,5.3818,5.328,5.3626,5.3703,5.2818,5.3126,5.3587,5.3933,5.3972,5.4626,5.628,5.5742,5.5549,5.6395,5.6011,5.6165,5.7203,5.678,5.6703,5.7242,5.6973,5.678,5.678,5.5934,5.5472,5.5472,5.4972,5.4703,5.4703,5.4203,5.3972,4.0034,4.2689,4.4385,4.3408,3.9992,3.6231,3.3782,2.9863,2.6497,2.5543,2.5341,2.5303,2.5303,2.5303,2.5303,2.5303,2.5303,2.612,2.8412,3.0463,3.3224,3.7329,0.0,4.1678,0.0,4.5163,0.0,0.0,0.0,0.0,0.0,4.6432,4.6894,4.6914,4.7183,4.7222,4.6914,4.6663,4.6201,4.5586,4.5586,4.5381,4.4943,4.4726,4.4318,4.3849,0.0,0.0,0.0,4.4184,4.4318,4.4455,4.4825,4.5082,4.5304,4.5683,4.5989,4.6352,4.6985,4.6989,4.6544,4.5834,4.5586,4.5586,4.5586,4.5586,4.568,4.6006,4.6937,4.8359,5.0781,5.1396,5.1396,5.1316,5.201,5.2856,5.3433,5.4241,5.4857,5.4857,5.4857,5.4664,5.4049,5.4434,5.4587,5.3703,5.4126,5.4511,5.4511,5.4703,5.5395,5.6857,5.6665,5.6703,5.7319,5.6819,5.6973,5.8242,5.7703,5.7665,5.828,5.8319,5.8319,5.8319,5.7703,5.7357,5.7357,5.678,5.6319,5.6088,5.578,5.5472,3.6798,3.9509,4.174,4.2049,3.8934,3.5325,3.3522,2.9768,2.642,2.5505,2.5303,2.5303,2.5303,2.5303,2.5303,2.5303,2.5303,2.59,2.7682,3.0104,3.2331,0.0,0.0,3.9052,4.1585,4.4124,0.0,0.0,0.0,0.0,0.0,4.6432,4.6914,4.6896,4.6068,4.6047,4.6896,4.6047,4.5586,4.5586,4.5586,4.5243,4.4624,4.4624,4.4213,0.0,0.0,0.0,0.0,4.3532,4.3693,4.4028,4.4428,4.4789,4.5163,4.563,4.6352,4.6985,4.6121,4.6985,4.8176,4.6219,4.5586,4.5586,4.5586,4.5586,4.5603,4.5603,4.8379,5.1367,5.1406,5.1977,5.255,5.2338,5.3413,5.4472,5.4472,5.5126,5.5703,5.5703,5.5703,5.5665,5.5665,5.5665,5.5395,5.4626,5.4472,5.4511,5.4511,5.5203,5.6011,5.6896,5.7742,5.828,5.828,5.828,5.828,5.8319,5.828,5.828,5.8319,5.8319,5.8319,5.8319,5.828,5.828,5.828,5.828,5.7819,5.7011,5.7857,5.778,3.3135,3.5455,3.7171,3.6742,3.4455,3.198,3.0776,2.8057,2.5707,2.539,2.5303,2.5303,2.5303,2.5303,2.5303,2.5303,2.5303,2.5697,2.6862,2.8692,0.0,3.4661,3.8869,4.1793,0.0,0.0,0.0,0.0,0.0,0.0,0.0,4.5855,4.6009,4.6009,4.6337,4.6337,4.6009,4.574,4.5586,4.5586,4.5586,4.5381,4.4943,4.4726,0.0,0.0,0.0,0.0,0.0,4.3497,4.3563,4.3693,4.4028,4.4438,4.4814,4.5175,4.5649,4.6103,4.6432,4.6527,4.6429,4.5796,4.7163,4.8625,4.6317,4.5586,4.5873,4.7216,4.9361,5.1289,5.1367,5.1893,5.2382,5.2339,5.343,5.4511,5.4511,5.5126,5.5703,5.5703,5.5703,5.5703,5.5703,5.5703,5.5588,5.5357,5.5318,5.5318,5.5318,5.5549,5.6242,5.7742,5.8127,5.8511,5.9088,5.8627,5.8781,5.9935,5.9435,5.9396,5.9973,6.0012,6.0012,6.0012,5.9435,5.9127,5.9127,5.8588,5.8165,5.7896,5.7851,5.7838,2.9999,3.2068,3.3586,3.3187,3.1597,2.9863,2.8993,2.6997,2.5341,2.5303,2.5303,2.5303,2.5303,2.5303,2.5303,2.5303,2.5303,2.561,2.6467,2.8033,0.0,3.4545,0.0,0.0,0.0,0.0,0.0,0.0,0.0,0.0,0.0,4.5586,4.5586,4.5586,4.6106,4.6145,4.5586,4.5586,4.5432,4.5124,4.5303,4.5051,4.444,4.4384,0.0,0.0,0.0,0.0,0.0,4.3497,4.3497,4.3529,4.3881,4.425,4.4621,4.5001,4.5304,4.574,4.6701,4.6991,4.6952,4.7394,4.8509,4.9202,4.6432,4.5817,4.6411,4.7969,4.9714,5.1201,5.1644,5.2485,5.322,5.3223,5.4084,5.4934,5.4934,5.5357,5.5703,5.5703,5.5703,5.5703,5.5703,5.5703,5.5703,5.5703,5.5703,5.5703,5.5703,5.5972,5.6742,5.8165,5.8588,5.9088,5.9935,5.9511,5.9704,6.0742,6.0281,6.0242,6.0781,6.0781,6.0781,6.0781,6.0281,5.9973,5.9973,5.9165,5.8934,5.9242,5.8604,5.84,0.0,2.925,3.0612,3.086,2.9845,2.8621,2.783,2.6408,0.0,2.5254,2.5254,2.5264,2.5254,2.5254,2.5264,2.5264,2.5303,2.562,2.6574,2.8302,0.0,0.0,3.7252,0.0,0.0,0.0,0.0,0.0,0.0,0.0,0.0,4.555,4.555,4.5547,4.5568,4.5568,4.5586,4.5586,4.5201,4.4393,4.486,4.4501,4.3429,4.3839,0.0,0.0,0.0,0.0,0.0,4.3497,4.3497,4.3529,4.3849,4.4237,4.4636,4.4954,4.532,4.5855,4.6952,4.8087,4.9202,5.0317,4.9586,4.8009,4.6432,4.6547,4.7317,4.8068,4.9567,5.1127,5.2057,5.3459,5.4643,5.4682,5.5182,5.5703,5.5703,5.5703,5.5703,5.5703,5.5703,5.5703,5.5703,5.5742,5.578,5.5703,5.5818,5.5818,5.5703,5.6472,5.7319,5.8204,5.8973,5.9781,6.0704,6.0781,6.0781,6.0781,6.0781,6.0819,6.0896,6.0896,6.0935,6.0973,6.0973,6.0973,6.0973,6.0165,6.0165,6.0858,6.0027,5.9396,2.5004,0.0,2.6261,2.6129,2.6021,2.5904,0.0,2.5229,2.4907,2.4927,2.493,2.4907,2.4927,2.5018,2.5072,2.5072,2.5187,2.5851,2.74,3.071,0.0,3.5028,3.7632,0.0,0.0,0.0,0.0,0.0,0.0,0.0,0.0,4.4843,4.4941,4.5222,4.5225,4.5339,4.5586,4.5586,4.5509,4.5278,4.5166,4.4957,4.4638,4.4205,0.0,0.0,0.0,0.0,4.3497,4.3497,4.3497,4.3532,4.3597,4.4011,4.4584,4.47,4.5524,4.674,4.7625,4.8394,4.9202,5.0317,5.0433,5.001,4.9625,4.9625,4.9586,4.8567,4.9566,5.1123,5.2068,5.3012,5.3874,5.4528,5.5182,5.5703,5.5703,5.5703,5.5703,5.5703,5.5703,5.5703,5.5703,5.6242,5.6472,5.578,5.6819,5.7203,5.5857,5.6472,5.7319,5.8204,5.8473,5.9165,6.0666,6.0781,6.0781,6.0781,6.0781,6.1089,6.1781,6.1781,6.2089,6.2704,6.2704,6.2704,6.2704,6.2512,6.2204,6.1781,6.1222,6.0736,2.4303,2.4559,2.4746,2.4543,2.4747,2.4962,2.4823,2.479,2.4803,2.4801,2.479,2.4829,2.4892,2.4955,2.5038,2.5129,2.5562,2.6474,2.823,0.0,3.3942,3.4798,3.681,0.0,0.0,0.0,0.0,0.0,0.0,0.0,0.0,4.4371,4.4674,4.4851,4.5042,4.5256,4.5586,4.5586,4.5201,4.447,4.4898,4.4592,4.3687,4.3924,4.3912,0.0,0.0,0.0,4.3497,4.3497,4.3497,4.3497,4.3497,4.3855,4.4346,4.4546,4.5247,4.6282,4.7626,4.8856,4.9856,5.051,5.0702,5.0587,5.0087,5.0279,5.0433,4.9163,5.0048,5.1587,5.2469,5.3315,5.4126,5.4951,5.5434,5.5703,5.5703,5.5703,5.5703,5.5703,5.5703,5.5818,5.6242,5.6665,5.6819,5.6357,5.7088,5.7357,5.6395,5.6703,5.7473,5.8704,5.8858,5.9396,6.0704,6.0781,6.0781,6.0781,6.1166,6.1589,6.2089,6.2435,6.2858,6.3281,6.332,6.332,6.332,6.332,6.3089,6.2627,6.2146,6.1544,2.4462,2.4639,2.476,2.4575,2.478,2.4968,2.4804,2.4731,2.4753,2.4716,2.472,2.4757,2.4912,2.495,2.5018,2.5203,2.6233,2.7616,2.9435,3.1636,3.3377,3.4107,0.0,0.0,0.0,0.0,0.0,0.0,0.0,0.0,0.0,4.375,4.4272,4.4317,4.4587,4.4919,4.5302,4.5491,4.4816,4.3316,4.4475,4.4014,4.2222,4.3415,4.3791,0.0,0.0,0.0,4.3497,4.3497,4.3497,4.3497,4.3497,4.3693,4.4028,4.4373,4.4927,4.5769,4.7818,4.9471,5.0702,5.0702,5.0702,5.051,4.9548,4.9933,5.0548,4.9817,5.0625,5.1972,5.2933,5.3741,5.4549,5.5472,5.5703,5.5703,5.5703,5.5703,5.5703,5.5703,5.5703,5.5972,5.6857,5.7088,5.7203,5.7203,5.728,5.7319,5.7203,5.7203,5.778,5.9358,5.9511,5.9858,6.0742,6.0935,6.1012,6.1012,6.1666,6.2204,6.2474,6.3243,6.3705,6.3705,6.382,6.382,6.3705,6.3974,6.3834,6.3374,6.3112,6.2211,2.4462,2.4639,2.479,2.476,2.4874,2.4915,2.4607,2.4539,2.4524,2.4321,2.4284,2.4376,2.4554,2.4743,2.4867,0.0,0.0,2.9571,0.0,0.0,3.4058,0.0,0.0,0.0,0.0,0.0,0.0,0.0,0.0,0.0,0.0,4.2206,4.277,4.3088,4.3137,4.3453,4.4052,4.5093,4.5086,4.4124,4.4509,4.4121,4.3114,4.3441,4.3529,0.0,0.0,4.3497,4.3497,4.3497,4.3497,4.3497,4.3497,4.3693,4.3998,4.4058,4.5429,4.751,4.9585,5.0471,5.0702,5.0702,5.0702,5.0664,5.0471,5.0548,5.0664,5.0548,5.0702,5.1241,5.2818,5.3318,5.378,5.5318,5.5703,5.5703,5.5703,5.5703,5.5703,5.5703,5.5703,5.5972,5.6857,5.7588,5.8088,5.8088,5.8665,5.8858,5.8204,5.8088,5.8473,5.9396,5.9511,5.9858,6.0742,6.1473,6.1897,6.1897,6.2012,6.2743,6.4166,6.5051,6.5513,6.5513,6.6167,6.6167,6.5513,6.6936,6.6277,6.3741,6.4405,6.3617,2.4014,2.4426,2.4816,2.4484,2.4712,2.493,2.4716,2.4666,2.4638,2.4547,2.451,2.4591,2.4743,0.0,2.6136,2.7661,0.0,3.0917,3.2069,3.2967,0.0,0.0,0.0,0.0,0.0,0.0,0.0,0.0,0.0,0.0,0.0,0.0,4.1724,4.1878,4.2047,4.2295,4.2611,4.3323,4.3576,4.335,4.345,4.3353,4.3007,4.3095,4.3254,4.3497,0.0,4.3497,4.3497,4.3497,4.3497,4.3497,4.3497,4.3597,4.3828,4.4662,4.61,4.7815,4.9431,5.0317,5.0702,5.0702,5.0702,5.0702,5.0702,5.0702,5.0779,5.1241,5.1048,5.1087,5.2779,5.3203,5.3626,5.528,5.5703,5.5818,5.628,5.6395,5.6395,5.6395,5.6395,5.6665,5.755,5.7627,5.7896,5.8819,5.8896,5.8896,5.8934,5.8934,5.9281,6.0127,6.0204,6.0358,6.0781,6.1589,6.2474,6.3397,6.3897,6.4666,6.5897,6.6782,6.7244,6.7244,6.7628,6.7628,6.7244,6.8013,6.7664,6.6241,6.5656,6.459,2.3625,2.3967,2.4366,2.413,2.4568,2.5031,2.5129,2.5097,2.5068,2.5068,2.5068,2.505,0.0,2.5741,0.0,2.9994,3.1121,3.1917,0.0,0.0,0.0,0.0,0.0,0.0,0.0,0.0,0.0,0.0,0.0,0.0,0.0,0.0,4.0818,4.0818,4.1089,4.1221,4.1306,4.1353,4.1652,4.2112,4.2297,4.2297,4.2225,4.2344,4.2686,4.3204,4.3204,4.3314,4.3497,4.3497,4.3497,4.3497,4.3497,4.3497,4.3708,4.5218,4.6506,4.7647,4.8951,4.9971,5.0702,5.0702,5.0702,5.0702,5.0702,5.0702,5.0818,5.1471,5.1318,5.1356,5.3087,5.3356,5.3626,5.528,5.5703,5.5934,5.6819,5.7011,5.7011,5.7011,5.6973,5.728,5.8165,5.7742,5.7857,5.955,5.9127,5.8896,5.9704,5.9627,5.9819,6.0704,6.0781,6.0973,6.1358,6.2012,6.3166,6.5051,6.582,6.6551,6.7359,6.8052,6.8398,6.8398,6.859,6.859,6.8398,6.8783,6.8729,6.8185,6.6954,6.5804,2.346,2.312,2.2904,2.3861,2.4568,2.5208,2.5996,2.6067,2.5899,2.5899,0.0,0.0,0.0,2.5872,2.7428,3.0078,3.1184,3.2545,0.0,0.0,0.0,0.0,0.0,0.0,0.0,0.0,0.0,0.0,0.0,0.0,0.0,0.0,0.0,3.9974,4.0005,4.0117,4.0393,3.9666,3.9877,4.1009,4.1477,4.126,4.0505,4.0972,4.1658,4.2396,4.2396,4.28,4.3497,4.3497,4.3497,4.3497,4.3497,4.3497,4.3708,4.5218,4.6388,4.7352,4.889,4.9971,5.0702,5.0702,5.0702,5.0702,5.0702,5.0702,5.0702,5.0779,5.1279,5.2202,5.3972,5.3818,5.3626,5.528,5.5703,5.5934,5.6819,5.6973,5.7011,5.6973,5.6973,5.728,5.8165,5.8242,5.8781,6.0435,5.9973,5.9742,6.0589,6.0012,5.9819,6.0704,6.0781,6.1435,6.3012,6.3166,6.4282,6.6744,6.6974,6.7398,6.8282,6.8359,6.8398,6.8398,6.9206,6.9206,6.8398,6.9975,6.9654,6.7681,6.8341,6.7695,2.3019,2.316,2.3448,2.3342,2.4136,0.0,0.0,2.6643,2.6844,2.6322,2.7115,0.0,0.0,0.0,2.8901,3.0964,3.2532,0.0,0.0,0.0,0.0,0.0,0.0,0.0,0.0,0.0,0.0,0.0,0.0,0.0,0.0,0.0,0.0,3.7661,3.8138,3.8228,3.7821,3.8522,3.883,3.8813,3.9649,4.0308,4.0818,4.0478,4.1075,4.2286,4.2286,4.2763,4.3497,4.3497,4.3497,4.3497,4.3497,4.3497,4.3674,4.499,4.6168,4.7299,4.8632,4.9813,5.0702,5.0702,5.0702,5.0702,5.0702,5.0702,5.0779,5.1318,5.1664,5.2202,5.3395,5.3857,5.428,5.5434,5.6088,5.6588,5.6934,5.7434,5.7819,5.7819,5.7357,5.7434,5.8819,5.8165,5.8242,6.0473,6.005,5.9819,6.0704,6.0512,6.0435,6.0742,6.0781,6.1473,6.3166,6.332,6.4397,6.6936,6.7628,6.8321,6.9167,6.9706,6.9937,6.9937,7.0283,7.0283,6.9975,7.0591,7.0497,6.9663,6.9152,6.8599,2.2315,2.2709,2.3235,2.2889,2.3715,0.0,2.6246,2.7062,2.7599,2.7587,2.8195,2.8555,2.8016,0.0,0.0,0.0,0.0,0.0,0.0,0.0,0.0,0.0,0.0,0.0,0.0,0.0,0.0,0.0,0.0,0.0,0.0,0.0,0.0,0.0,3.6817,3.6853,3.6303,3.7404,3.7771,3.7507,3.8247,3.9217,4.0341,3.9753,4.0414,4.1919,4.1919,4.2506,4.3497,4.3497,4.3497,4.3497,4.3497,4.3497,4.3603,4.4544,4.5827,4.7235,4.8172,4.9461,5.0702,5.0702,5.0702,5.0702,5.0702,5.0702,5.0818,5.1356,5.1895,5.2472,5.3049,5.3857,5.4703,5.5511,5.6165,5.6742,5.728,5.7896,5.8396,5.8627,5.8204,5.8165,5.9319,5.855,5.8473,6.0512,6.0281,6.0127,6.0704,6.0781,6.0781,6.0781,6.0781,6.1473,6.3166,6.332,6.4397,6.6936,6.7936,6.8783,6.9667,7.0475,7.0898,7.0898,7.0898,7.1052,7.1321,7.1321,7.1437,7.1706,7.0592,7.0077,2.1456,2.1388,2.1803,2.2581,2.3332,2.4423,2.6676,2.7395,2.8135,3.0009,2.9083,2.7939,2.7988,2.7988,0.0,0.0,0.0,0.0,0.0,0.0,0.0,0.0,0.0,0.0,0.0,0.0,0.0,0.0,0.0,0.0,0.0,0.0,0.0,0.0,3.6266,3.6266,3.6266,3.6303,3.6707,3.7507,3.7477,3.7918,3.8689,3.8726,3.957,4.1111,4.1111,4.2029,4.3497,4.3497,4.3497,4.3497,4.3497,4.3497,4.3529,4.3881,4.5311,4.7159,4.7486,4.8963,5.0702,5.0702,5.0702,5.0702,5.0702,5.0702,5.0702,5.0702,5.1895,5.3203,5.3203,5.3857,5.4703,5.5511,5.5703,5.6203,5.7934,5.8319,5.855,5.9358,5.9473,5.9473,5.9511,5.9511,5.9819,6.0666,6.0781,6.0781,6.0781,6.0781,6.0781,6.0781,6.0781,6.1473,6.3166,6.332,6.4397,6.6936,6.7898,6.8783,6.9667,7.0475,7.0937,7.0937,7.0937,7.136,7.2206,7.2206,7.2668,7.3486,7.2893,7.232,2.1732,2.1556,2.179,2.2649,2.389,2.5313,2.701,2.7494,0.0,0.0,2.9083,2.8082,2.8747,0.0,0.0,0.0,0.0,0.0,0.0,0.0,0.0,0.0,0.0,0.0,0.0,0.0,0.0,0.0,0.0,0.0,0.0,0.0,0.0,0.0,3.5428,3.5362,3.4541,3.5716,3.6119,3.5752,3.6927,3.7918,3.8726,3.9276,3.979,4.0304,4.1442,4.2213,4.269,4.3277,4.3497,4.3497,4.3497,4.3497,4.3532,4.3631,4.492,4.6697,4.7133,4.8566,5.0336,5.0604,5.0702,5.0702,5.0702,5.0702,5.0702,5.0702,5.1895,5.3203,5.3203,5.428,5.5395,5.5626,5.6626,5.7511,5.7396,5.8319,5.9204,5.9435,5.905,5.905,6.0204,5.9896,5.9819,6.0666,6.0781,6.0781,6.0781,6.0781,6.0781,6.0781,6.0781,6.1473,6.3166,6.332,6.4166,6.6128,6.759,6.9052,7.0475,7.136,7.2091,7.2706,7.2745,7.286,7.3129,7.3129,7.3245,7.3486,7.2893,7.2624,2.1357,2.1623,2.2267,2.2791,2.438,2.6128,2.7381,2.8389,0.0,0.0,2.9536,2.9083,2.966,2.9562,0.0,0.0,0.0,0.0,0.0,0.0,0.0,0.0,0.0,0.0,0.0,0.0,0.0,0.0,0.0,0.0,0.0,0.0,0.0,0.0,3.4213,3.429,3.3807,3.4798,3.5202,3.5027,3.6376,3.7257,3.7771,3.8909,3.9606,3.9974,4.1589,4.247,4.28,4.3277,4.3497,4.3497,4.3497,4.3497,4.3497,4.3497,4.4572,4.6103,4.6682,4.8083,4.9739,5.0303,5.0584,5.0702,5.0702,5.0702,5.0702,5.0702,5.1895,5.3203,5.3203,5.4434,5.5703,5.5703,5.678,5.7742,5.755,5.855,5.9588,5.9935,5.9627,5.9627,6.0627,6.0358,6.0204,6.0704,6.0781,6.0781,6.0781,6.0781,6.0781,6.0781,6.1089,6.1858,6.3205,6.3628,6.4551,6.6282,6.7667,6.9321,7.1321,7.1898,7.2591,7.3476,7.3514,7.3668,7.3976,7.3976,7.4168,7.4476,7.3887,7.3535,2.0653,2.1609,2.2893,2.2909,2.4812,2.6907,2.7791,2.9602,3.0829,2.999,0.0,3.039,3.0386,2.988,0.0,0.0,0.0,0.0,0.0,0.0,0.0,0.0,0.0,0.0,0.0,0.0,0.0,0.0,0.0,0.0,0.0,0.0,0.0,3.2896,3.2985,3.3252,3.3697,3.377,3.4174,0.0,3.5789,3.6193,3.6229,3.8028,3.9239,4.0084,4.1479,4.258,4.3387,4.3387,4.3424,4.3497,4.3497,4.3497,4.3497,4.3497,4.4243,4.5376,4.6115,4.7448,4.9005,4.9868,5.038,5.0702,5.0702,5.0702,5.0702,5.0702,5.1895,5.3203,5.3203,5.4434,5.5703,5.5703,5.6434,5.7319,5.8127,5.8973,5.9858,6.0666,6.0781,6.0781,6.0781,6.0781,6.0781,6.0781,6.0781,6.0781,6.0781,6.0781,6.0781,6.0781,6.1589,6.2435,6.3243,6.4166,6.5397,6.7013,6.7975,6.9629,7.2091,7.2283,7.2745,7.3707,7.3745,7.413,7.4938,7.4938,7.5361,7.613,7.557,7.5018,2.0901,2.1259,2.2209,2.2834,2.5149,2.7536,2.8427,2.8973,2.914,2.8502,2.896,2.9308,2.8729,0.0,0.0,0.0,0.0,0.0,0.0,0.0,0.0,0.0,0.0,0.0,0.0,0.0,0.0,0.0,0.0,0.0,0.0,0.0,0.0,3.2372,3.2972,3.3187,3.2852,3.3476,3.388,0.0,3.4908,3.5284,3.5385,3.8322,4.0084,4.0855,4.0524,4.1222,4.2543,4.2543,4.291,4.3497,4.3497,4.3497,4.3497,4.3497,4.4044,4.4881,4.5388,4.6824,4.8655,5.0112,5.0624,5.0702,5.0702,5.0702,5.0702,5.0702,5.1895,5.3203,5.3203,5.4434,5.5703,5.5703,5.6896,5.8088,5.828,5.9473,6.0589,6.0742,6.0781,6.0781,6.0781,6.0781,6.0781,6.0781,6.0781,6.0781,6.0781,6.0781,6.0781,6.0781,6.1589,6.2435,6.3243,6.4743,6.6051,6.7051,6.8552,7.0244,7.2129,7.286,7.3937,7.5438,7.5476,7.5861,7.6746,7.6746,7.6823,7.7015,7.7096,7.6462,2.0992,2.1756,2.328,2.4466,2.5932,2.7304,2.8185,2.8377,2.8171,2.7484,2.8033,2.8566,2.8211,0.0,0.0,0.0,0.0,0.0,0.0,0.0,0.0,0.0,0.0,0.0,0.0,0.0,0.0,0.0,0.0,0.0,0.0,3.1698,3.1642,3.1581,3.1977,3.2334,3.2596,3.3036,3.344,3.3807,3.4614,3.5422,3.6266,3.7955,3.9386,4.0487,4.0084,4.0818,4.2286,4.2286,4.2763,4.3497,4.3497,4.3497,4.3497,4.3497,4.3754,4.4193,4.4835,4.591,4.7284,4.8514,4.9461,5.0087,5.0087,5.0356,5.0702,5.0702,5.1625,5.2664,5.3087,5.4164,5.5318,5.6126,5.7357,5.8319,5.8319,5.9627,6.0781,6.0781,6.0781,6.0781,6.0781,6.0781,6.0781,6.0781,6.0781,6.0781,6.0781,6.0781,6.0781,6.0781,6.1935,6.2858,6.3281,6.5243,6.6821,6.7667,6.9321,7.1052,7.2745,7.363,7.4668,7.5976,7.6399,7.6861,7.7284,7.7669,7.7861,7.7861,7.8026,7.7341,2.1043,2.2326,2.4467,2.609,2.6564,2.6813,2.7505,2.7659,2.7467,2.6649,2.7228,2.7855,0.0,0.0,0.0,0.0,0.0,0.0,0.0,0.0,0.0,0.0,0.0,0.0,0.0,0.0,0.0,0.0,0.0,0.0,3.0417,3.0379,3.0494,3.0695,3.0828,3.1362,3.2375,3.2522,3.2926,3.3587,3.4284,3.5459,3.7074,3.7221,3.8175,3.968,3.968,4.0598,4.2103,4.1956,4.2506,4.3497,4.3351,4.3387,4.3497,4.3497,4.3497,4.3608,4.4268,4.509,4.5946,4.6749,4.8105,4.9433,4.9586,5.0125,5.0702,5.0702,5.1395,5.2279,5.301,5.3933,5.5049,5.6434,5.755,5.8357,5.8473,5.9704,6.0781,6.0781,6.0781,6.0781,6.0781,6.0781,6.0781,6.0781,6.0781,6.0781,6.0781,6.0781,6.0858,6.1012,6.2397,6.3358,6.3512,6.5859,6.7628,6.8359,7.0129,7.1822,7.3437,7.4437,7.5322,7.6207,7.6938,7.7361,7.7515,7.8323,7.8707,7.8707,7.8861,7.8247,2.1079,2.1914,2.3651,2.5266,2.6179,2.6679,2.6774,2.6774,2.6544,0.0,2.6343,0.0,0.0,0.0,0.0,0.0,0.0,0.0,0.0,0.0,0.0,0.0,0.0,0.0,0.0,0.0,0.0,0.0,0.0,0.0,3.0379,3.0379,3.0226,2.9883,3.0544,3.1121,3.1531,3.2265,3.2669,3.2779,3.2889,3.377,3.5385,3.6119,3.7331,3.8872,3.8872,3.979,4.1222,4.0524,4.1515,4.3424,4.2727,4.2873,4.3497,4.3497,4.3497,4.3497,4.3608,4.4606,4.5946,4.6814,4.8143,4.9548,5.0279,5.0587,5.0702,5.0702,5.1818,5.3049,5.3164,5.4357,5.5588,5.5818,5.7126,5.8511,5.9204,6.0127,6.0781,6.0781,6.0781,6.0781,6.0781,6.0781,6.0781,6.0781,6.0781,6.0781,6.0781,6.0781,6.1089,6.1858,6.2743,6.3628,6.4359,6.6782,6.8282,6.8398,7.0667,7.2476,7.3476,7.5014,7.6245,7.7092,7.7246,7.763,7.8323,7.9208,7.9631,7.9631,8.04,7.97,2.2341,2.2143,2.2695,2.4367,2.5026,2.5255,2.5207,2.5582,2.5726,2.4985,2.5532,0.0,0.0,0.0,0.0,0.0,0.0,0.0,0.0,0.0,0.0,0.0,0.0,0.0,0.0,0.0,0.0,0.0,0.0,2.9467,3.034,3.0379,3.0188,2.9695,3.0054,3.0373,3.0723,3.1091,3.1715,3.2596,3.2596,3.3413,3.5027,3.5899,3.6927,3.8028,3.8505,3.935,4.0451,4.0524,4.1442,4.2837,4.291,4.3167,4.3497,4.3497,4.3497,4.3497,4.3497,4.4197,4.5266,4.6097,4.7419,4.8817,4.9702,5.0317,5.0702,5.0702,5.1548,5.2587,5.3087,5.4126,5.5241,5.6203,5.7396,5.8511,5.9319,6.0165,6.0781,6.0781,6.0781,6.0781,6.0781,6.0781,6.0781,6.0781,6.0781,6.0973,6.1473,6.1512,6.1858,6.2666,6.3512,6.4397,6.5243,6.7205,6.8821,6.9744,7.1783,7.3283,7.413,7.5822,7.6899,7.7284,7.8207,7.8861,7.9246,8.0092,8.0516,8.0554,8.0939,8.0417,2.2617,2.2232,2.2283,2.3298,2.386,2.4091,2.3851,0.0,2.4678,0.0,0.0,0.0,0.0,0.0,0.0,0.0,0.0,0.0,0.0,0.0,0.0,0.0,0.0,0.0,0.0,0.0,0.0,0.0,0.0,2.9275,3.034,3.0379,3.0215,2.978,2.9763,2.9945,3.0291,3.0257,3.1017,3.2596,3.2412,3.3146,3.4724,3.5826,3.6633,3.7221,3.8248,3.9166,3.9937,4.0561,4.1405,4.2359,4.2947,4.3314,4.3497,4.3497,4.3497,4.3497,4.3497,4.3949,4.4605,4.5515,4.6625,4.7857,4.9029,4.9856,5.0433,5.0625,5.1433,5.2395,5.3049,5.401,5.5126,5.6357,5.7511,5.8588,5.9627,6.0319,6.0781,6.0781,6.0781,6.0781,6.0781,6.0781,6.0781,6.0781,6.0781,6.1012,6.1666,6.1935,6.2397,6.3205,6.4282,6.5282,6.6128,6.7936,6.959,7.0821,7.2745,7.4168,7.5014,7.6669,7.7707,7.7938,7.94,8.0015,7.9823,8.0669,8.1093,8.1093,8.1093,8.075,2.0664,2.1808,2.2815,2.2037,2.3039,2.3975,0.0,0.0,2.3285,2.412,0.0,0.0,0.0,0.0,0.0,0.0,0.0,0.0,0.0,0.0,0.0,0.0,0.0,0.0,0.0,0.0,0.0,0.0,0.0,2.8698,3.0302,3.0379,3.0267,2.9999,2.9984,3.0196,3.0602,3.0314,3.1017,3.2596,3.1825,3.2302,3.3917,3.5532,3.6303,3.645,3.8028,3.9166,3.99,3.9937,4.0891,4.2286,4.2359,4.2837,4.3497,4.3497,4.3497,4.3497,4.3497,4.3726,4.4237,4.5396,4.6063,4.6768,4.8798,4.9433,4.9625,5.0471,5.1856,5.3126,5.3203,5.4395,5.5665,5.5742,5.7049,5.8742,6.0358,6.0781,6.0781,6.0781,6.0781,6.0781,6.0781,6.0781,6.0781,6.0781,6.0781,6.0819,6.0858,6.1589,6.2397,6.3205,6.482,6.6167,6.6974,6.9321,7.0821,7.0898,7.3245,7.5014,7.5899,7.7553,7.8823,7.9669,8.0554,8.0631,7.9823,8.0669,8.1093,8.1093,8.1093,8.075,2.0504,2.0923,2.1545,2.2345,2.2581,2.2637,2.2833,2.2959,2.2959,2.2735,0.0,0.0,0.0,0.0,0.0,0.0,0.0,0.0,0.0,0.0,0.0,0.0,0.0,0.0,0.0,0.0,0.0,0.0,0.0,0.0,3.034,3.0379,3.0267,3.0013,2.9999,2.9948,2.9841,2.954,3.0246,3.1825,3.1531,3.2228,3.3844,3.4981,3.5789,3.634,3.7441,3.8395,3.9203,4.023,4.1001,4.1625,4.2653,4.324,4.3497,4.3497,4.3497,4.3497,4.3497,4.3726,4.4207,4.5396,4.6025,4.6669,4.8779,4.9394,4.9702,5.1087,5.2318,5.3318,5.3895,5.4857,5.5972,5.7088,5.7857,5.8781,6.0435,6.0781,6.0781,6.0781,6.0781,6.0781,6.0781,6.0781,6.0781,6.0781,6.0781,6.1204,6.2281,6.2666,6.3628,6.5513,6.6282,6.7244,6.8667,7.009,7.1398,7.2514,7.4437,7.5938,7.6784,7.8438,7.9477,7.9785,8.0669,8.0939,8.0631,8.0939,8.1093,8.1093,8.1093,8.0959,2.0597,2.085,2.1479,2.2361,2.2153,2.1837,2.2385,2.2353,2.212,2.1851,0.0,0.0,0.0,0.0,0.0,0.0,0.0,0.0,0.0,0.0,0.0,0.0,0.0,0.0,0.0,0.0,0.0,0.0,0.0,0.0,3.034,3.0379,3.033,3.0136,2.9969,2.9796,2.9607,2.9465,3.011,3.1555,3.1728,3.2485,3.3844,3.4623,3.5495,3.634,3.7147,3.7955,3.8799,4.0157,4.0855,4.1258,4.258,4.324,4.3497,4.3497,4.3497,4.3497,4.3497,4.3664,4.3986,4.5067,4.5723,4.6496,4.8375,4.9163,4.974,5.1433,5.2549,5.3395,5.428,5.5088,5.6126,5.7896,5.8319,5.8781,6.0435,6.0781,6.0781,6.0781,6.0781,6.0781,6.0781,6.0781,6.0896,6.1166,6.1243,6.1743,6.3128,6.3551,6.4512,6.6474,6.7205,6.8244,6.9975,7.1129,7.2399,7.3822,7.5515,7.6823,7.7669,7.9054,7.9939,8.0246,8.0823,8.1093,8.1093,8.1093,8.1093,8.1093,8.1093,8.1093,0.0,0.0,0.0,2.1992,2.1731,2.1668,2.1748,2.1055,2.0703,2.1601,0.0,0.0,0.0,0.0,0.0,0.0,0.0,0.0,0.0,0.0,0.0,0.0,0.0,0.0,0.0,0.0,0.0,0.0,0.0,2.9506,3.034,3.0379,3.0379,3.0379,2.9962,2.9796,3.0037,3.0176,3.0743,3.1831,3.2379,3.3036,3.3844,3.4587,3.5459,3.6303,3.711,3.7918,3.8726,3.957,4.0414,4.1185,4.2029,4.28,4.3497,4.3497,4.3497,4.3497,4.3497,4.3497,4.3631,4.4383,4.5153,4.6114,4.7624,4.8702,4.974,5.1471,5.2549,5.3395,5.4318,5.5126,5.6165,5.7896,5.8319,5.8781,6.0435,6.0781,6.0781,6.0781,6.0781,6.0819,6.0819,6.0819,6.1127,6.1973,6.2127,6.2435,6.3243,6.4089,6.4936,6.5859,6.7436,6.909,7.0783,7.2514,7.386,7.4668,7.6361,7.7669,7.8477,7.9361,8.0246,8.1093,8.1093,8.1093,8.1093,8.1093,8.1093,8.1093,8.1093,8.1093,2.1449,0.0,0.0,0.0,0.0,0.0,2.2343,2.1981,2.1417,0.0,0.0,0.0,0.0,0.0,0.0,0.0,0.0,0.0,0.0,0.0,0.0,0.0,0.0,0.0,0.0,0.0,0.0,0.0,2.9698,3.016,3.0379,3.0379,3.0379,3.0379,3.0095,3.0259,3.0929,3.0619,3.1206,3.2672,3.2637,3.3036,3.3807,3.4027,3.4578,3.5422,3.6266,3.7074,3.7955,3.9974,4.0928,4.1258,4.2616,4.3277,4.3497,4.3497,4.3497,4.3497,4.3497,4.3497,4.3631,4.4383,4.5153,4.6114,4.7624,4.8702,4.9894,5.2202,5.301,5.3549,5.4972,5.6011,5.6896,5.805,5.8742,5.9473,6.055,6.0781,6.0781,6.0781,6.0781,6.1012,6.1627,6.1743,6.2012,6.2858,6.2974,6.3281,6.4128,6.4436,6.5397,6.7475,6.8129,6.9321,7.1629,7.286,7.386,7.4668,7.6861,7.8246,7.8477,7.9939,8.0862,8.1093,8.1093,8.1093,8.1093,8.1093,8.1093,8.1093,8.1093,8.1093,0.0,0.0,0.0,0.0,0.0,0.0,2.2189,2.1745,2.1141,0.0,0.0,0.0,0.0,0.0,0.0,0.0,0.0,0.0,0.0,0.0,0.0,0.0,0.0,0.0,0.0,0.0,0.0,2.9544,3.0121,3.0379,3.0379,3.0379,3.0379,3.0379,3.0494,3.0858,3.1479,3.1581,3.212,3.3163,3.3118,3.3366,3.3807,3.3807,3.4431,3.5569,3.6083,3.6927,3.8138,3.9863,4.0818,4.1185,4.2139,4.291,4.3497,4.3497,4.3497,4.3497,4.3497,4.3497,4.3704,4.4759,4.5682,4.6606,4.8161,4.951,5.0818,5.2664,5.3703,5.4472,5.5434,5.6357,5.7203,5.8088,5.8896,5.9742,6.0589,6.0781,6.0781,6.0781,6.1089,6.1512,6.2012,6.2358,6.2897,6.3743,6.3858,6.4166,6.5013,6.5436,6.6359,6.8205,6.8744,6.9975,7.2514,7.3206,7.4014,7.5168,7.7284,7.8477,7.8477,8.0169,8.1093,8.1093,8.1093,8.1093,8.1093,8.1093,8.1093,8.1093,8.1093,8.1093,0.0,0.0,0.0,0.0,0.0,0.0,2.1652,2.1059,2.0565,2.0561,0.0,0.0,0.0,0.0,0.0,0.0,0.0,0.0,0.0,0.0,0.0,0.0,0.0,0.0,0.0,2.8029,2.8675,3.0302,3.0379,3.0379,3.0379,3.0494,3.0533,3.0533,3.1158,3.1618,3.1968,3.2694,3.3222,3.3541,3.371,3.3807,3.3807,3.388,3.4761,3.6156,3.6397,3.725,3.8652,3.9559,4.0409,4.1111,4.1222,4.2176,4.3497,4.3497,4.3497,4.3497,4.3497,4.3497,4.3741,4.5284,4.6399,4.739,4.8948,5.0587,5.2125,5.3087,5.4472,5.5703,5.5703,5.6395,5.7319,5.8127,5.8973,5.9858,6.0627,6.0781,6.0781,6.0781,6.1512,6.2127,6.2204,6.2897,6.3743,6.4628,6.4743,6.5051,6.5897,6.6667,6.7475,6.8436,6.9244,7.0744,7.3283,7.3514,7.4207,7.5899,7.7553,7.8477,7.8477,8.0169,8.1093,8.1093,8.1093,8.1093,8.1093,8.1093,8.1093,8.1093,8.1093,8.1093,0.0,0.0,0.0,0.0,0.0,0.0,2.1765,2.1966,2.215,0.0,2.1402,0.0,0.0,0.0,0.0,0.0,0.0,0.0,0.0,0.0,0.0,0.0,0.0,0.0,0.0,2.8126,2.8768,3.034,3.0417,3.0379,3.0379,3.1083,3.1468,3.1468,3.2212,3.2942,3.3699,3.3466,3.3689,3.4429,3.4031,3.3807,3.3807,3.4468,3.4917,3.5349,3.6896,3.7618,3.7838,3.9534,4.0584,4.1185,4.1809,4.2653,4.3497,4.3497,4.3497,4.3497,4.3497,4.3497,4.3741,4.5284,4.6399,4.739,4.8948,5.0587,5.2241,5.3818,5.4934,5.5703,5.5703,5.6857,5.8088,5.828,5.9435,6.0589,6.0742,6.0781,6.0781,6.0781,6.1512,6.232,6.2935,6.3782,6.4628,6.5513,6.5628,6.5936,6.6744,6.7013,6.7705,6.9283,6.959,7.0744,7.3283,7.3514,7.4207,7.5899,7.7553,7.8477,7.8477,8.0169,8.1093,8.1093,8.1093,8.1093,8.1093,8.1093,8.1093,8.1093,8.1093,8.1093,0.0,0.0,0.0,2.3093,0.0,0.0,0.0,2.185,2.2081,2.1773,2.1294,2.0976,0.0,0.0,0.0,0.0,0.0,0.0,0.0,0.0,0.0,0.0,0.0,0.0,0.0,2.8143,2.8763,3.0314,3.0417,3.0571,3.1044,3.1468,3.1891,3.2275,3.3122,3.3737,3.4199,3.423,3.4472,3.4908,3.4307,3.4215,3.4659,3.4917,3.5506,3.6498,3.75,3.8175,3.8633,3.9798,4.0803,4.163,4.212,4.28,4.3497,4.3497,4.3497,4.3497,4.3497,4.3631,4.4072,4.5857,4.6871,4.7667,4.9527,5.1202,5.2895,5.4626,5.5395,5.5703,5.5703,5.6973,5.8319,5.8319,5.9588,6.0781,6.0781,6.0781,6.0935,6.1358,6.2127,6.282,6.3243,6.4397,6.5397,6.582,6.5897,6.6051,6.6436,6.7244,6.809,6.8975,6.9821,7.1168,7.3322,7.3514,7.4207,7.5899,7.7553,7.8477,7.8477,8.0169,8.1093,8.1093,8.1093,8.1093,8.1093,8.1093,8.1093,8.1093,8.1093,8.1093,0.0,0.0,0.0,0.0,0.0,2.3937,0.0,0.0,0.0,2.1968,2.1364,0.0,0.0,0.0,0.0,0.0,0.0,0.0,0.0,0.0,0.0,0.0,0.0,0.0,0.0,2.8437,2.9085,3.0325,3.0417,3.0737,3.1429,3.1775,3.2237,3.2891,3.3891,3.443,3.443,3.4878,3.5086,3.5069,3.468,3.4833,3.5504,3.5557,3.6435,3.7914,3.8191,3.8888,3.992,4.049,4.1342,4.2335,4.2316,4.2831,4.3597,4.3495,4.3497,4.3497,4.3497,4.3837,4.4573,4.6478,4.7694,4.8783,5.0604,5.2241,5.378,5.528,5.5703,5.5742,5.5895,5.7126,5.8357,5.8511,5.9704,6.0781,6.0781,6.0781,6.105,6.1935,6.2743,6.3358,6.3512,6.4859,6.5936,6.609,6.6128,6.6244,6.659,6.7821,6.8706,6.8859,7.009,7.1629,7.336,7.3514,7.4207,7.5899,7.7553,7.8477,7.8477,8.0169,8.1093,8.1093,8.1093,8.1093,8.1093,8.1093,8.1093,8.1093,8.1093,8.1093,0.0,0.0,0.0,0.0,2.462,0.0,0.0,0.0,2.3599,2.2987,0.0,0.0,0.0,0.0,0.0,0.0,0.0,0.0,0.0,0.0,0.0,0.0,0.0,0.0,0.0,0.0,3.0386,3.039,3.0467,3.0506,3.0533,3.1968,3.2814,3.2891,3.4507,3.5353,3.5353,3.5184,3.5086,3.5107,3.5259,3.5392,3.5541,3.6931,3.7676,3.7977,3.9299,4.0182,4.0835,4.1835,4.2625,4.3114,4.2532,4.2959,4.3912,4.3631,4.3497,4.3497,4.3497,4.4239,4.5387,4.6694,4.9058,5.1585,5.2605,5.3587,5.4549,5.5434,5.5703,5.5857,5.6626,5.755,5.8473,5.9204,6.0089,6.0781,6.0781,6.0781,6.105,6.1935,6.2743,6.3551,6.432,6.5243,6.6128,6.6859,6.6974,6.7513,6.9052,6.9436,6.9821,7.0552,7.0783,7.1629,7.336,7.3514,7.4207,7.5899,7.7553,7.8477,7.8477,8.0169,8.1093,8.1093,8.1093,8.1093,8.1093,8.1093,8.1093,8.1093,8.1093,8.1093,0.0,0.0,0.0,0.0,0.0,0.0,2.3812,0.0,2.4023,0.0,0.0,0.0,0.0,0.0,0.0,0.0,2.471,0.0,0.0,0.0,0.0,0.0,0.0,0.0,0.0,0.0,0.0,0.0,0.0,3.066,3.1121,3.2275,3.3122,3.3622,3.4853,3.5493,3.5493,3.5383,3.5569,3.6029,3.597,3.6474,3.7419,3.7943,3.8568,3.9217,4.0345,4.1036,4.1533,4.2751,4.3497,4.3878,4.3686,4.3797,4.3937,4.3631,4.3497,4.3569,4.4313,4.5028,4.5885,4.7815,5.0002,5.2049,5.2933,5.3818,5.4664,5.5472,5.6049,5.6549,5.6896,5.7973,5.9088,5.9435,6.0165,6.0781,6.0781,6.1204,6.1781,6.2627,6.3474,6.432,6.5205,6.5667,6.6167,6.6974,6.709,6.7552,6.8783,6.9398,6.9821,7.0167,7.0629,7.1629,7.336,7.3514,7.4437,7.663,7.8323,7.9477,7.9977,8.0708,8.1093,8.1093,8.1093,8.1093,8.1093,8.1093,8.1093,8.1093,8.1093,8.1093,2.5303,0.0,0.0,0.0,0.0,0.0,0.0,0.0,0.0,0.0,0.0,0.0,0.0,0.0,0.0,0.0,0.0,2.5374,0.0,0.0,0.0,0.0,0.0,0.0,0.0,0.0,0.0,2.9175,2.9725,3.0429,3.1314,3.2314,3.3314,3.416,3.5045,3.5493,3.5493,3.5493,3.5892,3.6685,3.6638,3.7412,3.8804,3.8854,3.9444,4.0463,4.1151,4.1855,4.2569,4.3542,4.4231,4.4666,4.4737,4.4561,4.4261,4.3823,4.3775,4.4136,4.4978,4.5914,4.7011,4.9332,5.1087,5.2433,5.328,5.4164,5.4934,5.5549,5.6319,5.7049,5.728,5.8434,5.955,5.9819,6.0319,6.0781,6.0781,6.1473,6.232,6.3128,6.4012,6.4936,6.6051,6.6244,6.6513,6.7321,6.7667,6.8129,6.8975,6.9629,7.0014,7.0014,7.0783,7.186,7.336,7.3707,7.4938,7.7476,7.8977,8.0208,8.1054,8.1093,8.1093,8.1093,8.1093,8.1093,8.1093,8.1093,8.1208,8.14,8.1208,8.1208,0.0,0.0,0.0,2.5303,0.0,0.0,0.0,0.0,2.5264,0.0,0.0,0.0,0.0,0.0,0.0,0.0,0.0,0.0,0.0,0.0,0.0,0.0,0.0,0.0,0.0,0.0,0.0,2.9143,2.9209,2.9583,3.0379,3.2006,3.3314,3.416,3.5045,3.5493,3.5493,3.5493,3.5892,3.6685,3.7211,3.7927,3.8842,3.9643,4.0501,4.1284,4.1639,4.2684,4.4201,4.4278,4.4778,4.553,4.5222,4.5094,4.4966,4.4261,4.4519,4.5258,4.5289,4.6835,4.9152,5.116,5.2433,5.3318,5.4203,5.5011,5.5665,5.5703,5.6319,5.7165,5.805,5.8896,5.9704,6.055,6.0781,6.0781,6.0781,6.1473,6.232,6.3128,6.4012,6.5128,6.6782,6.7051,6.7359,6.8244,6.909,6.9898,7.0706,7.0821,7.086,7.086,7.1629,7.2514,7.3437,7.4207,7.5745,7.8284,7.9285,8.0208,8.1054,8.1093,8.1093,8.1093,8.1093,8.1093,8.1093,8.1093,8.1516,8.2247,8.1477,8.1516,0.0,0.0,2.5303,2.5303,0.0,0.0,0.0,0.0,0.0,0.0,0.0,0.0,0.0,0.0,0.0,0.0,0.0,0.0,0.0,0.0,0.0,0.0,0.0,0.0,0.0,0.0,0.0,2.7516,2.8544,2.9236,0.0,3.1698,3.3045,3.3314,3.4737,3.5493,3.5493,3.6045,3.6738,3.7584,3.8316,3.9128,3.9934,4.0816,4.1353,4.1716,4.2936,4.3778,4.4355,4.4932,4.5316,4.5586,4.5457,4.5283,4.5033,4.4561,4.4927,4.5848,4.7224,4.9082,5.0888,5.1067,5.2433,5.401,5.3741,5.4587,5.5818,5.6395,5.7203,5.805,5.8896,5.9704,6.0435,6.0742,6.0781,6.0781,6.0781,6.1897,6.2974,6.3243,6.4474,6.582,6.6898,6.759,6.8244,6.9129,6.9513,6.9975,7.0783,7.1398,7.1745,7.1745,7.2552,7.3399,7.4207,7.6092,7.7823,7.9285,8.0169,8.0785,8.1093,8.1093,8.1093,8.1093,8.1093,8.1362,8.19,8.19,8.2324,8.3131,8.2862,8.2593,2.5303,2.5303,0.0,2.5303,2.5303,0.0,2.5303,0.0,0.0,0.0,0.0,0.0,0.0,0.0,0.0,0.0,0.0,0.0,0.0,2.5466,0.0,0.0,0.0,0.0,0.0,0.0,2.6908,2.7131,2.8352,2.9236,0.0,0.0,3.3045,3.3353,3.5045,3.593,3.593,3.6738,3.7584,3.8469,3.9008,3.9892,4.0969,4.1546,4.2124,4.2739,4.3816,4.447,4.4816,4.5355,4.5586,4.5586,4.5586,4.5649,4.5701,4.5337,4.5937,4.7163,4.8945,5.056,5.1895,5.1664,5.2895,5.4434,5.4164,5.4857,5.5857,5.6742,5.7627,5.8511,5.9281,6.0165,6.0781,6.0781,6.0781,6.0858,6.1204,6.2358,6.3397,6.3705,6.5166,6.659,6.7436,6.8282,6.9052,6.9629,7.0206,7.0783,7.1283,7.2129,7.2668,7.2668,7.3437,7.4399,7.5515,7.74,7.8861,7.9746,8.0631,8.1093,8.1093,8.1093,8.1362,8.1977,8.14,8.1785,8.3208,8.2324,8.2631,8.4055,8.3439,8.317]},{"header":{"parameterUnit":"m.s-1","parameterCategory":1,"la1":30.6,"la2":29.2853,"lo1":-89.7004,"lo2":-87.6739,"dy":0.0162,"dx":0.0183,"nx":112,"ny":82,"refTime":"2024-03-28T12:00:00:Z","depth":0,"parameterNumber":3,"parameterNumberName":"V-component_of_WINDS"},"data":[0.0,0.0,0.0,0.0,0.0,0.0,0.0,0.0,0.0,0.0,0.0,0.0,0.0,0.0,0.0,0.0,0.0,0.0,0.0,0.0,0.0,0.0,0.0,0.0,0.0,0.0,0.0,0.0,0.0,0.0,0.0,0.0,0.0,0.0,0.0,0.0,0.0,0.0,0.0,0.0,0.0,0.0,0.0,0.0,0.0,0.0,0.0,0.0,0.0,0.0,0.0,0.0,0.0,0.0,0.0,0.0,0.0,0.0,0.0,0.0,0.0,0.0,0.0,0.0,0.0,0.0,0.0,0.0,0.0,0.0,0.0,0.0,0.0,0.0,0.0,0.0,0.0,0.0,0.0,0.0,0.0,0.0,0.0,0.0,0.0,0.0,0.0,0.0,0.0,0.0,-0.7069,-0.7516,-0.8642,-0.9293,-0.9164,-0.8981,-0.8255,-0.6824,0.0,0.0,0.0,0.0,0.0,0.0,0.0,0.0,0.0,0.0,0.0,0.0,0.0,0.0,0.0,0.0,0.0,0.0,0.0,0.0,0.0,0.0,0.0,0.0,0.0,0.0,0.0,0.0,0.0,0.0,0.0,0.0,0.0,0.0,0.0,0.0,0.0,0.0,0.0,0.0,0.0,0.0,0.0,0.0,0.0,0.0,0.0,0.0,0.0,0.0,0.0,0.0,0.0,0.0,0.0,0.0,0.0,0.0,0.0,0.0,0.0,0.0,0.0,0.0,0.0,0.0,0.0,0.0,0.0,0.0,0.0,0.0,0.0,0.0,0.0,0.0,0.0,0.0,0.0,0.0,0.0,0.0,0.0,0.0,0.0,0.0,0.0,0.0,0.0,0.0,0.0,0.0,0.0,0.0,0.0,0.0,0.0,0.0,0.0,0.0,0.0,0.0,0.0,0.0,-0.788,-0.8467,-0.8913,-0.9178,-0.9157,-0.8784,-0.8079,-0.6966,0.0,0.0,0.0,0.0,0.0,0.0,0.0,0.0,0.0,0.0,0.0,0.0,0.0,0.0,0.0,0.0,0.0,0.0,0.0,0.0,0.0,0.0,0.0,0.0,0.0,0.0,0.0,0.0,0.0,0.0,0.0,0.0,0.0,0.0,0.0,0.0,0.0,0.0,0.0,0.0,0.0,0.0,0.0,0.0,0.0,0.0,0.0,0.0,0.0,0.0,0.0,0.0,0.0,0.0,0.0,0.0,0.0,0.0,0.0,0.0,0.0,0.0,0.0,0.0,0.0,0.0,0.0,0.0,0.0,0.0,0.0,0.0,0.0,0.0,0.0,0.0,0.0,0.0,0.0,0.0,0.0,0.0,0.0,0.0,0.0,0.0,0.0,0.0,0.0,0.0,0.0,0.0,0.0,0.0,0.0,0.0,0.0,0.0,0.0,0.0,0.0,0.0,0.0,-0.7235,-0.7865,-0.8587,-0.8974,-0.9123,-0.9042,-0.8696,-0.8038,-0.6993,-0.643,0.0,0.0,0.0,0.0,0.0,0.0,0.0,0.0,0.0,0.0,0.0,0.0,0.0,0.0,0.0,0.0,0.0,0.0,0.0,0.0,0.0,0.0,0.0,0.0,0.0,0.0,0.0,0.0,0.0,0.0,0.0,0.0,0.0,0.0,0.0,0.0,0.0,0.0,0.0,0.0,0.0,0.0,0.0,0.0,0.0,0.0,0.0,0.0,0.0,0.0,0.0,0.0,0.0,0.0,0.0,0.0,0.0,0.0,0.0,0.0,0.0,0.0,0.0,0.0,0.0,0.0,0.0,0.0,0.0,0.0,0.0,0.0,0.0,0.0,0.0,0.0,0.0,0.0,0.0,0.0,0.0,0.0,0.0,0.0,0.0,0.0,0.0,0.0,0.0,0.0,0.0,0.0,0.0,0.0,0.0,0.0,0.0,0.0,0.0,0.0,0.0,0.0,-0.7647,-0.7821,-0.8574,-0.8927,-0.9042,-0.8899,-0.8401,-0.7875,-0.7025,-0.6325,0.0,0.0,0.0,0.0,0.0,0.0,0.0,0.0,0.0,0.0,0.0,0.0,0.0,0.0,0.0,0.0,0.0,0.0,0.0,0.0,0.0,0.0,0.0,0.0,0.0,0.0,0.0,0.0,0.0,0.0,0.0,0.0,0.0,0.0,0.0,0.0,0.0,0.0,0.0,0.0,0.0,0.0,0.0,0.0,0.0,0.0,0.0,0.0,0.0,0.0,0.0,0.0,0.0,0.0,0.0,0.0,0.0,0.0,0.0,0.0,0.0,0.0,0.0,0.0,0.0,0.0,0.0,0.0,0.0,0.0,0.0,0.0,0.0,0.0,0.0,0.0,0.0,0.0,0.0,0.0,0.0,0.0,0.0,0.0,0.0,0.0,0.0,0.0,0.0,0.0,0.0,0.0,0.0,0.0,0.0,0.0,0.0,0.0,0.0,0.0,0.0,0.0,-0.7993,-0.8126,-0.857,-0.8771,-0.8893,-0.8852,-0.7865,-0.7204,-0.7362,-0.612,0.0,0.0,0.0,0.0,0.0,0.0,0.0,0.0,0.0,0.0,0.0,0.0,0.0,0.0,0.0,0.0,0.0,0.0,0.0,0.0,0.0,0.0,0.0,0.0,0.0,0.0,0.0,0.0,0.0,0.0,0.0,0.0,0.0,0.0,0.0,0.0,0.0,0.0,0.0,0.0,0.0,0.0,0.0,0.0,0.0,0.0,0.0,0.0,0.0,0.0,0.0,0.0,0.0,0.0,0.0,0.0,0.0,0.0,0.0,0.0,0.0,0.0,0.0,0.0,0.0,0.0,0.0,0.0,0.0,0.0,0.0,0.0,0.0,0.0,0.0,0.0,0.0,0.0,0.0,0.0,0.0,0.0,0.0,0.0,0.0,0.0,0.0,0.0,0.0,0.0,0.0,0.0,0.0,0.0,0.0,0.0,0.0,0.0,0.0,0.0,0.0,0.0,-0.8731,-0.8721,0.0,-0.8669,-0.8737,-0.8687,-0.7952,-0.7434,-0.7264,0.0,0.0,0.0,0.0,0.0,0.0,0.0,0.0,0.0,0.0,0.0,0.0,0.0,0.0,0.0,0.0,0.0,0.0,0.0,0.0,0.0,0.0,0.0,0.0,0.0,0.0,0.0,0.0,0.0,0.0,0.0,0.0,0.0,0.0,0.0,0.0,0.0,0.0,0.0,0.0,0.0,0.0,0.0,0.0,0.0,0.0,0.0,0.0,0.0,0.0,0.0,0.0,0.0,0.0,0.0,0.0,0.0,0.0,0.0,0.0,0.0,0.0,0.0,0.0,0.0,0.0,0.0,0.0,0.0,0.0,0.0,0.0,0.0,0.0,0.0,0.0,0.0,0.0,0.0,0.0,0.0,0.0,0.0,0.0,0.0,0.0,0.0,0.0,0.0,0.0,0.0,0.0,0.0,0.0,0.0,0.0,0.0,0.0,0.0,0.0,0.0,0.0,-0.9446,-0.9216,-0.8817,0.0,-0.8547,-0.8581,-0.8425,-0.7771,-0.7202,-0.6909,0.0,0.0,0.0,0.0,0.0,0.0,0.0,0.0,0.0,0.0,0.0,0.0,0.0,0.0,0.0,0.0,0.0,0.0,0.0,0.0,0.0,0.0,0.0,0.0,0.0,0.0,0.0,0.0,0.0,0.0,0.0,0.0,0.0,0.0,0.0,0.0,0.0,0.0,0.0,0.0,0.0,0.0,0.0,0.0,0.0,0.0,0.0,0.0,0.0,0.0,0.0,0.0,0.0,0.0,0.0,0.0,0.0,0.0,0.0,0.0,0.0,0.0,0.0,0.0,0.0,0.0,0.0,0.0,0.0,0.0,0.0,0.0,0.0,0.0,0.0,0.0,0.0,0.0,0.0,0.0,0.0,0.0,0.0,0.0,0.0,0.0,0.0,0.0,0.0,0.0,0.0,0.0,0.0,0.0,0.0,0.0,0.0,0.0,0.0,0.0,0.0,0.0,-1.088,-0.9272,-0.8126,-0.8235,-0.8501,-0.8529,-0.8282,-0.7066,-0.6342,0.0,0.0,0.0,0.0,0.0,0.0,0.0,0.0,0.0,0.0,0.0,0.0,0.0,0.0,0.0,0.0,0.0,0.0,0.0,0.0,0.0,0.0,0.0,0.0,0.0,0.0,0.0,0.0,0.0,0.0,0.0,0.0,0.0,0.0,0.0,0.0,0.0,0.0,0.0,0.0,0.0,0.0,0.0,0.0,0.0,0.0,0.0,0.0,0.0,0.0,0.0,0.0,0.0,0.0,0.0,0.0,0.0,0.0,0.0,0.0,0.0,0.0,0.0,0.0,0.0,0.0,0.0,0.0,0.0,0.0,0.0,0.0,0.0,0.0,0.0,0.0,0.0,0.0,0.0,0.0,0.0,0.0,0.0,0.0,0.0,0.0,0.0,0.0,0.0,0.0,0.0,0.0,0.0,0.0,0.0,0.0,0.0,0.0,0.0,0.0,0.0,0.0,0.0,-0.9636,-0.9305,-0.8771,-0.833,-0.8309,-0.8316,-0.8275,-0.7443,-0.6834,-0.6695,0.0,0.0,0.0,0.0,0.0,0.0,0.0,0.0,0.0,0.0,0.0,0.0,0.0,0.0,0.0,0.0,0.0,0.0,0.0,0.0,0.0,0.0,0.0,0.0,0.0,0.0,0.0,0.0,0.0,0.0,0.0,0.0,0.0,0.0,0.0,0.0,0.0,0.0,0.0,0.0,0.0,0.0,0.0,0.0,0.0,0.0,0.0,0.0,0.0,0.0,0.0,0.0,0.0,0.0,0.0,0.0,0.0,0.0,0.0,0.0,0.0,0.0,0.0,0.0,0.0,0.0,0.0,0.0,0.0,0.0,0.0,0.0,0.0,0.0,0.0,0.0,0.0,0.0,0.0,0.0,0.0,0.0,0.0,0.0,0.0,0.0,0.0,0.0,0.0,0.0,0.0,0.0,0.0,0.0,0.0,0.0,0.0,0.0,0.0,0.0,0.0,0.0,-0.8702,-0.8736,-0.8524,-0.8227,-0.818,-0.818,-0.818,-0.7636,-0.7027,-0.6595,0.0,0.0,0.0,0.0,0.0,0.0,0.0,0.0,0.0,0.0,0.0,0.0,0.0,0.0,0.0,0.0,0.0,0.0,0.0,0.0,0.0,0.0,0.0,0.0,0.0,0.0,0.0,0.0,0.0,0.0,0.0,0.0,0.0,0.0,0.0,0.0,0.0,0.0,0.0,0.0,0.0,0.0,0.0,0.0,0.0,0.0,0.0,0.0,0.0,0.0,0.0,0.0,0.0,0.0,0.0,0.0,0.0,0.0,0.0,0.0,0.0,0.0,0.0,0.0,0.0,0.0,0.0,0.0,0.0,0.0,0.0,0.0,0.0,0.0,0.0,0.0,0.0,0.0,0.0,0.0,0.0,0.0,0.0,0.0,0.0,0.0,0.0,0.0,0.0,0.0,0.0,0.0,0.0,0.0,0.0,0.0,0.0,0.0,0.0,0.0,0.0,0.0,-0.804,-0.7918,-0.7702,-0.7991,-0.8038,-0.8038,-0.8038,-0.7595,-0.7066,-0.6377,0.0,0.0,0.0,0.0,0.0,0.0,0.0,0.0,0.0,0.0,0.0,0.0,0.0,0.0,0.0,0.0,0.0,0.0,0.0,0.0,0.0,0.0,0.0,0.0,0.0,0.0,0.0,0.0,0.0,0.0,0.0,0.0,0.0,0.0,0.0,0.0,0.0,0.0,0.0,0.0,0.0,0.0,0.0,0.0,0.0,0.0,0.0,0.0,0.0,0.0,0.0,0.0,0.0,0.0,0.0,0.0,0.0,0.0,0.0,0.0,-0.142,0.0,0.0,0.0,0.0,0.0,0.0,0.0,0.0,0.0,0.0,0.0,0.0,0.0,0.0,0.0,0.0,0.0,0.0,0.0,0.0,0.0,0.0,0.0,0.0,0.0,0.0,0.0,0.0,0.0,0.0,0.0,0.0,0.0,0.0,0.0,0.0,0.0,0.0,0.0,0.0,0.0,-0.7878,-0.7473,-0.7285,-0.797,-0.8038,-0.8038,-0.8038,-0.7597,-0.7183,-0.659,-0.6103,0.0,0.0,0.0,0.0,0.0,0.0,0.0,0.0,0.0,0.0,0.0,0.0,0.0,0.0,0.0,0.0,0.0,0.0,0.0,0.0,0.0,0.0,0.0,0.0,0.0,0.0,0.0,0.0,0.0,0.0,0.0,0.0,0.0,0.0,0.0,0.0,0.0,0.0,0.0,0.0,0.0,0.0,0.0,0.0,0.0,0.0,0.0,0.0,0.0,0.0,0.0,0.0,0.0,0.0,0.0,0.0,0.0,0.0,0.0,0.0,-0.1471,0.0,0.0,0.0,0.0,0.0,0.0,0.0,0.0,0.0,0.0,0.0,0.0,0.0,0.0,0.0,0.0,0.0,0.0,0.0,0.0,0.0,0.0,0.0,0.0,0.0,0.0,0.0,0.0,0.0,0.0,0.0,0.0,0.0,0.0,0.0,0.0,0.0,0.0,0.0,0.0,-0.727,-0.7195,-0.719,-0.7862,-0.7997,-0.8038,-0.8038,-0.7597,-0.7195,-0.6675,-0.6237,0.0,0.0,0.0,0.0,0.0,0.0,0.0,0.0,0.0,0.0,0.0,0.0,0.0,0.0,0.0,0.0,0.0,0.0,0.0,0.0,0.0,0.0,0.0,0.0,0.0,0.0,0.0,0.0,0.0,0.0,0.0,0.0,0.0,0.0,0.0,0.0,0.0,0.0,0.0,0.0,0.0,0.0,0.0,0.0,0.0,0.0,0.0,0.0,0.0,0.0,0.0,0.0,0.0,-0.6607,-0.6509,-0.6344,-0.635,-0.6222,-0.5976,-0.5365,-0.3522,-0.0731,0.0,0.0,0.0,0.0,0.0,0.0,0.0,0.0,0.0,0.0,0.0,0.0,0.0,0.0,0.0,0.0,0.0,0.0,0.0,0.0,0.0,0.0,0.0,0.0,0.0,-0.6071,-0.5928,0.0,0.0,0.0,0.0,0.0,0.0,0.0,0.0,0.0,0.0,0.0,0.0,-0.6606,-0.6957,-0.7217,-0.7746,-0.7923,-0.8011,-0.8038,-0.7691,-0.7204,-0.6726,-0.6478,-0.6125,0.0,0.0,0.0,0.0,0.0,0.0,0.0,0.0,0.0,0.0,0.0,0.0,0.0,0.0,0.0,0.0,0.0,0.0,0.0,0.0,0.0,0.0,0.0,0.0,0.0,0.0,0.0,0.0,0.0,0.0,0.0,0.0,-0.5284,-0.5148,0.0,0.0,0.0,0.0,0.0,0.0,0.0,0.0,0.0,0.0,0.0,0.0,0.0,0.0,-0.7021,-0.7177,-0.7122,-0.6871,-0.7129,-0.7048,-0.657,-0.6692,-0.6808,-0.6918,-0.6352,0.0,-0.3684,-0.1053,0.0,0.0,0.0,0.0,0.0,0.0,0.0,0.0,0.0,0.0,0.0,0.0,0.0,0.0,0.0,0.0,0.0,0.0,0.0,0.0,0.0,0.0,-0.6207,-0.6227,-0.6234,-0.6173,0.0,-0.5854,-0.5745,-0.5562,0.0,0.0,0.0,0.0,0.0,0.0,0.0,0.0,-0.6482,-0.6702,-0.7007,-0.7733,-0.7828,-0.7896,-0.8031,-0.7784,-0.7389,-0.6838,-0.6681,-0.6373,-0.5956,-0.5569,0.0,0.0,0.0,0.0,0.0,0.0,0.0,0.0,0.0,0.0,0.0,0.0,0.0,0.0,0.0,0.0,0.0,0.0,0.0,0.0,0.0,0.0,0.0,0.0,0.0,0.0,0.0,0.0,0.0,-0.5481,-0.5616,-0.5298,-0.5677,-0.5795,0.0,0.0,0.0,0.0,0.0,0.0,0.0,0.0,0.0,-0.6711,-0.6931,-0.698,-0.7131,-0.757,-0.7624,-0.7292,-0.763,-0.7637,-0.7426,-0.74,-0.7337,-0.7118,-0.7233,-0.6746,-0.5642,-0.1666,0.0,0.0,0.0,0.0,0.0,0.0,0.0,-0.314,-0.2542,0.0,0.0,0.0,0.0,0.0,0.0,0.0,0.0,0.0,0.0,0.0,0.0,0.0,0.0,-0.6634,-0.6695,-0.6715,-0.6566,-0.6417,-0.6186,0.0,-0.5739,-0.5732,-0.563,0.0,0.0,0.0,0.0,-0.5847,-0.6295,-0.6559,-0.6926,-0.7502,-0.7712,-0.7841,-0.8007,-0.7831,-0.7561,-0.6963,-0.6753,-0.647,-0.6179,-0.5806,-0.563,0.0,0.0,0.0,0.0,0.0,0.0,0.0,0.0,0.0,0.0,0.0,0.0,0.0,0.0,0.0,0.0,0.0,0.0,0.0,0.0,0.0,0.0,0.0,0.0,0.0,0.0,0.0,0.0,-0.5671,-0.5881,-0.5467,-0.6017,-0.6281,0.0,0.0,0.0,0.0,0.0,0.0,-0.682,-0.6713,-0.685,-0.7354,-0.7466,-0.7515,-0.7585,-0.8004,-0.8097,-0.7846,-0.8057,-0.8146,-0.8001,-0.7256,-0.638,-0.5354,-0.7208,-0.697,-0.4984,-0.1448,0.0,0.0,0.0,-0.1925,-0.4855,-0.5874,-0.6167,-0.5502,-0.2252,-0.2423,-0.3534,-0.0857,0.0,-0.5217,-0.4302,0.0,0.0,0.0,0.0,-0.6462,-0.6498,0.0,-0.6939,-0.6973,-0.7061,-0.7109,-0.7007,-0.6892,-0.6634,0.0,-0.6037,-0.6057,-0.5793,0.0,0.0,0.0,0.0,-0.584,-0.6213,-0.6519,-0.6858,-0.7272,-0.7543,-0.7726,-0.789,-0.7798,-0.7627,-0.7217,-0.6898,-0.655,-0.6356,-0.5989,-0.5752,-0.5644,0.0,0.0,0.0,0.0,0.0,0.0,0.0,0.0,0.0,0.0,0.0,0.0,0.0,0.0,0.0,0.0,0.0,0.0,0.0,0.0,0.0,0.0,0.0,0.0,0.0,0.0,0.0,0.0,0.0,-0.5616,-0.6356,0.0,0.0,0.0,0.0,-0.5482,-0.5958,-0.7224,-0.9478,-0.9076,-0.8894,-0.9057,-0.887,-0.8807,-0.8769,-0.8886,-0.8716,-0.8575,-0.8676,-0.8441,-0.7898,-0.5373,-0.2757,-0.0604,-0.578,-0.5105,-0.0292,-0.0094,0.0,0.0,0.0,-0.0167,-0.0828,-0.4788,-0.6324,-0.6083,-0.4717,-0.2543,-0.0237,-0.0083,-0.2476,-0.4743,-0.1288,-0.2697,0.0,0.0,-0.5389,-0.6708,-0.6661,-0.681,-0.6959,-0.7095,-0.7136,-0.7136,-0.7129,-0.7122,-0.6946,0.0,-0.6017,-0.5779,-0.563,0.0,-0.5583,-0.5589,-0.5827,-0.6071,-0.624,-0.6519,-0.6817,-0.7122,-0.7299,-0.7489,-0.7624,-0.765,-0.761,-0.7402,-0.6937,-0.6608,-0.6478,-0.6064,-0.58,-0.5793,-0.5515,0.0,0.0,0.0,0.0,0.0,0.0,0.0,0.0,0.0,0.0,0.0,0.0,0.0,0.0,0.0,0.0,0.0,0.0,0.0,0.0,0.0,0.0,0.0,0.0,0.0,0.0,0.0,0.0,-0.6451,-0.6987,0.0,-0.7061,-0.7094,-0.6926,-0.6545,-0.7026,-0.7952,-0.9191,-0.9362,-0.9529,-0.9588,-0.9468,-0.9462,-0.946,-0.9339,-0.915,-0.9106,-0.8899,-0.8771,-0.8395,-0.365,-0.0926,-0.0103,-0.2031,-0.1811,0.0,0.0,0.0,0.0,0.0,0.0,-0.0512,-0.4753,-0.6293,-0.5876,-0.267,-0.0918,0.0,0.0,-0.2678,-0.5263,-0.1242,-0.0938,-0.222,-0.3474,-0.5328,-0.6915,-0.6844,-0.6953,-0.7075,-0.7129,-0.7068,-0.7007,-0.7007,-0.6926,-0.6763,-0.6458,-0.6308,-0.6186,-0.6044,-0.5861,-0.5759,-0.5854,-0.5962,-0.6084,-0.624,-0.6519,-0.6763,-0.6932,-0.7204,-0.7458,-0.7451,-0.7353,-0.7249,-0.7215,-0.6759,-0.6512,-0.6534,-0.6077,-0.5847,-0.5949,-0.5657,-0.5971,0.0,0.0,0.0,0.0,0.0,0.0,0.0,0.0,0.0,0.0,0.0,0.0,0.0,0.0,0.0,0.0,0.0,0.0,0.0,0.0,0.0,0.0,0.0,0.0,0.0,0.0,-0.6966,-0.7068,-0.7563,-0.7834,-0.7685,-0.7719,-0.7719,-0.7608,-0.8018,-0.8577,-0.9219,-0.9532,-0.9745,-0.9852,-0.9792,-0.9724,-0.9773,-0.9648,-0.9545,-0.9346,-0.9137,-0.8981,-0.8771,-0.38,-0.0935,0.0,0.0,0.0,0.0,0.0,0.0,0.0,0.0,0.0,-0.0361,-0.3169,-0.4154,-0.3771,-0.098,0.0,0.0,0.0,-0.1895,-0.3668,-0.0885,0.0,-0.0504,-0.2908,-0.5352,-0.7177,-0.7034,-0.7109,-0.7204,-0.7149,-0.7034,-0.6939,-0.6993,-0.6844,-0.6668,-0.6566,-0.6505,-0.641,-0.6213,-0.601,-0.5928,-0.6084,-0.6064,-0.6105,-0.6308,-0.6546,-0.6722,-0.679,-0.7095,-0.7341,-0.7333,-0.7143,-0.7054,-0.7027,-0.6708,-0.657,-0.65,-0.6091,-0.5928,-0.603,-0.5786,-0.6136,-0.6982,0.0,0.0,0.0,0.0,0.0,0.0,0.0,0.0,0.0,0.0,0.0,0.0,0.0,0.0,0.0,0.0,0.0,0.0,0.0,0.0,0.0,0.0,0.0,-0.6331,-0.6919,-0.7387,-0.74,-0.8045,-0.8323,-0.7896,-0.8248,-0.8506,-0.8618,-0.8791,-0.9202,-0.9729,-0.9627,-0.9648,-0.9815,-0.9566,-0.956,-0.9822,-0.9822,-0.9673,-0.9388,-0.9381,-0.9171,-0.8784,-0.579,-0.284,0.0,0.0,0.0,0.0,0.0,0.0,0.0,0.0,0.0,0.0,0.0,0.0,0.0,0.0,0.0,0.0,0.0,0.0,0.0,0.0,0.0,-0.0447,-0.2793,-0.5461,-0.7483,-0.7238,-0.7258,-0.7333,-0.7183,-0.7034,-0.6966,-0.7102,-0.6905,-0.6702,-0.6695,-0.6573,-0.6383,-0.6084,-0.6037,-0.6091,-0.624,-0.6132,0.0,-0.643,-0.6607,-0.6702,-0.6715,-0.6973,-0.7149,-0.7149,-0.7143,-0.7069,-0.6876,-0.6784,-0.6631,-0.6507,-0.6187,-0.603,-0.603,-0.5888,-0.5888,-0.6037,0.0,0.0,0.0,0.0,0.0,0.0,0.0,0.0,0.0,0.0,0.0,0.0,0.0,0.0,0.0,0.0,0.0,0.0,0.0,0.0,0.0,-0.5641,-0.6971,-0.6878,-0.7265,-0.7692,-0.8126,-0.8452,-0.8682,-0.8777,-0.8893,-0.9015,-0.901,-0.9198,-0.9462,-0.9787,-0.9765,-0.9734,-0.9822,-0.9781,-0.9781,-0.9822,-0.9822,-0.9727,-0.9544,-0.9312,-0.9104,-0.8575,-0.5817,-0.2838,0.0,0.0,0.0,0.0,0.0,0.0,0.0,0.0,0.0,0.0,0.0,0.0,0.0,0.0,0.0,0.0,0.0,0.0,0.0,0.0,0.0,-0.0183,-0.0803,-0.4223,-0.7604,-0.7576,-0.7444,-0.736,-0.7319,-0.7115,-0.6939,-0.698,-0.6837,-0.6668,-0.6559,-0.6579,-0.6496,-0.6227,-0.62,-0.6213,-0.6254,-0.6227,0.0,-0.6471,-0.6627,-0.6783,-0.6993,-0.719,-0.7319,-0.7353,-0.7224,-0.698,-0.677,-0.6613,-0.651,-0.6345,-0.6112,-0.603,-0.603,-0.6098,-0.6152,0.0,0.0,0.0,0.0,0.0,0.0,0.0,0.0,0.0,0.0,0.0,0.0,0.0,0.0,0.0,0.0,0.0,0.0,0.0,0.0,0.0,0.0,-0.5972,-0.7541,-0.757,-0.7814,-0.8019,-0.8526,-0.8764,-0.896,-0.9137,-0.9211,-0.9313,-0.9345,-0.9446,-0.9646,-0.982,-0.9788,-0.9829,-0.9822,-0.9822,-0.9822,-0.9822,-0.9761,-0.9686,-0.9605,-0.9272,-0.9091,-0.8706,-0.6931,-0.3903,0.0,0.0,0.0,0.0,0.0,0.0,0.0,0.0,0.0,0.0,0.0,0.0,0.0,0.0,0.0,0.0,0.0,0.0,0.0,0.0,0.0,-0.0186,-0.1262,-0.3728,-0.6277,-0.7204,-0.7478,-0.7434,-0.7305,-0.7095,-0.6946,-0.7007,-0.6851,-0.6695,-0.6668,0.0,0.0,-0.6458,-0.6342,-0.6281,-0.6335,-0.627,-0.6369,0.0,-0.6654,-0.6773,-0.7034,-0.7183,-0.7285,-0.7312,-0.7204,0.0,0.0,0.0,-0.66,-0.6451,-0.6295,0.0,0.0,0.0,-0.6383,0.0,0.0,0.0,0.0,-0.7914,-0.8675,0.0,0.0,0.0,0.0,0.0,0.0,0.0,0.0,0.0,0.0,0.0,0.0,0.0,0.0,0.0,0.0,-0.6099,-0.8182,-0.835,-0.8334,-0.8481,-0.8743,-0.9008,-0.9184,-0.9205,-0.934,-0.949,-0.9625,-0.9533,-0.9466,-0.9444,0.0,0.0,0.0,0.0,-0.9822,-0.9822,-0.956,-0.9493,-0.9506,-0.9306,-0.9157,-0.8931,-0.8514,-0.5629,-0.0845,-0.0307,0.0,0.0,0.0,0.0,0.0,0.0,0.0,0.0,0.0,0.0,0.0,0.0,0.0,0.0,0.0,0.0,0.0,0.0,0.0,-0.0568,-0.3364,-0.4277,-0.4843,-0.6715,-0.7407,-0.7529,-0.7258,-0.7068,-0.6987,-0.7115,-0.6932,-0.6783,-0.682,-0.6733,-0.6639,-0.6619,-0.6485,-0.6349,-0.6311,-0.6331,0.0,-0.6695,-0.6753,-0.6853,-0.698,0.0,0.0,-0.719,-0.721,-0.7149,-0.6987,-0.6946,-0.6858,-0.6709,-0.6573,-0.6559,-0.6695,-0.6566,-0.6566,-0.6702,-0.6702,-0.6709,-0.6722,-0.7612,-0.8087,0.0,0.0,0.0,0.0,0.0,0.0,0.0,0.0,0.0,0.0,0.0,0.0,0.0,0.0,0.0,-0.0645,-0.5225,-0.8643,-0.8587,-0.8655,-0.8789,-0.8818,-0.8876,-0.9026,-0.9386,-0.9652,-0.9754,-0.9802,-0.9687,-0.8952,-0.7352,-0.8854,0.0,-0.9822,-0.9822,-0.9822,-0.9822,-0.956,-0.9546,-0.9526,0.0,0.0,-0.915,-0.8845,-0.7918,-0.6231,-0.1854,0.0,0.0,0.0,0.0,0.0,0.0,0.0,0.0,0.0,0.0,0.0,0.0,0.0,0.0,0.0,0.0,0.0,0.0,0.0,0.0,-0.5779,-0.704,-0.7012,-0.7677,-0.7753,-0.7584,-0.7522,-0.7299,-0.7109,-0.7136,-0.7095,-0.694,-0.6853,-0.6905,-0.6936,-0.6722,-0.6572,-0.6538,-0.6654,-0.6654,-0.6695,-0.6803,-0.6885,-0.6947,-0.7312,-0.7441,-0.7509,-0.7509,-0.7617,-0.757,-0.7305,-0.7061,-0.6858,-0.6709,-0.6675,-0.6668,-0.6702,-0.6668,-0.6668,-0.6702,-0.6702,-0.6763,-0.6878,-0.7793,-0.8212,0.0,0.0,0.0,0.0,0.0,0.0,0.0,0.0,0.0,0.0,0.0,0.0,0.0,0.0,0.0,0.0,-0.475,-0.8529,-0.8703,-0.8791,-0.8906,-0.901,-0.905,-0.9202,-0.9473,-0.9741,-0.9829,-0.9856,-0.8244,-0.6884,-0.577,-0.8378,-0.9747,-0.9842,-0.9761,-0.984,-0.984,-0.9731,-0.9614,-0.946,-0.9259,-0.9236,-0.9138,-0.8811,-0.8533,-0.8183,-0.5239,-0.2433,0.0,0.0,0.0,0.0,0.0,0.0,0.0,0.0,0.0,0.0,0.0,0.0,0.0,0.0,0.0,0.0,0.0,0.0,-0.0579,-0.3251,-0.5786,-0.7832,-0.7794,-0.7815,-0.7685,-0.7617,-0.7421,-0.7258,-0.7258,-0.7197,-0.7027,-0.696,-0.7034,-0.7128,-0.7128,-0.6973,-0.6786,-0.6722,-0.6853,-0.6922,-0.6878,-0.7041,-0.7217,-0.7387,-0.7522,-0.7597,-0.7597,-0.7665,-0.7645,-0.7495,-0.7278,-0.7115,-0.7041,-0.6892,-0.6851,-0.6919,-0.6919,-0.6959,-0.7034,-0.7115,-0.719,-0.7265,-0.7709,-0.7846,0.0,0.0,0.0,0.0,0.0,0.0,0.0,0.3393,0.1576,0.159,0.0708,0.0,0.0,0.0,0.0,0.0,-0.365,-0.6978,-0.8553,-0.8858,-0.8941,-0.9117,-0.9401,-0.9559,-0.9598,-0.9741,-0.9836,-0.9741,-0.6766,-0.4671,-0.3932,-0.7025,-0.913,-0.9815,-0.9806,-0.9717,-0.9564,-0.9645,-0.9544,-0.9361,-0.927,-0.9209,-0.9245,-0.8818,-0.8547,-0.8598,-0.8201,-0.4926,0.0,0.0,0.0,0.0,0.0,0.0,0.0,0.0,0.0,0.0,0.0,0.0,-0.0201,-0.1185,-0.0884,0.0,0.0,0.0,0.0,0.0,-0.3144,-0.6608,-0.7574,-0.7753,-0.7773,-0.7658,-0.7536,-0.7434,-0.7394,-0.7305,-0.7141,-0.7141,-0.7141,-0.7272,-0.7583,-0.7403,-0.7143,-0.6956,-0.7025,-0.7107,-0.7014,-0.7251,-0.7414,-0.7414,-0.755,-0.7651,-0.7685,-0.7685,-0.7672,-0.7645,-0.7522,-0.7448,-0.7414,-0.719,-0.7115,-0.7224,-0.7231,-0.7292,-0.7414,-0.7543,-0.7597,-0.7597,-0.7597,-0.7448,0.4623,0.2669,0.0634,0.0576,0.2695,0.4906,0.0,0.6251,0.7108,0.7066,0.33,0.0,0.0,0.0,0.0,0.0,-0.053,-0.2687,-0.7808,-0.862,-0.8736,-0.9117,-0.9523,-0.9683,-0.9473,-0.9734,-0.9842,-0.9774,-0.6775,-0.3687,-0.0738,-0.3687,-0.6724,-0.9673,-0.9758,-0.9544,-0.9046,-0.9003,-0.8948,-0.8991,-0.927,-0.9328,-0.9252,-0.8923,-0.8743,-0.8472,-0.8194,-0.4926,0.0,0.0,0.0,0.0,0.0,0.0,0.0,0.0,0.0,0.0,0.0,0.0,-0.0805,-0.5541,-0.3929,0.0,0.0,0.0,0.0,0.0,-0.0401,-0.2007,-0.6714,-0.8,-0.7966,-0.7733,-0.7712,-0.7651,-0.7468,-0.7396,-0.7356,-0.7356,-0.7356,-0.7456,-0.767,-0.7657,-0.7489,-0.7319,-0.7312,-0.7319,-0.7319,-0.7468,-0.7577,-0.7577,-0.7699,-0.7841,-0.7977,-0.7991,-0.7929,-0.7794,-0.7773,-0.7706,-0.7577,-0.7543,-0.7529,-0.755,-0.755,-0.7556,-0.7577,-0.759,-0.7597,-0.7597,-0.7597,-0.7509,0.4904,0.255,0.0391,0.2186,0.3745,0.5135,0.6165,0.6947,0.761,0.7934,0.6228,0.3694,0.0578,0.0,0.0,0.0,0.0,-0.0857,-0.3186,-0.6408,-0.8434,-0.8655,-0.8906,-0.9236,-0.9442,-0.953,-0.9591,-0.9765,-0.6717,-0.347,-0.012,-0.1317,-0.4416,-0.9655,-0.9785,-0.968,-0.9481,-0.9064,-0.8863,-0.8865,-0.9384,-0.9363,-0.9003,-0.894,-0.8749,-0.835,-0.816,-0.6748,-0.4422,-0.1306,0.0,0.0,0.0,0.0,0.0,0.0,0.0,0.0,0.0,0.0,-0.0403,-0.2595,-0.3894,-0.41,-0.0995,0.0,0.0,0.0,0.0,-0.0503,-0.2714,-0.5693,-0.795,-0.7936,-0.7855,-0.778,-0.7787,-0.7685,-0.7597,-0.7503,-0.7503,-0.7624,-0.7808,-0.7753,-0.7604,-0.7624,-0.7556,-0.7502,-0.7502,-0.7631,-0.7753,-0.7848,-0.7909,-0.797,-0.8031,-0.8038,-0.8011,-0.795,-0.7862,-0.7787,-0.7726,-0.7645,-0.7597,-0.7597,-0.7678,-0.7726,-0.7726,-0.7814,-0.7855,-0.7855,-0.7855,-0.7773,0.3777,0.2617,0.1794,0.4181,0.4858,0.5396,0.679,0.7119,0.7215,0.776,0.7942,0.682,0.2953,0.1009,0.0,0.0,-0.1264,-0.1911,-0.1188,-0.5222,-0.8256,-0.8394,-0.8448,-0.873,-0.9096,-0.9211,-0.9415,-0.962,-0.6773,-0.3503,-0.0118,0.0,-0.2928,-0.9388,-0.9609,-0.9624,-0.956,-0.9096,-0.8997,-0.915,-0.9462,-0.9349,-0.8911,-0.8845,-0.868,-0.8323,-0.8187,-0.8006,-0.7666,-0.382,-0.1307,0.0,0.0,0.0,0.0,0.0,0.0,0.0,0.0,0.0,0.0,0.0,-0.3632,-0.7226,-0.3425,-0.1209,0.0,0.0,0.0,0.0,0.0,-0.2914,-0.6147,-0.7659,-0.797,-0.7902,-0.8018,-0.7875,-0.7726,-0.7719,-0.7719,-0.7849,-0.7959,-0.7794,-0.7753,-0.7862,-0.7787,-0.7706,-0.7665,-0.7787,-0.7916,-0.8024,-0.8038,-0.8038,-0.8038,-0.8038,-0.8038,-0.8038,-0.7936,-0.7875,-0.7875,-0.7773,-0.7719,-0.7719,-0.7821,-0.7875,-0.7875,-0.7984,-0.8038,-0.8038,-0.8038,-0.7977,0.0132,0.2195,0.4556,0.5233,0.5834,0.6361,0.6942,0.714,0.7168,0.7576,0.7823,0.7949,0.7794,0.3497,0.0,0.0,-0.4318,-0.6813,-0.4239,-0.6282,-0.8143,-0.8465,-0.8364,-0.8343,0.0,-0.8777,-0.9028,-0.9332,-0.666,-0.3462,-0.0118,0.0,-0.2797,-0.8762,-0.9205,-0.9229,-0.8947,-0.8947,-0.9245,-0.9738,-0.9238,-0.8903,-0.8911,-0.8845,-0.8735,-0.8465,-0.833,-0.8194,-0.7972,-0.7779,-0.473,0.0,0.0,0.0,0.0,0.0,0.0,0.0,0.0,0.0,0.0,0.0,-0.3626,-0.7945,-0.7798,-0.4135,0.0,0.0,0.0,0.0,0.0,-0.0101,-0.1512,-0.6731,-0.8038,-0.8031,-0.8038,-0.8031,-0.8024,-0.8024,-0.8024,-0.8024,-0.8031,-0.8031,-0.8024,-0.8031,-0.8031,-0.797,-0.7821,-0.7936,-0.8031,-0.8038,-0.8038,-0.8038,-0.8038,-0.8038,-0.8038,-0.8038,-0.8038,-0.8031,-0.8031,-0.8031,-0.8024,-0.8024,-0.8031,-0.8031,-0.8031,-0.8038,-0.8038,-0.8038,-0.8038,-0.8038,-0.0677,0.2467,0.534,0.6324,0.6693,0.6909,0.7044,0.7126,0.7161,0.7425,0.6157,0.5725,0.7643,0.3626,-0.1124,-0.4751,-0.6825,-0.7725,-0.6785,-0.7389,-0.8071,-0.8119,-0.8153,0.0,0.0,0.0,0.0,-0.8771,-0.6221,-0.3296,-0.0112,0.0,-0.2697,-0.8732,-0.8957,-0.9028,-0.894,-0.8917,-0.9055,-0.9238,-0.896,-0.885,-0.889,-0.8696,-0.8639,-0.8577,-0.8221,-0.8092,-0.7952,-0.7979,-0.5842,-0.2511,-0.0706,0.0,0.0,0.0,0.0,0.0,0.0,-0.2322,-0.4746,-0.1204,-0.3623,-0.7308,-0.3817,-0.1408,0.0,0.0,0.0,0.0,0.0,0.0,-0.1308,-0.6753,-0.7959,-0.8038,-0.8038,-0.8038,-0.8038,-0.8038,-0.8038,-0.8038,-0.8038,-0.8038,-0.8038,-0.8038,-0.8038,-0.8018,-0.797,-0.8011,-0.8038,-0.8038,-0.8133,-0.8194,-0.8194,-0.8275,-0.8296,-0.8201,-0.8194,-0.8147,-0.8045,-0.8038,-0.8038,-0.8038,-0.8038,-0.8038,-0.8038,-0.8038,-0.8038,-0.8038,-0.8038,-0.8038,-0.097,0.2959,0.6203,0.69,0.7127,0.704,0.6977,0.6936,0.7021,0.7235,0.6007,0.4874,0.5138,0.2327,-0.1638,-0.6563,-0.7516,-0.774,-0.7826,-0.7852,-0.7852,-0.7959,-0.8045,-0.8038,0.0,0.0,0.0,-0.8347,-0.6108,-0.339,-0.0216,-0.098,-0.3403,-0.7227,-0.8399,-0.8863,-0.894,-0.8917,-0.8917,-0.894,-0.8769,-0.8859,-0.8852,-0.8594,-0.8452,-0.8501,-0.8208,-0.8092,-0.8038,-0.7972,-0.6448,-0.3714,-0.1006,0.0,0.0,0.0,0.0,0.0,0.0,-0.2221,-0.4851,-0.3316,-0.5144,-0.7,-0.1605,0.0,0.0,0.0,0.0,0.0,0.0,0.0,-0.1308,-0.6765,-0.7965,-0.8038,-0.8038,-0.8038,-0.8038,-0.8038,-0.8038,-0.8038,-0.8038,-0.8038,-0.8038,-0.8038,-0.8038,-0.8038,-0.8038,-0.8085,-0.8119,-0.8119,-0.8255,-0.8343,-0.8343,-0.8431,-0.8445,-0.835,-0.8343,-0.8282,-0.8126,-0.8119,-0.8099,-0.8038,-0.8038,-0.8038,-0.8038,-0.8038,-0.8038,-0.8038,-0.8038,-0.8038,-0.0998,0.3326,0.6709,0.6763,0.6708,0.6701,0.6688,0.6798,0.6857,0.7017,0.6942,0.5445,0.0825,-0.0075,-0.147,-0.5499,-0.6686,-0.7166,-0.7369,-0.753,-0.7726,0.0,0.0,0.0,0.0,0.0,0.0,-0.7962,0.0,-0.405,-0.0636,-0.3014,-0.4568,-0.4684,-0.743,-0.8843,-0.894,-0.8933,-0.8927,-0.8927,-0.8662,-0.8588,-0.8804,-0.8434,-0.8397,-0.848,-0.8364,-0.8174,-0.8038,-0.7965,-0.6542,-0.3917,-0.1105,0.0,0.0,0.0,0.0,0.0,0.0,0.0,-0.0807,-0.5952,-0.7811,-0.7012,-0.1606,0.0,0.0,0.0,0.0,0.0,0.0,0.0,-0.1312,-0.6765,-0.7965,-0.8045,-0.8052,-0.8058,-0.8058,-0.8058,-0.8058,-0.8052,-0.8038,-0.8038,-0.8038,-0.8038,-0.8038,-0.8045,-0.8052,-0.818,-0.8275,-0.8282,-0.8411,-0.8492,-0.8492,-0.8499,-0.8499,-0.8492,-0.8492,-0.8431,-0.8289,-0.8275,-0.8201,-0.8052,-0.8045,-0.8038,-0.8038,-0.8045,-0.8052,-0.8052,-0.8058,-0.8065,-0.1022,0.0922,0.185,0.1823,0.1823,0.2693,0.6219,0.6826,0.6792,0.7041,0.4815,0.2188,0.0329,-0.1254,-0.2781,-0.4366,-0.6153,0.0,-0.7771,-0.7831,0.0,-0.8031,0.0,-0.8038,-0.8038,-0.8038,0.0,0.0,-0.7604,-0.6957,-0.6044,-0.481,-0.5193,-0.7522,-0.8336,-0.8736,-0.894,-0.8941,-0.8879,-0.8655,-0.8508,-0.8428,-0.821,-0.8176,-0.809,-0.816,-0.8046,-0.8079,-0.8038,-0.7965,-0.7572,-0.6553,-0.181,0.0,0.0,0.0,0.0,0.0,0.0,0.0,-0.0201,-0.1609,-0.4738,-0.6977,-0.1603,0.0,0.0,0.0,0.0,0.0,0.0,0.0,-0.131,-0.6742,-0.8045,-0.8085,-0.8547,-0.848,-0.8392,-0.846,-0.8282,-0.8174,-0.8058,-0.8038,-0.8038,-0.8038,-0.8038,-0.8079,-0.8194,-0.8248,-0.8309,-0.8418,-0.856,-0.8655,-0.8655,-0.8757,-0.8771,-0.8662,-0.8655,-0.8587,-0.8431,-0.833,-0.8255,-0.8214,-0.8099,-0.8038,-0.8038,-0.8153,-0.8214,-0.8214,-0.8316,-0.837,-0.0994,0.0,0.0,0.0,0.0,0.0727,0.3373,0.5473,0.6378,0.4704,0.1356,-0.1379,-0.1885,-0.1847,-0.2408,-0.4563,-0.6465,-0.7665,-0.776,-0.7801,-0.7896,0.0,-0.8038,0.0,-0.8038,-0.8038,-0.8038,0.0,-0.7952,-0.8026,-0.809,-0.6769,-0.6774,-0.8629,-0.8689,-0.8756,-0.894,-0.89,-0.871,-0.8487,-0.8387,-0.828,-0.7956,-0.8024,-0.7965,-0.7958,0.0,-0.8038,-0.8038,-0.7952,-0.7965,-0.7572,-0.3416,-0.1006,0.0,0.0,0.0,0.0,0.0,0.0,-0.0201,-0.1406,-0.4626,-0.7472,-0.4418,-0.1908,0.0,0.0,0.0,0.0,0.0,0.0,-0.1312,-0.6765,-0.7965,-0.8106,-0.8667,-0.8654,-0.8689,-0.8591,-0.8418,-0.8336,-0.8248,-0.8235,-0.8214,-0.8147,-0.8194,-0.8262,-0.835,-0.8364,-0.8418,-0.8567,-0.8716,-0.8838,-0.8899,-0.8981,-0.8994,-0.8913,-0.8906,-0.8811,-0.8594,-0.8506,-0.8431,-0.8364,-0.8275,-0.8235,-0.8235,-0.8323,-0.8364,-0.8364,-0.8445,-0.8479,-0.1793,-0.045,0.0,0.0,0.0,0.0,0.0,0.2873,0.4518,0.0938,-0.2327,-0.4526,-0.452,-0.2408,-0.186,-0.5512,-0.708,-0.7748,-0.7493,-0.7543,-0.7733,-0.8004,-0.8038,-0.8038,-0.8038,-0.8038,-0.8038,-0.8038,-0.8038,-0.8113,-0.8275,-0.8411,-0.856,-0.8845,-0.8872,-0.8927,-0.8906,-0.8865,-0.8669,-0.8321,-0.8267,-0.8133,-0.8024,-0.7999,-0.8038,-0.8038,0.0,0.0,-0.8038,-0.8038,-0.7952,-0.7766,-0.5427,-0.2711,0.0,0.0,0.0,0.0,0.0,0.0,-0.0404,-0.2714,-0.5541,-0.7992,-0.7972,-0.4734,-0.0908,-0.0202,0.0,0.0,0.0,-0.0505,-0.2223,-0.6905,-0.8052,-0.8228,-0.8486,-0.8728,-0.8869,-0.8533,-0.8513,-0.8506,-0.8486,-0.8479,-0.8438,-0.8316,-0.8404,-0.8499,-0.854,-0.8526,-0.8581,-0.875,-0.8886,-0.9028,-0.9171,-0.9184,-0.9184,-0.9184,-0.9184,-0.9069,-0.8811,-0.8764,-0.8676,-0.8547,-0.8506,-0.8479,-0.8479,-0.8506,-0.8513,-0.8513,-0.8533,-0.854,-0.5913,-0.2995,0.0,0.0,0.0,0.0,0.0,-0.1272,-0.2672,-0.3418,-0.4053,-0.4524,-0.4475,-0.4247,-0.4614,-0.6259,-0.6626,-0.6971,-0.7611,-0.776,-0.7841,-0.8018,-0.8038,-0.8038,-0.8038,-0.8038,0.0,0.0,0.0,-0.8106,-0.8262,-0.8404,-0.8554,-0.871,-0.8859,-0.8879,-0.875,-0.8707,-0.857,-0.8343,-0.8167,-0.8079,-0.7979,-0.7952,-0.8038,-0.8038,0.0,0.0,-0.8038,-0.8038,-0.7952,-0.7972,-0.7472,-0.4325,0.0,0.0,0.0,0.0,0.0,0.0,-0.0101,-0.0504,-0.4038,-0.8012,-0.7959,-0.7353,-0.5651,-0.1211,0.0,0.0,0.0,-0.3338,-0.6805,-0.7772,-0.8431,-0.8798,-0.8852,-0.8872,-0.8845,-0.8696,-0.8669,-0.8628,-0.8506,-0.8479,-0.8472,-0.8452,-0.8465,-0.8574,-0.8825,-0.875,-0.8777,-0.9049,-0.9096,-0.9178,-0.9327,-0.934,-0.934,-0.934,-0.934,-0.932,-0.9266,-0.9028,-0.8886,-0.8859,-0.8608,-0.8479,-0.8479,-0.8608,-0.8669,-0.8676,-0.8798,-0.8859,-0.7752,-0.3741,0.0,0.0,0.0,0.0,0.0,-0.2305,-0.4534,-0.4487,-0.4482,-0.4477,-0.4477,-0.4602,-0.491,-0.5698,-0.5971,-0.6386,-0.7115,-0.7366,-0.7577,-0.7882,-0.7991,-0.8038,-0.8038,-0.8038,-0.8038,0.0,0.0,-0.8194,-0.8269,-0.8404,-0.8554,-0.8703,-0.8784,-0.8784,-0.871,-0.856,-0.8411,-0.8269,-0.8113,-0.8038,-0.8038,-0.8726,-0.9023,-0.9023,-0.9023,0.0,-0.9023,-0.8336,-0.8045,-0.7959,-0.7972,-0.5536,-0.1908,-0.0504,0.0,0.0,0.0,0.0,0.0,0.0,-0.1716,-0.434,-0.7141,-0.6037,-0.3327,-0.0706,0.0,0.0,0.0,-0.4167,-0.8501,-0.8421,-0.873,-0.8967,-0.9076,-0.9069,-0.9028,-0.8954,-0.894,-0.8893,-0.8743,-0.8784,-0.8777,-0.8621,-0.873,-0.8859,-0.8927,-0.894,-0.9028,-0.9245,-0.9273,-0.9334,-0.949,-0.9503,-0.9503,-0.9503,-0.9503,-0.9462,-0.9388,-0.9245,-0.9171,-0.9171,-0.9022,-0.8947,-0.8947,-0.9022,-0.9062,-0.9062,-0.9055,-0.9049,-0.9067,-0.4272,0.0,0.0,0.0,0.0,0.0,-0.1816,-0.3715,-0.4358,-0.4484,-0.447,-0.4519,-0.4509,-0.4637,-0.5018,-0.5338,-0.5844,-0.6546,-0.682,-0.7168,-0.7808,-0.7929,-0.8038,-0.8038,-0.8038,0.0,0.0,0.0,0.0,-0.8316,-0.8425,-0.8554,-0.8703,-0.8676,-0.8662,-0.8662,-0.8401,-0.826,-0.8221,-0.8099,-0.8137,-0.8428,-0.9509,-1.019,-1.0386,-1.0386,0.0,0.0,-0.9312,-0.8627,-0.8435,-0.8151,-0.6736,-0.4422,-0.1206,0.0,-0.0204,-0.1315,-0.101,0.0,0.0,-0.0819,-0.2523,-0.6736,-0.5022,-0.1512,-0.0303,0.0,0.0,0.0,-0.4428,-0.893,-0.8856,-0.8974,-0.9042,-0.9184,-0.9211,-0.9205,-0.9205,-0.9205,-0.9164,-0.9049,-0.913,-0.911,-0.8845,-0.9001,-0.9123,-0.9042,-0.913,-0.9273,-0.9456,-0.9449,-0.949,-0.9639,-0.9652,-0.9652,-0.9652,-0.9652,-0.9598,-0.9483,-0.9449,-0.9429,-0.9429,-0.9401,-0.9381,-0.9381,-0.9381,-0.9381,-0.9374,-0.9259,-0.9205,-1.1139,-0.5523,0.0,0.0,0.0,0.0,0.0,-0.0209,-0.1188,-0.3937,-0.447,-0.4519,-0.4519,-0.4477,-0.4626,-0.506,-0.5155,-0.5481,-0.6448,-0.6666,-0.6939,-0.7858,-0.7966,-0.8038,-0.8038,-0.8038,-0.8038,0.0,0.0,0.0,-0.8445,-0.8472,-0.8554,-0.8703,-0.8574,-0.8506,-0.8611,-0.8364,-0.8214,-0.8058,-0.8045,-0.8627,-0.9805,-0.9903,-1.0583,-1.1755,-1.1755,0.0,0.0,-1.156,-1.0877,-0.9698,-0.8499,-0.7826,-0.7054,-0.1908,0.0,-0.0728,-0.5606,-0.4041,0.0,0.0,-0.3308,-0.7321,-0.7859,-0.7633,-0.6226,-0.1411,0.0,0.0,0.0,-0.4477,-0.893,-0.887,-0.9096,-0.9205,-0.9171,-0.9266,-0.9361,-0.9361,-0.9361,-0.9354,-0.934,-0.9354,-0.9306,-0.9137,-0.9137,-0.9198,-0.9327,-0.9354,-0.9469,-0.9747,-0.9666,-0.9646,-0.9788,-0.9802,-0.9802,-0.9802,-0.9802,-0.9795,-0.9781,-0.9659,-0.9591,-0.9591,-0.9449,-0.9381,-0.9381,-0.9381,-0.9381,-0.9381,-0.9367,-0.9361,-1.0788,-0.669,-0.1992,-0.0388,0.0,-0.0491,-0.2261,-0.2686,-0.3058,-0.4251,-0.4525,-0.4519,-0.4519,-0.4519,-0.4573,-0.4701,-0.4728,-0.4945,-0.5576,-0.5855,-0.6311,-0.7204,-0.7554,-0.7746,0.0,0.0,-0.8038,0.0,0.0,0.0,-0.8208,-0.8303,-0.8384,-0.8445,-0.8577,-0.8549,-0.846,-0.8303,-0.8194,-0.8038,-0.8038,-0.8726,-1.0002,-1.0779,-1.1843,-1.3102,-1.3102,0.0,0.0,-1.2231,-1.156,-1.0974,-0.969,-0.8704,-0.772,-0.5627,-0.3843,-0.2757,-0.4838,-0.5213,-0.4863,-0.4782,-0.6292,-0.7979,-0.8052,-0.8038,-0.693,-0.1512,0.0,0.0,0.0,-0.3134,-0.6725,-0.8523,-0.9083,-0.9205,-0.9273,-0.9408,-0.9517,-0.9517,-0.9517,-0.949,-0.9395,-0.9456,-0.9469,-0.9313,-0.9367,-0.9449,-0.951,-0.9517,-0.9632,-0.9924,-0.9829,-0.9795,-0.9944,-0.9876,-0.9903,-1.0086,-1.0012,-0.9998,-1.0093,-1.0046,-1.0012,-1.0012,-0.9863,-0.9781,-0.9781,-0.9693,-0.9646,-0.9646,-0.9557,-0.9517,-1.026,-0.7816,-0.4469,-0.1611,-0.0785,-0.1186,-0.3327,-0.4197,-0.4493,-0.4504,-0.4525,-0.4519,-0.4519,-0.4519,-0.4519,-0.4519,-0.4519,-0.4606,-0.4882,-0.5166,-0.5709,-0.6498,0.0,-0.7255,0.0,-0.7963,0.0,0.0,0.0,0.0,0.0,-0.8187,-0.8269,-0.8378,-0.8426,-0.8433,-0.8378,-0.8228,-0.8147,-0.8038,-0.8038,-0.8924,-1.0583,-1.1463,-1.2813,-1.4459,0.0,0.0,0.0,-1.3403,-1.2813,-1.2328,-1.1072,-0.9788,-0.8704,-0.8158,-0.677,-0.5179,-0.5146,-0.6395,-0.7998,-0.7979,-0.8038,-0.8038,-0.8038,-0.8038,-0.7235,-0.3419,-0.1229,0.0,0.0,-0.2244,-0.5402,-0.8357,-0.9171,-0.932,-0.9422,-0.9564,-0.9673,-0.9673,-0.9673,-0.9639,-0.953,-0.9598,-0.9625,-0.9469,-0.9544,-0.9612,-0.9612,-0.9646,-0.9768,-1.0025,-0.9992,-0.9998,-1.0107,-1.0019,-1.0046,-1.027,-1.0175,-1.0168,-1.0276,-1.0283,-1.0283,-1.0283,-1.0175,-1.0114,-1.0114,-1.0012,-0.993,-0.989,-0.9836,-0.9781,-1.0119,-0.8759,-0.6891,-0.3864,-0.2637,-0.2161,-0.2197,-0.3392,-0.448,-0.4497,-0.4519,-0.4519,-0.4519,-0.4519,-0.4519,-0.4519,-0.4519,-0.4509,-0.4508,-0.4701,-0.5121,0.0,0.0,-0.6623,-0.7333,-0.778,0.0,0.0,0.0,0.0,0.0,-0.8187,-0.8378,-0.848,-0.8227,-0.8119,-0.848,-0.8119,-0.8038,-0.8038,-0.8038,-0.941,-1.1853,-1.1853,-1.3307,0.0,0.0,0.0,0.0,-1.5737,-1.5045,-1.3776,-1.2425,-1.1375,-1.0323,-0.8663,-0.7965,-0.7968,-0.7925,-0.7968,-0.7954,-0.8046,-0.8038,-0.8038,-0.8038,-0.8038,-0.7939,-0.7939,-0.4126,0.0,0.0,-0.2383,-0.5639,-0.8641,-0.9538,-0.9605,-0.9605,-0.972,-0.9822,-0.9822,-0.9822,-0.9815,-0.9815,-0.9815,-0.9768,-0.9632,-0.9605,-0.9612,-0.9612,-0.9734,-0.9876,-1.0032,-1.0181,-1.0276,-1.0276,-1.0276,-1.0276,-1.0283,-1.0276,-1.0276,-1.0283,-1.0283,-1.0283,-1.0283,-1.0276,-1.0276,-1.0276,-1.0276,-1.0195,-1.0053,-1.0202,-1.0188,-0.958,-0.8267,-0.6722,-0.5737,-0.4919,-0.4281,-0.3847,-0.4131,-0.4475,-0.4477,-0.4519,-0.4519,-0.4519,-0.4519,-0.4519,-0.4519,-0.4519,-0.4531,-0.4676,-0.4866,0.0,-0.6112,-0.6766,-0.7275,0.0,0.0,0.0,0.0,0.0,0.0,0.0,-0.8085,-0.8113,-0.8113,-0.8275,-0.8275,-0.8113,-0.8065,-0.8038,-0.8038,-0.8038,-0.8924,-1.0583,-1.1463,0.0,0.0,0.0,0.0,0.0,-1.5832,-1.5534,-1.5045,-1.3776,-1.2533,-1.1277,-0.9912,-0.877,-0.8026,-0.8187,-0.8099,-0.7978,-0.7972,-0.8316,-0.8574,-0.8167,-0.8038,-0.7985,-0.8007,-0.4102,0.0,0.0,-0.2493,-0.5737,-0.8876,-0.9662,-0.9612,-0.9612,-0.972,-0.9822,-0.9822,-0.9822,-0.9822,-0.9822,-0.9822,-0.9802,-0.9761,-0.9754,-0.9754,-0.9754,-0.9795,-0.9917,-1.0181,-1.0249,-1.0317,-1.0419,-1.0337,-1.0365,-1.0568,-1.048,-1.0473,-1.0575,-1.0582,-1.0582,-1.0582,-1.048,-1.0426,-1.0426,-1.0331,-1.0256,-1.0209,-1.1507,-1.1373,-0.9029,-0.8144,-0.7139,-0.6752,-0.5928,-0.5199,-0.4722,-0.4578,-0.4525,-0.4519,-0.4519,-0.4519,-0.4519,-0.4519,-0.4519,-0.4519,-0.4519,-0.4573,-0.4667,-0.5006,0.0,-0.6091,0.0,0.0,0.0,0.0,0.0,0.0,0.0,0.0,0.0,-0.8038,-0.8038,-0.8038,-0.8234,-0.824,-0.8038,-0.8038,-0.8011,-0.7957,-0.8499,-0.9371,-1.0669,-1.1996,0.0,0.0,0.0,0.0,0.0,-1.5832,-1.5832,-1.5629,-1.4364,-1.3318,-1.2165,-0.9976,-0.8704,-0.8065,-0.8235,-0.8392,-0.8385,-0.8357,-0.8554,-0.8676,-0.8187,-0.8079,-0.8079,-0.8243,-0.5335,-0.2235,-0.1916,-0.4246,-0.7243,-0.9265,-0.978,-0.9686,-0.9686,-0.9761,-0.9822,-0.9822,-0.9822,-0.9822,-0.9822,-0.9822,-0.9822,-0.9822,-0.9822,-0.9822,-0.9822,-0.9869,-1.0005,-1.0256,-1.0331,-1.0419,-1.0568,-1.0493,-1.0527,-1.0711,-1.0629,-1.0622,-1.0717,-1.0717,-1.0717,-1.0717,-1.0629,-1.0575,-1.0575,-1.0432,-1.0392,-1.0446,-1.1524,-1.1749,0.0,-0.8249,-0.7846,-0.6983,-0.5937,-0.5047,-0.5032,-0.4775,0.0,-0.4567,-0.4567,-0.4512,-0.4567,-0.4567,-0.4512,-0.4512,-0.4519,-0.4518,-0.4507,-0.5054,0.0,0.0,-0.6485,0.0,0.0,0.0,0.0,0.0,0.0,0.0,0.0,-0.8237,-0.8237,-0.8031,-0.8137,-0.8137,-0.8038,-0.8038,-0.797,-0.7828,-0.9331,-1.0581,-1.1637,-1.3194,0.0,0.0,0.0,0.0,0.0,-1.5832,-1.5832,-1.5629,-1.4459,-1.363,-1.2694,-0.9453,-0.8195,-0.8085,-0.8385,-0.8696,-0.8897,-0.8872,-0.8743,-0.8465,-0.8187,-0.8208,-0.8343,-0.8584,-0.7408,-0.6051,-0.5471,-0.7513,-0.9758,-0.9765,-0.9854,-0.9822,-0.9822,-0.9822,-0.9822,-0.9822,-0.9822,-0.9822,-0.9822,-0.9829,-0.9836,-0.9822,-0.9842,-0.9842,-0.9822,-0.9958,-1.0107,-1.0263,-1.0399,-1.0541,-1.0704,-1.0717,-1.0717,-1.0717,-1.0717,-1.0724,-1.0738,-1.0738,-1.0744,-1.0751,-1.0751,-1.0751,-1.0751,-1.0609,-1.0609,-1.0731,-1.0719,-1.1545,-0.8732,0.0,-0.7037,-0.7369,-0.6067,-0.4918,0.0,-0.5305,-0.4729,-0.5412,-0.5015,-0.4729,-0.5412,-0.4976,-0.4477,-0.4477,-0.4498,-0.4558,-0.477,-0.5346,0.0,-0.6492,-0.6805,0.0,0.0,0.0,0.0,0.0,0.0,0.0,0.0,-1.0663,-1.0066,-0.8076,-0.9304,-0.9327,-0.8038,-0.8038,-0.8024,-0.7984,-0.9395,-1.0173,-1.0511,-1.278,0.0,0.0,0.0,0.0,-1.5832,-1.5832,-1.5832,-1.5737,-1.5439,-1.4088,-1.2155,-1.1249,-0.978,-0.8241,-0.8397,-0.8533,-0.8676,-0.8872,-0.8893,-0.8818,-0.875,-0.875,-0.8743,-0.8673,-0.8406,-0.8326,-0.8597,-0.9109,-0.9621,-0.9737,-0.9854,-0.9822,-0.9822,-0.9822,-0.9822,-0.9822,-0.9822,-0.9822,-0.9822,-0.9917,-0.9958,-0.9836,-1.0019,-1.0086,-0.9849,-0.9958,-1.0107,-1.0263,-1.031,-1.0432,-1.0697,-1.0717,-1.0717,-1.0717,-1.0717,-1.0772,-1.0894,-1.0894,-1.0948,-1.1056,-1.1056,-1.1056,-1.1056,-1.1023,-1.0968,-1.0894,-1.2178,-1.2219,-0.8368,-0.745,-0.6804,-0.7503,-0.6342,-0.5249,-0.6362,-0.6009,-0.5612,-0.6126,-0.6009,-0.5846,-0.5919,-0.5647,-0.5265,-0.4601,-0.4622,-0.4847,-0.5232,0.0,-0.6138,-0.6449,-0.6739,0.0,0.0,0.0,0.0,0.0,0.0,0.0,0.0,-1.346,-1.2705,-1.0458,-1.0502,-0.9723,-0.8038,-0.8038,-0.797,-0.7841,-0.9339,-1.0192,-1.0791,-1.2907,-1.4268,0.0,0.0,0.0,-1.5832,-1.5832,-1.5832,-1.5832,-1.5832,-1.4567,-1.2716,-1.2145,-1.0654,-0.8996,-0.8612,-0.8615,-0.8791,-0.8906,-0.894,-0.892,-0.8832,-0.8866,-0.8893,-0.8669,-0.8825,-0.9096,-0.9488,-0.9641,-0.9544,-0.9813,-0.9774,-0.9822,-0.9822,-0.9822,-0.9822,-0.9822,-0.9822,-0.9842,-0.9917,-0.9992,-1.0019,-0.9937,-1.0066,-1.0114,-0.9944,-0.9998,-1.0134,-1.0351,-1.0378,-1.0473,-1.0704,-1.0717,-1.0717,-1.0717,-1.0785,-1.086,-1.0948,-1.1009,-1.1084,-1.1158,-1.1165,-1.1165,-1.1165,-1.1165,-1.1124,-1.1043,-1.2926,-1.3503,-0.7889,-0.7182,-0.675,-0.7396,-0.6524,-0.5764,-0.6588,-0.6858,-0.6923,-0.6912,-0.7322,-0.7333,-0.6327,-0.6337,-0.6064,-0.4842,-0.4862,-0.5118,-0.5588,-0.5935,-0.6186,-0.6321,0.0,0.0,0.0,0.0,0.0,0.0,0.0,0.0,0.0,-1.5708,-1.4921,-1.3232,-1.1843,-1.0164,-0.8294,-0.8124,-0.7902,-0.7638,-0.9453,-1.077,-1.161,-1.3377,-1.4758,0.0,0.0,0.0,-1.5832,-1.5832,-1.5832,-1.5832,-1.5832,-1.5045,-1.3776,-1.2619,-1.1306,-0.9938,-0.8863,-0.8723,-0.894,-0.894,-0.894,-0.8906,-0.8737,-0.8804,-0.8913,-0.8784,-0.8927,-0.9164,-0.9334,-0.9476,-0.9618,-0.9781,-0.9822,-0.9822,-0.9822,-0.9822,-0.9822,-0.9822,-0.9822,-0.9869,-1.0025,-1.0066,-1.0086,-1.0086,-1.01,-1.0107,-1.0086,-1.0086,-1.0188,-1.0466,-1.0493,-1.0555,-1.0711,-1.0744,-1.0758,-1.0758,-1.0873,-1.0968,-1.1016,-1.1151,-1.1233,-1.1233,-1.1253,-1.1253,-1.1233,-1.128,-1.1399,-1.1746,-1.3271,-1.4792,-0.7889,-0.7182,-0.6642,-0.675,-0.6317,-0.6154,-0.7289,-0.8032,-0.8444,-0.8434,-0.854,-0.8275,-0.7331,-0.6514,-0.5855,0.0,0.0,-0.5281,0.0,0.0,-0.5699,0.0,0.0,0.0,0.0,0.0,0.0,0.0,0.0,0.0,0.0,-1.5153,-1.4727,-1.3379,-1.3085,-1.1847,-0.9565,-0.8561,-0.795,-0.778,-1.0378,-1.1616,-1.1754,-1.4325,-1.5629,0.0,0.0,-1.5832,-1.5832,-1.5832,-1.5832,-1.5832,-1.5832,-1.5045,-1.3872,-1.368,-1.2173,-1.0207,-0.919,-0.8899,-0.894,-0.894,-0.894,-0.8933,-0.8899,-0.8913,-0.8933,-0.8913,-0.894,-0.9035,-0.9313,-0.9401,-0.9483,-0.9754,-0.9822,-0.9822,-0.9822,-0.9822,-0.9822,-0.9822,-0.9822,-0.9869,-1.0025,-1.0154,-1.0243,-1.0243,-1.0344,-1.0378,-1.0263,-1.0243,-1.031,-1.0473,-1.0493,-1.0555,-1.0711,-1.0839,-1.0914,-1.0914,-1.0934,-1.1063,-1.1314,-1.147,-1.1552,-1.1552,-1.1667,-1.1667,-1.1552,-1.1803,-1.2583,-1.3694,-1.4131,-1.5126,-0.7227,-0.6488,-0.5901,-0.5428,-0.5479,-0.5928,-0.6912,-0.7365,-0.7591,-0.7622,-0.761,-0.7343,-0.6514,0.0,-0.5734,-0.5502,0.0,-0.5521,-0.551,-0.5591,0.0,0.0,0.0,0.0,0.0,0.0,0.0,0.0,0.0,0.0,0.0,0.0,-1.4878,-1.4318,-1.3561,-1.2629,-1.1517,-1.0301,-0.9362,-0.8721,-0.9931,-1.1313,-1.2841,-1.4002,-1.4999,-1.5832,0.0,-1.5832,-1.5832,-1.5832,-1.5832,-1.5832,-1.5832,-1.5439,-1.4771,-1.3442,-1.1922,-1.0272,-0.9162,-0.8872,-0.894,-0.894,-0.894,-0.894,-0.894,-0.894,-0.8954,-0.9035,-0.9001,-0.9008,-0.9306,-0.9381,-0.9456,-0.9747,-0.9822,-0.9842,-0.9924,-0.9944,-0.9944,-0.9944,-0.9944,-0.9992,-1.0148,-1.0161,-1.0209,-1.0371,-1.0385,-1.0385,-1.0392,-1.0392,-1.0453,-1.0602,-1.0616,-1.0643,-1.0717,-1.086,-1.1016,-1.1179,-1.1267,-1.1402,-1.1619,-1.1775,-1.1857,-1.1857,-1.1925,-1.1925,-1.1857,-1.1993,-1.2388,-1.3176,-1.5158,-1.6404,-0.6607,-0.592,-0.5235,-0.4418,-0.4831,-0.5664,-0.6265,-0.6549,-0.6658,-0.6658,-0.6658,-0.642,0.0,-0.553,0.0,-0.5356,-0.5488,-0.57,0.0,0.0,0.0,0.0,0.0,0.0,0.0,0.0,0.0,0.0,0.0,0.0,0.0,0.0,-1.4856,-1.4856,-1.3848,-1.3195,-1.2925,-1.1956,-1.0869,-0.9819,-1.0057,-1.1333,-1.3516,-1.3656,-1.449,-1.5725,-1.5725,-1.5765,-1.5832,-1.5832,-1.5832,-1.5832,-1.5832,-1.5832,-1.5478,-1.3073,-1.1595,-1.0672,-0.9183,-0.8811,-0.894,-0.894,-0.894,-0.894,-0.894,-0.894,-0.896,-0.9076,-0.9049,-0.9055,-0.9361,-0.9408,-0.9456,-0.9747,-0.9822,-0.9863,-1.0019,-1.0053,-1.0053,-1.0053,-1.0046,-1.01,-1.0256,-1.0181,-1.0202,-1.05,-1.0426,-1.0385,-1.0527,-1.0514,-1.0548,-1.0704,-1.0717,-1.0751,-1.0819,-1.0934,-1.1138,-1.147,-1.1606,-1.1735,-1.1877,-1.1999,-1.206,-1.206,-1.2094,-1.2094,-1.206,-1.2128,-1.2428,-1.2791,-1.5611,-1.7325,-0.6616,-0.5765,-0.4973,-0.4369,-0.4831,-0.5589,-0.5823,-0.6379,-0.6879,-0.6879,0.0,0.0,0.0,-0.5088,-0.4836,-0.5101,-0.5358,-0.5739,0.0,0.0,0.0,0.0,0.0,0.0,0.0,0.0,0.0,0.0,0.0,0.0,0.0,0.0,0.0,-1.4549,-1.4462,-1.3911,-1.2833,-1.2412,-1.1717,-1.0701,-1.2089,-1.2811,-1.2868,-1.4308,-1.506,-1.5431,-1.5431,-1.5578,-1.5832,-1.5832,-1.5832,-1.5832,-1.5832,-1.5832,-1.5478,-1.3073,-1.2213,-1.1916,-0.9503,-0.8811,-0.894,-0.894,-0.894,-0.894,-0.894,-0.894,-0.894,-0.8954,-0.9042,-0.9205,-0.9517,-0.949,-0.9456,-0.9747,-0.9822,-0.9863,-1.0019,-1.0046,-1.0053,-1.0046,-1.0046,-1.01,-1.0256,-1.027,-1.0365,-1.0656,-1.0575,-1.0534,-1.0683,-1.0582,-1.0548,-1.0704,-1.0717,-1.0833,-1.1111,-1.1138,-1.1335,-1.1769,-1.1809,-1.1884,-1.204,-1.2054,-1.206,-1.206,-1.2203,-1.2203,-1.206,-1.2338,-1.3224,-1.4695,-1.5151,-1.7192,-0.5686,-0.5081,-0.4452,-0.4168,-0.4801,0.0,0.0,-0.6151,-0.6321,-0.6319,-0.6011,0.0,0.0,0.0,-0.5031,-0.5251,-0.4572,0.0,0.0,0.0,0.0,0.0,0.0,0.0,0.0,0.0,0.0,0.0,0.0,0.0,0.0,0.0,0.0,-1.3707,-1.3881,-1.3631,-1.3023,-1.3264,-1.3087,-1.2517,-1.2596,-1.3097,-1.4155,-1.4533,-1.495,-1.5391,-1.5391,-1.5565,-1.5832,-1.5832,-1.5832,-1.5832,-1.5832,-1.5832,-1.5573,-1.397,-1.3021,-1.2122,-1.0559,-0.9457,-0.894,-0.894,-0.894,-0.894,-0.894,-0.894,-0.8954,-0.9049,-0.911,-0.9205,-0.9415,-0.9496,-0.9571,-0.9774,-0.989,-0.9978,-1.0039,-1.0127,-1.0195,-1.0195,-1.0114,-1.0127,-1.0371,-1.0256,-1.027,-1.0663,-1.0588,-1.0548,-1.0704,-1.067,-1.0656,-1.0711,-1.0717,-1.0839,-1.1138,-1.1165,-1.1355,-1.1803,-1.1925,-1.2047,-1.2196,-1.2291,-1.2332,-1.2332,-1.2393,-1.2393,-1.2338,-1.2447,-1.2748,-1.3384,-1.4541,-1.6628,-0.5101,-0.4569,-0.4097,-0.4036,-0.4717,0.0,-0.6301,-0.6248,-0.5992,-0.5864,-0.5417,-0.4971,-0.4877,0.0,0.0,0.0,0.0,0.0,0.0,0.0,0.0,0.0,0.0,0.0,0.0,0.0,0.0,0.0,0.0,0.0,0.0,0.0,0.0,0.0,-1.34,-1.3414,-1.3213,-1.3614,-1.3748,-1.3559,-1.2983,-1.3408,-1.4683,-1.4469,-1.471,-1.5257,-1.5257,-1.5471,-1.5832,-1.5832,-1.5832,-1.5832,-1.5832,-1.5832,-1.5655,-1.4473,-1.3357,-1.2216,-1.1011,-0.9838,-0.894,-0.894,-0.894,-0.894,-0.894,-0.894,-0.896,-0.9055,-0.915,-0.9252,-0.9354,-0.9496,-0.9646,-0.9788,-0.9903,-1.0005,-1.01,-1.0209,-1.0297,-1.0337,-1.0263,-1.0256,-1.046,-1.0324,-1.031,-1.067,-1.0629,-1.0602,-1.0704,-1.0717,-1.0717,-1.0717,-1.0717,-1.0839,-1.1138,-1.1165,-1.1355,-1.1803,-1.1979,-1.2128,-1.2284,-1.2427,-1.2501,-1.2501,-1.2501,-1.2528,-1.2576,-1.2576,-1.2596,-1.2644,-1.4523,-1.6662,-0.5003,-0.44,-0.3894,-0.3982,-0.4641,-0.5695,-0.7148,-0.6703,-0.5916,-0.5494,-0.5128,-0.4864,-0.4809,-0.4809,0.0,0.0,0.0,0.0,0.0,0.0,0.0,0.0,0.0,0.0,0.0,0.0,0.0,0.0,0.0,0.0,0.0,0.0,0.0,0.0,-1.32,-1.32,-1.32,-1.3213,-1.336,-1.3559,-1.3641,-1.3801,-1.4082,-1.4095,-1.4402,-1.4963,-1.4963,-1.5297,-1.5832,-1.5832,-1.5832,-1.5832,-1.5832,-1.5832,-1.5629,-1.4364,-1.3314,-1.2196,-1.0854,-0.9739,-0.894,-0.894,-0.894,-0.894,-0.894,-0.894,-0.894,-0.894,-0.915,-0.9381,-0.9381,-0.9496,-0.9646,-0.9788,-0.9822,-0.991,-1.0215,-1.0283,-1.0324,-1.0466,-1.0487,-1.0487,-1.0493,-1.0493,-1.0548,-1.0697,-1.0717,-1.0717,-1.0717,-1.0717,-1.0717,-1.0717,-1.0717,-1.0839,-1.1138,-1.1165,-1.1355,-1.1803,-1.1972,-1.2128,-1.2284,-1.2427,-1.2508,-1.2508,-1.2508,-1.2583,-1.2732,-1.2732,-1.2813,-1.3123,-1.5162,-1.7362,-0.4274,-0.3946,-0.3744,-0.4045,-0.4428,-0.5093,-0.6298,-0.6284,0.0,0.0,-0.5128,-0.4952,-0.5004,0.0,0.0,0.0,0.0,0.0,0.0,0.0,0.0,0.0,0.0,0.0,0.0,0.0,0.0,0.0,0.0,0.0,0.0,0.0,0.0,0.0,-1.1682,-1.2004,-1.2572,-1.2999,-1.3146,-1.3013,-1.344,-1.3801,-1.4095,-1.4295,-1.4482,-1.4669,-1.5084,-1.5364,-1.5538,-1.5752,-1.5832,-1.5832,-1.5832,-1.5832,-1.5737,-1.5343,-1.4704,-1.3722,-1.2299,-1.1212,-1.0241,-0.9265,-0.894,-0.894,-0.894,-0.894,-0.894,-0.894,-0.915,-0.9381,-0.9381,-0.9571,-0.9768,-0.9808,-0.9985,-1.0141,-1.012,-1.0283,-1.0439,-1.048,-1.0412,-1.0412,-1.0616,-1.0561,-1.0548,-1.0697,-1.0717,-1.0717,-1.0717,-1.0717,-1.0717,-1.0717,-1.0717,-1.0839,-1.1138,-1.1165,-1.1314,-1.166,-1.1918,-1.2176,-1.2427,-1.2583,-1.2712,-1.282,-1.2827,-1.2847,-1.2895,-1.2895,-1.2915,-1.3123,-1.5162,-1.7435,-0.324,-0.3039,-0.3229,-0.3916,-0.4354,-0.4784,-0.5509,-0.6034,0.0,0.0,-0.5474,-0.5128,-0.523,-0.4089,0.0,0.0,0.0,0.0,0.0,0.0,0.0,0.0,0.0,0.0,0.0,0.0,0.0,0.0,0.0,0.0,0.0,0.0,0.0,0.0,-1.087,-1.139,-1.2305,-1.2665,-1.2812,-1.2835,-1.324,-1.3561,-1.3748,-1.4162,-1.4416,-1.4549,-1.5137,-1.5458,-1.5578,-1.5752,-1.5832,-1.5832,-1.5832,-1.5832,-1.5832,-1.5832,-1.513,-1.4205,-1.3496,-1.2211,-1.0799,-1.0006,-0.9375,-0.894,-0.894,-0.894,-0.894,-0.894,-0.915,-0.9381,-0.9381,-0.9598,-0.9822,-0.9822,-1.0012,-1.0181,-1.0148,-1.0324,-1.0507,-1.0568,-1.0514,-1.0514,-1.069,-1.0643,-1.0616,-1.0704,-1.0717,-1.0717,-1.0717,-1.0717,-1.0717,-1.0717,-1.0772,-1.0907,-1.1145,-1.1219,-1.1382,-1.1687,-1.1932,-1.2223,-1.2576,-1.2678,-1.28,-1.2956,-1.2963,-1.299,-1.3044,-1.3044,-1.3078,-1.3132,-1.5369,-1.7654,-0.2307,-0.2176,-0.2659,-0.368,-0.4375,-0.4866,-0.5026,-0.5955,-0.6764,-0.658,0.0,-0.5359,-0.5153,-0.4866,0.0,0.0,0.0,0.0,0.0,0.0,0.0,0.0,0.0,0.0,0.0,0.0,0.0,0.0,0.0,0.0,0.0,0.0,0.0,-1.0372,-1.0479,-1.1046,-1.2265,-1.2291,-1.2438,0.0,-1.3026,-1.3173,-1.3186,-1.3841,-1.4282,-1.4589,-1.5097,-1.5498,-1.5792,-1.5792,-1.5805,-1.5832,-1.5832,-1.5832,-1.5832,-1.5832,-1.5126,-1.4307,-1.443,-1.2936,-1.0864,-1.0941,-1.0021,-0.894,-0.894,-0.894,-0.894,-0.894,-0.915,-0.9381,-0.9381,-0.9598,-0.9822,-0.9822,-0.9951,-1.0107,-1.0249,-1.0399,-1.0555,-1.0697,-1.0717,-1.0717,-1.0717,-1.0717,-1.0717,-1.0717,-1.0717,-1.0717,-1.0717,-1.0717,-1.0717,-1.0717,-1.086,-1.1009,-1.1151,-1.1314,-1.1531,-1.1816,-1.1986,-1.2277,-1.2712,-1.2745,-1.2827,-1.2996,-1.3003,-1.3071,-1.3214,-1.3214,-1.3288,-1.3424,-1.5719,-1.7837,-0.3124,-0.3605,-0.4066,-0.4335,-0.5117,-0.5916,-0.6042,-0.6291,-0.626,-0.5476,-0.5367,-0.497,-0.3528,0.0,0.0,0.0,0.0,0.0,0.0,0.0,0.0,0.0,0.0,0.0,0.0,0.0,0.0,0.0,0.0,0.0,0.0,0.0,0.0,-0.8978,-0.9299,-1.0225,-1.1957,-1.2184,-1.2331,0.0,-1.2705,-1.2929,-1.2879,-1.3948,-1.4589,-1.487,-1.475,-1.5003,-1.5484,-1.5484,-1.5618,-1.5832,-1.5832,-1.5832,-1.5832,-1.5832,-1.5813,-1.5673,-1.4529,-1.3427,-1.2018,-0.9968,-0.9154,-0.894,-0.894,-0.894,-0.894,-0.894,-0.915,-0.9381,-0.9381,-0.9598,-0.9822,-0.9822,-1.0032,-1.0243,-1.0276,-1.0487,-1.0683,-1.0711,-1.0717,-1.0717,-1.0717,-1.0717,-1.0717,-1.0717,-1.0717,-1.0717,-1.0717,-1.0717,-1.0717,-1.0717,-1.086,-1.1009,-1.1151,-1.1416,-1.1647,-1.1823,-1.2088,-1.2386,-1.2718,-1.2847,-1.3037,-1.3302,-1.3308,-1.3376,-1.3532,-1.3532,-1.3546,-1.358,-1.5861,-1.8181,-0.2068,-0.2623,-0.3583,-0.4314,-0.4982,-0.5493,-0.567,-0.5709,-0.554,-0.497,-0.5006,-0.4908,-0.4153,0.0,0.0,0.0,0.0,0.0,0.0,0.0,0.0,0.0,0.0,0.0,0.0,0.0,0.0,0.0,0.0,0.0,0.0,-0.5589,-0.651,-0.8462,-0.8643,-0.9808,-1.1864,-1.2024,-1.2171,-1.2305,-1.2599,-1.2893,-1.32,-1.3814,-1.4335,-1.4736,-1.4589,-1.4856,-1.5391,-1.5391,-1.5565,-1.5832,-1.5832,-1.5832,-1.5832,-1.5832,-1.5925,-1.5976,-1.5329,-1.4036,-1.2339,-1.1089,-0.9838,-0.8832,-0.8832,-0.8879,-0.894,-0.894,-0.9103,-0.9286,-0.9361,-0.9551,-0.9754,-0.9897,-1.0114,-1.0283,-1.0283,-1.0514,-1.0717,-1.0717,-1.0717,-1.0717,-1.0717,-1.0717,-1.0717,-1.0717,-1.0717,-1.0717,-1.0717,-1.0717,-1.0717,-1.0717,-1.0921,-1.1084,-1.1158,-1.1504,-1.1782,-1.1932,-1.2223,-1.2528,-1.2827,-1.2983,-1.3166,-1.3397,-1.3471,-1.3553,-1.3627,-1.3695,-1.3729,-1.3729,-1.499,-1.7323,-0.0689,-0.0877,-0.2248,-0.4074,-0.4564,-0.4728,-0.485,-0.4877,-0.4843,-0.4759,-0.4618,-0.4661,0.0,0.0,0.0,0.0,0.0,0.0,0.0,0.0,0.0,0.0,0.0,0.0,0.0,0.0,0.0,0.0,0.0,0.0,-0.5432,-0.5425,-0.6273,-0.8297,-0.8405,-0.9514,-1.1784,-1.1837,-1.1984,-1.2225,-1.2478,-1.2906,-1.3494,-1.3547,-1.3895,-1.4442,-1.4442,-1.4776,-1.5324,-1.5271,-1.5471,-1.5832,-1.5778,-1.5792,-1.5832,-1.5832,-1.5832,-1.5872,-1.6112,-1.4433,-1.2204,-1.2526,-1.0775,-0.8716,-0.8743,-0.8838,-0.894,-0.894,-0.9062,-0.9218,-0.9347,-0.951,-0.9707,-0.9951,-1.0148,-1.029,-1.031,-1.0527,-1.0717,-1.0717,-1.0717,-1.0717,-1.0717,-1.0717,-1.0717,-1.0717,-1.0717,-1.0717,-1.0717,-1.0717,-1.0731,-1.0758,-1.1002,-1.1172,-1.1199,-1.1613,-1.1925,-1.2054,-1.2366,-1.2664,-1.2949,-1.3125,-1.3281,-1.3437,-1.3566,-1.3641,-1.3668,-1.381,-1.3878,-1.3878,-1.3905,-1.6275,-0.0782,-0.0143,-0.0981,-0.3776,-0.4498,-0.4584,-0.4721,-0.4721,-0.468,0.0,-0.3702,0.0,0.0,0.0,0.0,0.0,0.0,0.0,0.0,0.0,0.0,0.0,0.0,0.0,0.0,0.0,0.0,0.0,0.0,0.0,-0.5425,-0.5425,-0.6218,-0.8007,-0.8256,-0.9366,-1.1476,-1.1744,-1.1891,-1.1931,-1.1971,-1.2291,-1.2879,-1.3146,-1.3587,-1.4148,-1.4148,-1.4482,-1.5003,-1.475,-1.511,-1.5805,-1.5551,-1.5605,-1.5832,-1.5832,-1.5832,-1.5832,-1.5872,-1.4279,-1.2204,-1.2434,-1.0783,-0.8737,-0.8866,-0.892,-0.894,-0.894,-0.9137,-0.9354,-0.9374,-0.9585,-0.9802,-0.9842,-1.0073,-1.0317,-1.0439,-1.0602,-1.0717,-1.0717,-1.0717,-1.0717,-1.0717,-1.0717,-1.0717,-1.0717,-1.0717,-1.0717,-1.0717,-1.0717,-1.0772,-1.0907,-1.1063,-1.1219,-1.1348,-1.1775,-1.204,-1.206,-1.2461,-1.2779,-1.2956,-1.3227,-1.3444,-1.3593,-1.362,-1.3688,-1.381,-1.3966,-1.4041,-1.4041,-1.4177,-1.6578,-0.0341,-0.0483,-0.1338,-0.283,-0.3796,-0.434,-0.4388,-0.4511,-0.4594,-0.4518,-0.4101,0.0,0.0,0.0,0.0,0.0,0.0,0.0,0.0,0.0,0.0,0.0,0.0,0.0,0.0,0.0,0.0,0.0,0.0,-0.5196,-0.5418,-0.5425,-0.621,-0.7957,-0.8123,-0.9141,-1.1182,-1.1316,-1.1543,-1.1864,-1.1864,-1.2244,-1.2835,-1.3066,-1.344,-1.3841,-1.4015,-1.4322,-1.4723,-1.475,-1.5084,-1.5591,-1.5618,-1.5712,-1.5832,-1.5832,-1.5832,-1.5832,-1.5832,-1.4148,-1.2023,-1.2244,-1.0621,-0.8608,-0.8764,-0.8872,-0.894,-0.894,-0.9089,-0.9273,-0.9361,-0.9544,-0.9741,-0.991,-1.012,-1.0317,-1.046,-1.0609,-1.0717,-1.0717,-1.0717,-1.0717,-1.0717,-1.0717,-1.0717,-1.0717,-1.0717,-1.0751,-1.0839,-1.0846,-1.0907,-1.105,-1.1199,-1.1355,-1.1504,-1.185,-1.2135,-1.2298,-1.2657,-1.2922,-1.3071,-1.337,-1.3559,-1.3627,-1.379,-1.3905,-1.3973,-1.4122,-1.4197,-1.4204,-1.4272,-1.5996,0.0,-0.1214,-0.249,-0.2552,-0.3406,-0.4194,-0.4206,0.0,-0.4462,0.0,0.0,0.0,0.0,0.0,0.0,0.0,0.0,0.0,0.0,0.0,0.0,0.0,0.0,0.0,0.0,0.0,0.0,0.0,0.0,-0.5162,-0.5418,-0.5425,-0.6079,-0.7632,-0.7697,-0.8657,-1.0652,-1.0863,-1.1289,-1.1864,-1.1797,-1.2064,-1.2639,-1.3039,-1.3333,-1.3547,-1.3921,-1.4255,-1.4536,-1.4763,-1.507,-1.5418,-1.5631,-1.5765,-1.5832,-1.5832,-1.5832,-1.5832,-1.5832,-1.428,-1.237,-1.2302,-1.0764,-0.887,-0.8755,-0.8791,-0.8893,-0.8927,-0.9069,-0.9239,-0.9354,-0.9523,-0.972,-0.9937,-1.0141,-1.0331,-1.0514,-1.0636,-1.0717,-1.0717,-1.0717,-1.0717,-1.0717,-1.0717,-1.0717,-1.0717,-1.0717,-1.0758,-1.0873,-1.0921,-1.1002,-1.1145,-1.1335,-1.1511,-1.166,-1.1979,-1.2271,-1.2488,-1.2827,-1.3078,-1.3227,-1.3519,-1.3702,-1.3743,-1.4,-1.4109,-1.4075,-1.4224,-1.4299,-1.4299,-1.4299,-1.5513,0.0,-0.2148,-0.4228,-0.3688,-0.3855,-0.4174,0.0,0.0,-0.4263,-0.447,0.0,0.0,0.0,0.0,0.0,0.0,0.0,0.0,0.0,0.0,0.0,0.0,0.0,0.0,0.0,0.0,0.0,0.0,0.0,-0.506,-0.5411,-0.5425,-0.5815,-0.6719,-0.6785,-0.7739,-0.9722,-1.0586,-1.1289,-1.1864,-1.1583,-1.1757,-1.2345,-1.2933,-1.3213,-1.3267,-1.3841,-1.4255,-1.4522,-1.4536,-1.4883,-1.5391,-1.5418,-1.5591,-1.5832,-1.5832,-1.5832,-1.5832,-1.5832,-1.4949,-1.363,-1.2589,-1.1271,-0.9941,-0.8934,-0.8716,-0.875,-0.8899,-0.9144,-0.9367,-0.9381,-0.9591,-0.9815,-0.9829,-1.0059,-1.0358,-1.0643,-1.0717,-1.0717,-1.0717,-1.0717,-1.0717,-1.0717,-1.0717,-1.0717,-1.0717,-1.0717,-1.0724,-1.0731,-1.086,-1.1002,-1.1145,-1.143,-1.1667,-1.1809,-1.2223,-1.2488,-1.2501,-1.2915,-1.3227,-1.3383,-1.3675,-1.3899,-1.4048,-1.4204,-1.4217,-1.4075,-1.4224,-1.4299,-1.4299,-1.4299,-1.5513,0.0403,-0.0776,-0.2027,-0.3739,-0.3982,-0.389,-0.4129,-0.4307,-0.4307,-0.4009,0.0,0.0,0.0,0.0,0.0,0.0,0.0,0.0,0.0,0.0,0.0,0.0,0.0,0.0,0.0,0.0,0.0,0.0,0.0,0.0,-0.5418,-0.5425,-0.5815,-0.6654,-0.6719,-0.7606,-0.9409,-1.0316,-1.1009,-1.1583,-1.1476,-1.173,-1.2318,-1.2732,-1.3026,-1.3227,-1.3627,-1.3975,-1.4269,-1.4643,-1.4923,-1.515,-1.5524,-1.5738,-1.5832,-1.5832,-1.5832,-1.5832,-1.5832,-1.4949,-1.3727,-1.2589,-1.1262,-1.0026,-0.9041,-0.871,-0.8764,-0.9008,-0.9225,-0.9401,-0.9503,-0.9673,-0.9869,-1.0066,-1.0202,-1.0365,-1.0656,-1.0717,-1.0717,-1.0717,-1.0717,-1.0717,-1.0717,-1.0717,-1.0717,-1.0717,-1.0717,-1.0792,-1.0982,-1.105,-1.1219,-1.1552,-1.1687,-1.1857,-1.2108,-1.2359,-1.2589,-1.2786,-1.3125,-1.339,-1.3539,-1.3831,-1.4014,-1.4068,-1.4224,-1.4272,-1.4217,-1.4272,-1.4299,-1.4299,-1.4299,-1.4822,0.1666,0.0637,-0.0469,-0.2498,-0.3459,-0.3703,-0.2947,-0.2893,-0.2863,-0.249,0.0,0.0,0.0,0.0,0.0,0.0,0.0,0.0,0.0,0.0,0.0,0.0,0.0,0.0,0.0,0.0,0.0,0.0,0.0,0.0,-0.5418,-0.5425,-0.569,-0.6268,-0.685,-0.7567,-0.842,-0.993,-1.0811,-1.0942,-1.1391,-1.1824,-1.2318,-1.2688,-1.2919,-1.3227,-1.352,-1.3814,-1.4122,-1.4616,-1.487,-1.5017,-1.5498,-1.5738,-1.5832,-1.5832,-1.5832,-1.5832,-1.5832,-1.5248,-1.4292,-1.2604,-1.1506,-1.0628,-0.9075,-0.8669,-0.8771,-0.9069,-0.9266,-0.9415,-0.9571,-0.9713,-0.9897,-1.0209,-1.0283,-1.0365,-1.0656,-1.0717,-1.0717,-1.0717,-1.0717,-1.0717,-1.0717,-1.0717,-1.0738,-1.0785,-1.0799,-1.0887,-1.1131,-1.1206,-1.1375,-1.1721,-1.185,-1.2033,-1.2338,-1.2542,-1.2766,-1.3017,-1.3315,-1.3546,-1.3695,-1.3939,-1.4095,-1.415,-1.4251,-1.4299,-1.4299,-1.4299,-1.4299,-1.4299,-1.4299,-1.4299,0.0,0.0,0.0,0.0,-0.214,-0.3529,-0.0664,0.0046,0.0136,0.0094,0.0,0.0,0.0,0.0,0.0,0.0,0.0,0.0,0.0,0.0,0.0,0.0,0.0,0.0,0.0,0.0,0.0,0.0,0.0,-0.5203,-0.5418,-0.5425,-0.5425,-0.5425,-0.7055,-0.7567,-0.6728,-0.9514,-1.0661,-1.0113,-1.1307,-1.2024,-1.2318,-1.2674,-1.2906,-1.3213,-1.3507,-1.3801,-1.4095,-1.4402,-1.471,-1.499,-1.5297,-1.5578,-1.5832,-1.5832,-1.5832,-1.5832,-1.5832,-1.5832,-1.5343,-1.2727,-1.1993,-1.1711,-0.9257,-0.8587,-0.8771,-0.9076,-0.9266,-0.9415,-0.9578,-0.972,-0.9903,-1.0209,-1.0283,-1.0365,-1.0656,-1.0717,-1.0717,-1.0717,-1.0717,-1.0724,-1.0724,-1.0724,-1.0778,-1.0928,-1.0955,-1.1009,-1.1151,-1.1301,-1.145,-1.1613,-1.1891,-1.2182,-1.2481,-1.2786,-1.3024,-1.3166,-1.3464,-1.3695,-1.3838,-1.3994,-1.415,-1.4299,-1.4299,-1.4299,-1.4299,-1.4299,-1.4299,-1.4299,-1.4299,-1.4299,0.3879,0.0,0.0,0.0,0.0,0.0,0.0195,0.1489,0.282,0.0,0.0,0.0,0.0,0.0,0.0,0.0,0.0,0.0,0.0,0.0,0.0,0.0,0.0,0.0,0.0,0.0,0.0,0.0,-0.5237,-0.5318,-0.5425,-0.5425,-0.5425,-0.5425,-0.6465,-0.6986,-0.6857,-0.8997,-1.014,-1.0301,-1.1397,-1.2024,-1.2305,-1.2385,-1.2585,-1.2893,-1.32,-1.3494,-1.3814,-1.4549,-1.4897,-1.5017,-1.5511,-1.5752,-1.5832,-1.5832,-1.5832,-1.5832,-1.5832,-1.5832,-1.5343,-1.2727,-1.1993,-1.1711,-0.9257,-0.8587,-0.8798,-0.9205,-0.9347,-0.9442,-0.9693,-0.9876,-1.0032,-1.0236,-1.0358,-1.0487,-1.0677,-1.0717,-1.0717,-1.0717,-1.0717,-1.0758,-1.0867,-1.0887,-1.0934,-1.1084,-1.1104,-1.1158,-1.1307,-1.1362,-1.1531,-1.1898,-1.2013,-1.2223,-1.263,-1.2847,-1.3024,-1.3166,-1.3553,-1.3797,-1.3838,-1.4095,-1.4258,-1.4299,-1.4299,-1.4299,-1.4299,-1.4299,-1.4299,-1.4299,-1.4299,-1.4299,0.0,0.0,0.0,0.0,0.0,0.0,0.1844,0.2718,0.3823,0.0,0.0,0.0,0.0,0.0,0.0,0.0,0.0,0.0,0.0,0.0,0.0,0.0,0.0,0.0,0.0,0.0,0.0,-0.5209,-0.5311,-0.5425,-0.5425,-0.5425,-0.5425,-0.5425,-0.6273,-0.663,-0.6333,-0.8758,-0.9974,-0.9902,-1.1323,-1.2144,-1.2305,-1.2305,-1.2532,-1.2946,-1.3133,-1.344,-1.3881,-1.4509,-1.4856,-1.499,-1.5337,-1.5618,-1.5832,-1.5832,-1.5832,-1.5832,-1.5832,-1.5832,-1.5369,-1.2834,-1.2134,-1.1836,-0.9362,-0.873,-0.896,-0.9286,-0.9469,-0.9605,-0.9774,-0.9937,-1.0086,-1.0243,-1.0385,-1.0534,-1.0683,-1.0717,-1.0717,-1.0717,-1.0772,-1.0846,-1.0934,-1.0995,-1.109,-1.124,-1.126,-1.1314,-1.1463,-1.1538,-1.1701,-1.2026,-1.2121,-1.2338,-1.2786,-1.2908,-1.3051,-1.3254,-1.3627,-1.3838,-1.3838,-1.4136,-1.4299,-1.4299,-1.4299,-1.4299,-1.4299,-1.4299,-1.4299,-1.4299,-1.4299,-1.4299,0.0,0.0,0.0,0.0,0.0,0.0,0.3623,0.3619,0.3719,0.395,0.0,0.0,0.0,0.0,0.0,0.0,0.0,0.0,0.0,0.0,0.0,0.0,0.0,0.0,0.0,-0.4314,-0.5185,-0.5411,-0.5425,-0.5425,-0.5425,-0.5446,-0.5452,-0.5452,-0.6339,-0.6433,-0.5637,-0.8684,-0.9841,-0.9144,-1.1279,-1.2305,-1.2305,-1.2331,-1.2652,-1.316,-1.3068,-1.3466,-1.4068,-1.4203,-1.4608,-1.4963,-1.5003,-1.5351,-1.5832,-1.5832,-1.5832,-1.5832,-1.5832,-1.5832,-1.5382,-1.2985,-1.2324,-1.1925,-0.9404,-0.892,-0.9191,-0.9361,-0.9605,-0.9822,-0.9822,-0.9944,-1.0107,-1.0249,-1.0399,-1.0555,-1.069,-1.0717,-1.0717,-1.0717,-1.0846,-1.0955,-1.0968,-1.109,-1.124,-1.1396,-1.1416,-1.147,-1.1619,-1.1755,-1.1898,-1.2067,-1.221,-1.2474,-1.2922,-1.2963,-1.3085,-1.3383,-1.3675,-1.3838,-1.3838,-1.4136,-1.4299,-1.4299,-1.4299,-1.4299,-1.4299,-1.4299,-1.4299,-1.4299,-1.4299,-1.4299,0.0,0.0,0.0,0.0,0.0,0.0,0.3887,0.3873,0.3955,0.0,0.2628,0.0,0.0,0.0,0.0,0.0,0.0,0.0,0.0,0.0,0.0,0.0,0.0,0.0,0.0,-0.5149,-0.5332,-0.5418,-0.5432,-0.5425,-0.5425,-0.5481,-0.5549,-0.5549,-0.5825,-0.5957,-0.5942,-0.8189,-0.9343,-0.9306,-1.1304,-1.2305,-1.2305,-1.2545,-1.2795,-1.2866,-1.2345,-1.277,-1.3678,-1.3324,-1.3875,-1.499,-1.5217,-1.5524,-1.5832,-1.5832,-1.5832,-1.5832,-1.5832,-1.5832,-1.5382,-1.2985,-1.2324,-1.1925,-0.9404,-0.892,-0.9211,-0.949,-0.9686,-0.9822,-0.9822,-1.0025,-1.0243,-1.0276,-1.048,-1.0683,-1.0711,-1.0717,-1.0717,-1.0717,-1.0846,-1.0989,-1.1097,-1.1246,-1.1396,-1.1552,-1.1572,-1.1626,-1.1769,-1.1816,-1.1938,-1.2216,-1.2271,-1.2474,-1.2922,-1.2963,-1.3085,-1.3383,-1.3675,-1.3838,-1.3838,-1.4136,-1.4299,-1.4299,-1.4299,-1.4299,-1.4299,-1.4299,-1.4299,-1.4299,-1.4299,-1.4299,0.0,0.0,0.0,0.3246,0.0,0.0,0.0,0.3853,0.3894,0.3839,0.2191,0.0046,0.0,0.0,0.0,0.0,0.0,0.0,0.0,0.0,0.0,0.0,0.0,0.0,0.0,-0.4081,-0.4427,-0.5345,-0.5432,-0.5459,-0.5474,-0.5549,-0.5623,-0.5691,-0.584,-0.5949,-0.603,-0.7667,-0.8515,-0.8542,-1.0571,-1.1614,-1.1765,-1.2451,-1.266,-1.2301,-1.2004,-1.1945,-1.2181,-1.2644,-1.2963,-1.3326,-1.4812,-1.5578,-1.5832,-1.5832,-1.5832,-1.5832,-1.5832,-1.5343,-1.4533,-1.2825,-1.1904,-1.1114,-0.9291,-0.9028,-0.9327,-0.9632,-0.9768,-0.9822,-0.9822,-1.0046,-1.0283,-1.0283,-1.0507,-1.0717,-1.0717,-1.0717,-1.0744,-1.0819,-1.0955,-1.1077,-1.1151,-1.1355,-1.1531,-1.1606,-1.1619,-1.1647,-1.1714,-1.1857,-1.2006,-1.2162,-1.2311,-1.2549,-1.2929,-1.2963,-1.3085,-1.3383,-1.3675,-1.3838,-1.3838,-1.4136,-1.4299,-1.4299,-1.4299,-1.4299,-1.4299,-1.4299,-1.4299,-1.4299,-1.4299,-1.4299,0.0,0.0,0.0,0.0,0.0,0.4167,0.0,0.0,0.0,0.3627,0.1869,0.0,0.0,0.0,0.0,0.0,0.0,0.0,0.0,0.0,0.0,0.0,0.0,0.0,0.0,-0.2989,-0.3829,-0.5279,-0.5432,-0.542,-0.5542,-0.5603,-0.5684,-0.58,-0.5976,-0.6071,-0.6071,-0.7255,-0.7778,-0.7855,-0.9862,-1.0983,-1.1194,-1.2157,-1.2368,-1.1863,-1.1494,-1.1059,-1.0696,-1.1706,-1.1855,-1.1641,-1.4364,-1.5378,-1.5439,-1.5724,-1.5832,-1.5832,-1.5832,-1.4987,-1.3734,-1.278,-1.134,-1.0036,-0.9265,-0.9211,-0.9483,-0.9747,-0.9822,-0.9829,-0.9856,-1.0073,-1.029,-1.0317,-1.0527,-1.0717,-1.0717,-1.0717,-1.0765,-1.0921,-1.1063,-1.1172,-1.1199,-1.1436,-1.1626,-1.1653,-1.166,-1.1681,-1.1742,-1.1959,-1.2115,-1.2142,-1.2359,-1.263,-1.2935,-1.2963,-1.3085,-1.3383,-1.3675,-1.3838,-1.3838,-1.4136,-1.4299,-1.4299,-1.4299,-1.4299,-1.4299,-1.4299,-1.4299,-1.4299,-1.4299,-1.4299,0.0,0.0,0.0,0.0,0.4341,0.0,0.0,0.0,0.4055,0.3692,0.0,0.0,0.0,0.0,0.0,0.0,0.0,0.0,0.0,0.0,0.0,0.0,0.0,0.0,0.0,0.0,-0.5153,-0.5359,-0.5372,-0.5379,-0.5452,-0.5637,-0.5786,-0.58,-0.6084,-0.6234,-0.6234,-0.7318,-0.7778,-0.7863,-1.011,-1.1159,-1.1206,-1.1733,-1.1969,-1.1792,-0.9981,-0.9832,-1.0751,-1.014,-1.0529,-1.1754,-1.4334,-1.4897,-1.4268,-1.5343,-1.5832,-1.5832,-1.5832,-1.5017,-1.3876,-1.273,-1.0988,-0.9328,-0.9394,-0.9449,-0.9618,-0.9774,-0.9822,-0.9849,-0.9985,-1.0148,-1.031,-1.0439,-1.0595,-1.0717,-1.0717,-1.0717,-1.0765,-1.0921,-1.1063,-1.1206,-1.1341,-1.1504,-1.166,-1.1789,-1.1809,-1.1904,-1.2176,-1.2244,-1.2311,-1.244,-1.2481,-1.263,-1.2935,-1.2963,-1.3085,-1.3383,-1.3675,-1.3838,-1.3838,-1.4136,-1.4299,-1.4299,-1.4299,-1.4299,-1.4299,-1.4299,-1.4299,-1.4299,-1.4299,-1.4299,0.0,0.0,0.0,0.0,0.0,0.0,0.4199,0.0,0.4128,0.0,0.0,0.0,0.0,0.0,0.0,0.0,-0.3528,0.0,0.0,0.0,0.0,0.0,0.0,0.0,0.0,0.0,0.0,0.0,0.0,-0.5406,-0.5488,-0.5691,-0.584,-0.5928,-0.6146,-0.6338,-0.6338,-0.6718,-0.6994,-0.7085,-0.8636,-0.9518,-0.9764,-1.0522,-1.0605,-1.0142,-0.9314,-0.891,-0.8828,-0.9478,-0.9543,-0.9627,-1.2321,-1.3599,-1.4064,-1.5343,-1.5832,-1.575,-1.5042,-1.3981,-1.2725,-1.0819,-0.9719,-0.9178,-0.9334,-0.949,-0.9639,-0.9781,-0.9883,-0.9971,-1.0032,-1.0222,-1.0419,-1.048,-1.0609,-1.0717,-1.0717,-1.0792,-1.0894,-1.1043,-1.1192,-1.1341,-1.1497,-1.1579,-1.1667,-1.1809,-1.183,-1.1911,-1.2128,-1.2237,-1.2311,-1.2372,-1.2454,-1.263,-1.2935,-1.2963,-1.3125,-1.3512,-1.381,-1.4014,-1.4102,-1.4231,-1.4299,-1.4299,-1.4299,-1.4299,-1.4299,-1.4299,-1.4299,-1.4299,-1.4299,-1.4299,0.4519,0.0,0.0,0.0,0.0,0.0,0.0,0.0,0.0,0.0,0.0,0.0,0.0,0.0,0.0,0.0,0.0,-0.3849,0.0,0.0,0.0,0.0,0.0,0.0,0.0,0.0,0.0,-0.4035,-0.4841,-0.5365,-0.5521,-0.5698,-0.5874,-0.6023,-0.6179,-0.6338,-0.6338,-0.6338,-0.6329,-0.6551,-0.7621,-0.8294,-0.8692,-0.9507,-0.9561,-0.897,-0.8747,-0.8231,-0.7602,-0.876,-0.8698,-0.8077,-1.0431,-1.194,-1.3006,-1.4663,-1.5287,-1.5197,-1.4398,-1.3057,-1.1504,-0.9478,-0.9008,-0.9245,-0.9395,-0.9551,-0.9686,-0.9795,-0.993,-1.0059,-1.01,-1.0304,-1.05,-1.0548,-1.0636,-1.0717,-1.0717,-1.0839,-1.0989,-1.1131,-1.1287,-1.145,-1.1647,-1.1681,-1.1728,-1.187,-1.1932,-1.2013,-1.2162,-1.2277,-1.2345,-1.2345,-1.2481,-1.2671,-1.2935,-1.2996,-1.3214,-1.3661,-1.3926,-1.4143,-1.4292,-1.4299,-1.4299,-1.4299,-1.4299,-1.4299,-1.4299,-1.4299,-1.4319,-1.4353,-1.4319,-1.4319,0.0,0.0,0.0,0.4519,0.0,0.0,0.0,0.0,0.4512,0.0,0.0,0.0,0.0,0.0,0.0,0.0,0.0,0.0,0.0,0.0,0.0,0.0,0.0,0.0,0.0,0.0,0.0,-0.5008,-0.5085,-0.5216,-0.5425,-0.5644,-0.5874,-0.6023,-0.6179,-0.6338,-0.6338,-0.6338,-0.6329,-0.6551,-0.774,-0.8495,-0.87,-0.8879,-0.8979,-0.9058,-0.7905,-0.7622,-0.7794,-0.7807,-0.7896,-0.8131,-0.9509,-1.01,-1.0485,-1.3006,-1.4037,-1.4161,-1.4063,-1.2659,-1.056,-0.9482,-0.9245,-0.9401,-0.9557,-0.97,-0.9815,-0.9822,-0.993,-1.008,-1.0236,-1.0385,-1.0527,-1.0677,-1.0717,-1.0717,-1.0717,-1.0839,-1.0989,-1.1131,-1.1287,-1.1484,-1.1775,-1.1823,-1.1877,-1.2033,-1.2182,-1.2325,-1.2467,-1.2488,-1.2494,-1.2494,-1.263,-1.2786,-1.2949,-1.3085,-1.3356,-1.3804,-1.398,-1.4143,-1.4292,-1.4299,-1.4299,-1.4299,-1.4299,-1.4299,-1.4299,-1.4299,-1.4373,-1.4502,-1.4367,-1.4373,0.0,0.0,0.4519,0.4519,0.0,0.0,0.0,0.0,0.0,0.0,0.0,0.0,0.0,0.0,0.0,0.0,0.0,0.0,0.0,0.0,0.0,0.0,0.0,0.0,0.0,0.0,0.0,-0.479,-0.5033,-0.5155,0.0,-0.5589,-0.5827,-0.5874,-0.6125,-0.6338,-0.6338,-0.6356,-0.6478,-0.6627,-0.7188,-0.7517,-0.7672,-0.7841,-0.7945,-0.792,-0.7764,-0.7719,-0.7821,-0.7923,-0.7991,-0.8038,-0.8528,-0.9213,-1.019,-1.194,-1.2671,-1.2715,-1.2103,-1.0881,-0.9661,-0.9119,-0.9245,-0.9523,-0.9476,-0.9625,-0.9842,-0.9944,-1.0086,-1.0236,-1.0385,-1.0527,-1.0656,-1.0711,-1.0717,-1.0717,-1.0717,-1.0914,-1.1104,-1.1151,-1.1369,-1.1606,-1.1796,-1.1918,-1.2033,-1.2189,-1.2257,-1.2338,-1.2481,-1.2589,-1.2651,-1.2651,-1.2793,-1.2942,-1.3085,-1.3417,-1.3722,-1.398,-1.4136,-1.4245,-1.4299,-1.4299,-1.4299,-1.4299,-1.4299,-1.4346,-1.4441,-1.4441,-1.4516,-1.4658,-1.4611,-1.4563,0.4519,0.4519,0.0,0.4519,0.4519,0.0,0.4519,0.0,0.0,0.0,0.0,0.0,0.0,0.0,0.0,0.0,0.0,0.0,0.0,-0.449,0.0,0.0,0.0,0.0,0.0,0.0,-0.3602,-0.4723,-0.4999,-0.5155,0.0,0.0,-0.5827,-0.5881,-0.6179,-0.6335,-0.6335,-0.6478,-0.6627,-0.6783,-0.6878,-0.7034,-0.7224,-0.7326,-0.7428,-0.7536,-0.7726,-0.7841,-0.7902,-0.7997,-0.8038,-0.8038,-0.8038,-0.8564,-0.9506,-1.078,-1.1453,-1.1541,-1.0404,-0.9713,-0.915,-0.911,-0.9327,-0.9598,-0.9551,-0.9673,-0.9849,-1.0005,-1.0161,-1.0317,-1.0453,-1.0609,-1.0717,-1.0717,-1.0717,-1.0731,-1.0792,-1.0995,-1.1179,-1.1233,-1.1491,-1.1742,-1.1891,-1.204,-1.2176,-1.2277,-1.2379,-1.2481,-1.2569,-1.2718,-1.2813,-1.2813,-1.2949,-1.3119,-1.3315,-1.3648,-1.3905,-1.4061,-1.4217,-1.4299,-1.4299,-1.4299,-1.4346,-1.4455,-1.4353,-1.4421,-1.4672,-1.4516,-1.457,-1.4821,-1.4713,-1.4665]}]]